Sac River (Missouri), Route J (06919020)

StateMissouriLatestPoor (230 cfs)
RiverSac RiverRatingObservedEstimated
Updated2020-08-07 12:45 (20 minutes ago)Flood - The river is flooding. Obstacles can be treacherous or deadly. The river should be avoided at this stage for casual trips and definitely for the inexperienced. Trips should be attempted only with protective gear and equipment.Flood(none)4493
Discharge230 cfs (median: 679 cfs)High - The river is high and potentially dangerous, especially for the young and / or inexperienced. Normal stream obstacles are sometimes difficult to navigate. Extended distances can be attempted, but canoe travel may not be advisable.High(none)1358
Height6.53 feetGood - Conditions are ideal for a canoe or kayak. Boats typically will drag on fewer than one-quarter of riffles, if at all, and portages are unnecessary or rare. Normal float lengths can be attempted without a problem.Good(none)1067
TrendFalling (rising over 24 hours)Low - River is low but can still be floated. Some riffles are okay but most come with significant dragging and might need a portage. Float lengths should be reduced to accommodate low flow, dragging, and portages.Low(none)931
USGSExternal icon USGS Site (External icon Google Maps)Poor - River is too low to float comfortably. Most or all riffles will drag or must be portaged and some obstacles (such as slick shelf rock) cause undue problems. Avoid the river at this stage for casual paddling trips.Poor(none)61

Trending Data

Plot Image

Trips for Sac River (Missouri), Route J (06919020)

DateStartEndDistanceConditionDischargeHeightFishingDetails

A total of 0 rows are displayed.

Condition Descriptions

Fishing Conditions

Fish Species

Notes

Classic Trip List

The classic River Trips application is still available for use. It is updated with the new system using a data retrofit. It is no longer maintained. The original River Trips application is no longer updated (as of 1 Dec 2016) but can be checked for errors or for the condition of the data before it was converted to the new system.

Gauge Data Table

ObservationHeightDischargeMaximum
Discharge
Minimum
Discharge
Mean
Discharge
P05P10P20P25P50
(Median)
P75P80P90P95
2020-08-07 12:45 6.53 230 6090 (2019) 55 (2006) 1120 57 62 69 75 679 1520 1920 3180 4220
2020-08-07 11:45 6.55 235 6090 (2019) 55 (2006) 1120 57 62 69 75 679 1520 1920 3180 4220
2020-08-07 10:45 6.57 240 6090 (2019) 55 (2006) 1120 57 62 69 75 679 1520 1920 3180 4220
2020-08-07 09:45 6.57 240 6090 (2019) 55 (2006) 1120 57 62 69 75 679 1520 1920 3180 4220
2020-08-07 08:45 6.60 247 6090 (2019) 55 (2006) 1120 57 62 69 75 679 1520 1920 3180 4220
2020-08-07 07:45 6.72 276 6090 (2019) 55 (2006) 1120 57 62 69 75 679 1520 1920 3180 4220
2020-08-07 06:45 6.88 319 6090 (2019) 55 (2006) 1120 57 62 69 75 679 1520 1920 3180 4220
2020-08-07 05:45 7.10 373 6090 (2019) 55 (2006) 1120 57 62 69 75 679 1520 1920 3180 4220
2020-08-07 04:45 7.39 447 6090 (2019) 55 (2006) 1120 57 62 69 75 679 1520 1920 3180 4220
2020-08-07 03:45 7.76 551 6090 (2019) 55 (2006) 1120 57 62 69 75 679 1520 1920 3180 4220
2020-08-07 02:45 8.22 691 6090 (2019) 55 (2006) 1120 57 62 69 75 679 1520 1920 3180 4220
2020-08-07 01:45 8.79 881 6090 (2019) 55 (2006) 1120 57 62 69 75 679 1520 1920 3180 4220
2020-08-07 00:45 9.46 1130 6090 (2019) 55 (2006) 1120 57 62 69 75 679 1520 1920 3180 4220
2020-08-06 23:45 10.24 1450 6060 (2019) 44 (2014) 1350 63 67 91 156 950 1910 2160 3600 4850
2020-08-06 22:45 11.15 1880 6060 (2019) 44 (2014) 1350 63 67 91 156 950 1910 2160 3600 4850
2020-08-06 21:45 12.21 2460 6060 (2019) 44 (2014) 1350 63 67 91 156 950 1910 2160 3600 4850
2020-08-06 20:45 13.33 3140 6060 (2019) 44 (2014) 1350 63 67 91 156 950 1910 2160 3600 4850
2020-08-06 19:45 14.48 3920 6060 (2019) 44 (2014) 1350 63 67 91 156 950 1910 2160 3600 4850
2020-08-06 18:45 15.25 4480 6060 (2019) 44 (2014) 1350 63 67 91 156 950 1910 2160 3600 4850
2020-08-06 17:45 14.24 3750 6060 (2019) 44 (2014) 1350 63 67 91 156 950 1910 2160 3600 4850
2020-08-06 16:45 11.59 2110 6060 (2019) 44 (2014) 1350 63 67 91 156 950 1910 2160 3600 4850
2020-08-06 15:45 7.22 403 6060 (2019) 44 (2014) 1350 63 67 91 156 950 1910 2160 3600 4850
2020-08-06 14:45 6.36 191 6060 (2019) 44 (2014) 1350 63 67 91 156 950 1910 2160 3600 4850
2020-08-06 13:45 6.38 195 6060 (2019) 44 (2014) 1350 63 67 91 156 950 1910 2160 3600 4850
2020-08-06 12:45 6.40 200 6060 (2019) 44 (2014) 1350 63 67 91 156 950 1910 2160 3600 4850
2020-08-06 11:45 6.43 207 6060 (2019) 44 (2014) 1350 63 67 91 156 950 1910 2160 3600 4850
2020-08-06 10:45 6.47 216 6060 (2019) 44 (2014) 1350 63 67 91 156 950 1910 2160 3600 4850
2020-08-06 09:45 6.52 228 6060 (2019) 44 (2014) 1350 63 67 91 156 950 1910 2160 3600 4850
2020-08-06 08:45 6.61 249 6060 (2019) 44 (2014) 1350 63 67 91 156 950 1910 2160 3600 4850
2020-08-06 07:45 6.73 279 6060 (2019) 44 (2014) 1350 63 67 91 156 950 1910 2160 3600 4850
2020-08-06 06:45 6.89 322 6060 (2019) 44 (2014) 1350 63 67 91 156 950 1910 2160 3600 4850
2020-08-06 05:45 7.11 375 6060 (2019) 44 (2014) 1350 63 67 91 156 950 1910 2160 3600 4850
2020-08-06 04:45 7.40 450 6060 (2019) 44 (2014) 1350 63 67 91 156 950 1910 2160 3600 4850
2020-08-06 03:45 7.77 553 6060 (2019) 44 (2014) 1350 63 67 91 156 950 1910 2160 3600 4850
2020-08-06 02:45 8.24 697 6060 (2019) 44 (2014) 1350 63 67 91 156 950 1910 2160 3600 4850
2020-08-06 01:45 8.81 888 6060 (2019) 44 (2014) 1350 63 67 91 156 950 1910 2160 3600 4850
2020-08-06 00:45 9.48 1140 6060 (2019) 44 (2014) 1350 63 67 91 156 950 1910 2160 3600 4850
2020-08-05 23:45 10.27 1470 6050 (2019) 41 (2014) 1280 63 70 92 132 672 1750 1880 4340 5480
2020-08-05 22:45 11.18 1890 6050 (2019) 41 (2014) 1280 63 70 92 132 672 1750 1880 4340 5480
2020-08-05 21:45 12.23 2470 6050 (2019) 41 (2014) 1280 63 70 92 132 672 1750 1880 4340 5480
2020-08-05 20:45 13.37 3170 6050 (2019) 41 (2014) 1280 63 70 92 132 672 1750 1880 4340 5480
2020-08-05 19:45 14.51 3940 6050 (2019) 41 (2014) 1280 63 70 92 132 672 1750 1880 4340 5480
2020-08-05 18:45 15.30 4520 6050 (2019) 41 (2014) 1280 63 70 92 132 672 1750 1880 4340 5480
2020-08-05 17:45 14.30 3790 6050 (2019) 41 (2014) 1280 63 70 92 132 672 1750 1880 4340 5480
2020-08-05 16:45 11.75 2200 6050 (2019) 41 (2014) 1280 63 70 92 132 672 1750 1880 4340 5480
2020-08-05 15:45 7.33 431 6050 (2019) 41 (2014) 1280 63 70 92 132 672 1750 1880 4340 5480
2020-08-05 14:45 6.38 195 6050 (2019) 41 (2014) 1280 63 70 92 132 672 1750 1880 4340 5480
2020-08-05 13:45 6.40 200 6050 (2019) 41 (2014) 1280 63 70 92 132 672 1750 1880 4340 5480
2020-08-05 12:45 6.42 205 6050 (2019) 41 (2014) 1280 63 70 92 132 672 1750 1880 4340 5480
2020-08-05 11:45 6.45 212 6050 (2019) 41 (2014) 1280 63 70 92 132 672 1750 1880 4340 5480
2020-08-05 10:45 6.48 219 6050 (2019) 41 (2014) 1280 63 70 92 132 672 1750 1880 4340 5480
2020-08-05 09:45 6.54 233 6050 (2019) 41 (2014) 1280 63 70 92 132 672 1750 1880 4340 5480
2020-08-05 08:45 6.61 249 6050 (2019) 41 (2014) 1280 63 70 92 132 672 1750 1880 4340 5480
2020-08-05 07:45 6.70 271 6050 (2019) 41 (2014) 1280 63 70 92 132 672 1750 1880 4340 5480
2020-08-05 06:45 6.84 308 6050 (2019) 41 (2014) 1280 63 70 92 132 672 1750 1880 4340 5480
2020-08-05 05:45 7.03 355 6050 (2019) 41 (2014) 1280 63 70 92 132 672 1750 1880 4340 5480
2020-08-05 04:45 7.29 421 6050 (2019) 41 (2014) 1280 63 70 92 132 672 1750 1880 4340 5480
2020-08-05 03:45 7.62 511 6050 (2019) 41 (2014) 1280 63 70 92 132 672 1750 1880 4340 5480
2020-08-05 02:45 8.04 634 6050 (2019) 41 (2014) 1280 63 70 92 132 672 1750 1880 4340 5480
2020-08-05 01:45 8.55 799 6050 (2019) 41 (2014) 1280 63 70 92 132 672 1750 1880 4340 5480
2020-08-05 00:45 9.17 1020 6050 (2019) 41 (2014) 1280 63 70 92 132 672 1750 1880 4340 5480
2020-08-04 23:45 9.89 1300 6050 (2019) 42 (2014) 1380 52 64 96 196 947 1880 2190 3720 5580
2020-08-04 22:45 10.72 1670 6050 (2019) 42 (2014) 1380 52 64 96 196 947 1880 2190 3720 5580
2020-08-04 21:45 11.69 2160 6050 (2019) 42 (2014) 1380 52 64 96 196 947 1880 2190 3720 5580
2020-08-04 20:45 12.72 2760 6050 (2019) 42 (2014) 1380 52 64 96 196 947 1880 2190 3720 5580
2020-08-04 19:45 13.71 3390 6050 (2019) 42 (2014) 1380 52 64 96 196 947 1880 2190 3720 5580
2020-08-04 18:45 14.12 3670 6050 (2019) 42 (2014) 1380 52 64 96 196 947 1880 2190 3720 5580
2020-08-04 17:45 11.82 2230 6050 (2019) 42 (2014) 1380 52 64 96 196 947 1880 2190 3720 5580
2020-08-04 16:45 7.34 434 6050 (2019) 42 (2014) 1380 52 64 96 196 947 1880 2190 3720 5580
2020-08-04 15:45 6.38 195 6050 (2019) 42 (2014) 1380 52 64 96 196 947 1880 2190 3720 5580
2020-08-04 14:45 6.39 198 6050 (2019) 42 (2014) 1380 52 64 96 196 947 1880 2190 3720 5580
2020-08-04 13:45 6.40 200 6050 (2019) 42 (2014) 1380 52 64 96 196 947 1880 2190 3720 5580
2020-08-04 12:45 6.41 202 6050 (2019) 42 (2014) 1380 52 64 96 196 947 1880 2190 3720 5580
2020-08-04 11:45 6.43 207 6050 (2019) 42 (2014) 1380 52 64 96 196 947 1880 2190 3720 5580
2020-08-04 10:45 6.45 212 6050 (2019) 42 (2014) 1380 52 64 96 196 947 1880 2190 3720 5580
2020-08-04 09:45 6.48 219 6050 (2019) 42 (2014) 1380 52 64 96 196 947 1880 2190 3720 5580
2020-08-04 08:45 6.52 228 6050 (2019) 42 (2014) 1380 52 64 96 196 947 1880 2190 3720 5580
2020-08-04 07:45 6.57 240 6050 (2019) 42 (2014) 1380 52 64 96 196 947 1880 2190 3720 5580
2020-08-04 06:45 6.64 256 6050 (2019) 42 (2014) 1380 52 64 96 196 947 1880 2190 3720 5580
2020-08-04 05:45 6.75 284 6050 (2019) 42 (2014) 1380 52 64 96 196 947 1880 2190 3720 5580
2020-08-04 04:45 6.91 326 6050 (2019) 42 (2014) 1380 52 64 96 196 947 1880 2190 3720 5580
2020-08-04 03:45 7.12 377 6050 (2019) 42 (2014) 1380 52 64 96 196 947 1880 2190 3720 5580
2020-08-04 02:45 7.40 450 6050 (2019) 42 (2014) 1380 52 64 96 196 947 1880 2190 3720 5580
2020-08-04 01:45 7.76 551 6050 (2019) 42 (2014) 1380 52 64 96 196 947 1880 2190 3720 5580
2020-08-04 00:45 8.21 687 6050 (2019) 42 (2014) 1380 52 64 96 196 947 1880 2190 3720 5580
2020-08-03 23:45 8.75 867 6130 (2019) 42 (2014) 1340 52 59 77 90 1090 1690 2040 3500 5260
2020-08-03 22:45 9.38 1100 6130 (2019) 42 (2014) 1340 52 59 77 90 1090 1690 2040 3500 5260
2020-08-03 21:45 10.09 1390 6130 (2019) 42 (2014) 1340 52 59 77 90 1090 1690 2040 3500 5260
2020-08-03 20:45 10.90 1750 6130 (2019) 42 (2014) 1340 52 59 77 90 1090 1690 2040 3500 5260
2020-08-03 19:45 11.75 2200 6130 (2019) 42 (2014) 1340 52 59 77 90 1090 1690 2040 3500 5260
2020-08-03 18:45 12.44 2590 6130 (2019) 42 (2014) 1340 52 59 77 90 1090 1690 2040 3500 5260
2020-08-03 17:45 11.56 2090 6130 (2019) 42 (2014) 1340 52 59 77 90 1090 1690 2040 3500 5260
2020-08-03 16:45 7.24 408 6130 (2019) 42 (2014) 1340 52 59 77 90 1090 1690 2040 3500 5260
2020-08-03 15:45 6.38 195 6130 (2019) 42 (2014) 1340 52 59 77 90 1090 1690 2040 3500 5260
2020-08-03 14:45 6.39 198 6130 (2019) 42 (2014) 1340 52 59 77 90 1090 1690 2040 3500 5260
2020-08-03 13:45 6.40 200 6130 (2019) 42 (2014) 1340 52 59 77 90 1090 1690 2040 3500 5260
2020-08-03 12:45 6.41 202 6130 (2019) 42 (2014) 1340 52 59 77 90 1090 1690 2040 3500 5260
2020-08-03 11:45 6.41 202 6130 (2019) 42 (2014) 1340 52 59 77 90 1090 1690 2040 3500 5260
2020-08-03 10:45 6.42 205 6130 (2019) 42 (2014) 1340 52 59 77 90 1090 1690 2040 3500 5260
2020-08-03 09:45 6.42 205 6130 (2019) 42 (2014) 1340 52 59 77 90 1090 1690 2040 3500 5260
2020-08-03 08:45 6.42 205 6130 (2019) 42 (2014) 1340 52 59 77 90 1090 1690 2040 3500 5260
2020-08-03 07:45 6.42 205 6130 (2019) 42 (2014) 1340 52 59 77 90 1090 1690 2040 3500 5260
2020-08-03 06:45 6.41 202 6130 (2019) 42 (2014) 1340 52 59 77 90 1090 1690 2040 3500 5260
2020-08-03 05:45 6.41 202 6130 (2019) 42 (2014) 1340 52 59 77 90 1090 1690 2040 3500 5260
2020-08-03 04:45 6.41 202 6130 (2019) 42 (2014) 1340 52 59 77 90 1090 1690 2040 3500 5260
2020-08-03 03:45 6.41 202 6130 (2019) 42 (2014) 1340 52 59 77 90 1090 1690 2040 3500 5260
2020-08-03 02:45 6.40 200 6130 (2019) 42 (2014) 1340 52 59 77 90 1090 1690 2040 3500 5260
2020-08-03 01:45 6.40 200 6130 (2019) 42 (2014) 1340 52 59 77 90 1090 1690 2040 3500 5260
2020-08-03 00:45 6.40 200 6130 (2019) 42 (2014) 1340 52 59 77 90 1090 1690 2040 3500 5260
2020-08-02 23:45 6.40 200 6020 (2019) 40 (2014) 1220 52 64 94 104 684 1620 1850 3640 5290
2020-08-02 22:45 6.40 200 6020 (2019) 40 (2014) 1220 52 64 94 104 684 1620 1850 3640 5290
2020-08-02 21:45 6.41 202 6020 (2019) 40 (2014) 1220 52 64 94 104 684 1620 1850 3640 5290
2020-08-02 20:45 6.41 202 6020 (2019) 40 (2014) 1220 52 64 94 104 684 1620 1850 3640 5290
2020-08-02 19:45 6.42 205 6020 (2019) 40 (2014) 1220 52 64 94 104 684 1620 1850 3640 5290
2020-08-02 18:45 6.43 207 6020 (2019) 40 (2014) 1220 52 64 94 104 684 1620 1850 3640 5290
2020-08-02 17:45 6.44 209 6020 (2019) 40 (2014) 1220 52 64 94 104 684 1620 1850 3640 5290
2020-08-02 16:45 6.45 212 6020 (2019) 40 (2014) 1220 52 64 94 104 684 1620 1850 3640 5290
2020-08-02 15:45 6.46 214 6020 (2019) 40 (2014) 1220 52 64 94 104 684 1620 1850 3640 5290
2020-08-02 14:45 6.47 216 6020 (2019) 40 (2014) 1220 52 64 94 104 684 1620 1850 3640 5290
2020-08-02 13:45 6.48 219 6020 (2019) 40 (2014) 1220 52 64 94 104 684 1620 1850 3640 5290
2020-08-02 12:45 6.50 223 6020 (2019) 40 (2014) 1220 52 64 94 104 684 1620 1850 3640 5290
2020-08-02 11:45 6.50 223 6020 (2019) 40 (2014) 1220 52 64 94 104 684 1620 1850 3640 5290
2020-08-02 10:45 6.52 228 6020 (2019) 40 (2014) 1220 52 64 94 104 684 1620 1850 3640 5290
2020-08-02 09:45 6.52 228 6020 (2019) 40 (2014) 1220 52 64 94 104 684 1620 1850 3640 5290
2020-08-02 08:45 6.53 230 6020 (2019) 40 (2014) 1220 52 64 94 104 684 1620 1850 3640 5290
2020-08-02 07:45 6.54 233 6020 (2019) 40 (2014) 1220 52 64 94 104 684 1620 1850 3640 5290
2020-08-02 06:45 6.55 235 6020 (2019) 40 (2014) 1220 52 64 94 104 684 1620 1850 3640 5290
2020-08-02 05:45 6.56 237 6020 (2019) 40 (2014) 1220 52 64 94 104 684 1620 1850 3640 5290
2020-08-02 04:45 6.57 240 6020 (2019) 40 (2014) 1220 52 64 94 104 684 1620 1850 3640 5290
2020-08-02 03:45 6.58 242 6020 (2019) 40 (2014) 1220 52 64 94 104 684 1620 1850 3640 5290
2020-08-02 02:45 6.59 244 6020 (2019) 40 (2014) 1220 52 64 94 104 684 1620 1850 3640 5290
2020-08-02 01:45 6.60 247 6020 (2019) 40 (2014) 1220 52 64 94 104 684 1620 1850 3640 5290
2020-08-02 00:45 6.61 249 6020 (2019) 40 (2014) 1220 52 64 94 104 684 1620 1850 3640 5290
2020-08-01 23:45 6.63 254 5950 (2019) 42 (2014) 1330 54 72 98 116 1140 1780 2010 3540 5350
2020-08-01 22:45 6.65 259 5950 (2019) 42 (2014) 1330 54 72 98 116 1140 1780 2010 3540 5350
2020-08-01 21:45 6.68 266 5950 (2019) 42 (2014) 1330 54 72 98 116 1140 1780 2010 3540 5350
2020-08-01 20:45 6.71 274 5950 (2019) 42 (2014) 1330 54 72 98 116 1140 1780 2010 3540 5350
2020-08-01 19:45 6.74 282 5950 (2019) 42 (2014) 1330 54 72 98 116 1140 1780 2010 3540 5350
2020-08-01 18:45 6.78 292 5950 (2019) 42 (2014) 1330 54 72 98 116 1140 1780 2010 3540 5350
2020-08-01 17:45 6.82 303 5950 (2019) 42 (2014) 1330 54 72 98 116 1140 1780 2010 3540 5350
2020-08-01 16:45 6.87 317 5950 (2019) 42 (2014) 1330 54 72 98 116 1140 1780 2010 3540 5350
2020-08-01 15:45 6.91 326 5950 (2019) 42 (2014) 1330 54 72 98 116 1140 1780 2010 3540 5350
2020-08-01 14:45 6.96 338 5950 (2019) 42 (2014) 1330 54 72 98 116 1140 1780 2010 3540 5350
2020-08-01 13:45 7.01 350 5950 (2019) 42 (2014) 1330 54 72 98 116 1140 1780 2010 3540 5350
2020-08-01 12:45 7.07 365 5950 (2019) 42 (2014) 1330 54 72 98 116 1140 1780 2010 3540 5350
2020-08-01 11:45 7.12 377 5950 (2019) 42 (2014) 1330 54 72 98 116 1140 1780 2010 3540 5350
2020-08-01 10:45 7.16 388 5950 (2019) 42 (2014) 1330 54 72 98 116 1140 1780 2010 3540 5350
2020-08-01 09:45 7.19 395 5950 (2019) 42 (2014) 1330 54 72 98 116 1140 1780 2010 3540 5350
2020-08-01 08:45 7.21 400 5950 (2019) 42 (2014) 1330 54 72 98 116 1140 1780 2010 3540 5350
2020-08-01 07:45 7.21 400 5950 (2019) 42 (2014) 1330 54 72 98 116 1140 1780 2010 3540 5350
2020-08-01 06:45 7.20 398 5950 (2019) 42 (2014) 1330 54 72 98 116 1140 1780 2010 3540 5350
2020-08-01 05:45 7.19 395 5950 (2019) 42 (2014) 1330 54 72 98 116 1140 1780 2010 3540 5350
2020-08-01 04:45 7.25 411 5950 (2019) 42 (2014) 1330 54 72 98 116 1140 1780 2010 3540 5350
2020-08-01 03:45 7.39 447 5950 (2019) 42 (2014) 1330 54 72 98 116 1140 1780 2010 3540 5350
2020-08-01 02:45 7.60 505 5950 (2019) 42 (2014) 1330 54 72 98 116 1140 1780 2010 3540 5350
2020-08-01 01:45 7.89 589 5950 (2019) 42 (2014) 1330 54 72 98 116 1140 1780 2010 3540 5350
2020-08-01 00:45 8.29 713 5950 (2019) 42 (2014) 1330 54 72 98 116 1140 1780 2010 3540 5350
2020-07-31 23:45 8.81 888 6170 (2015) 39 (2014) 1230 55 67 77 90 669 1400 1910 3980 5880
2020-07-31 22:45 9.43 1120 6170 (2015) 39 (2014) 1230 55 67 77 90 669 1400 1910 3980 5880
2020-07-31 21:45 10.13 1410 6170 (2015) 39 (2014) 1230 55 67 77 90 669 1400 1910 3980 5880
2020-07-31 20:45 10.92 1760 6170 (2015) 39 (2014) 1230 55 67 77 90 669 1400 1910 3980 5880
2020-07-31 19:45 11.77 2210 6170 (2015) 39 (2014) 1230 55 67 77 90 669 1400 1910 3980 5880
2020-07-31 18:45 12.41 2570 6170 (2015) 39 (2014) 1230 55 67 77 90 669 1400 1910 3980 5880
2020-07-31 17:45 11.51 2070 6170 (2015) 39 (2014) 1230 55 67 77 90 669 1400 1910 3980 5880
2020-07-31 16:45 7.07 365 6170 (2015) 39 (2014) 1230 55 67 77 90 669 1400 1910 3980 5880
2020-07-31 15:45 6.52 228 6170 (2015) 39 (2014) 1230 55 67 77 90 669 1400 1910 3980 5880
2020-07-31 14:45 6.53 230 6170 (2015) 39 (2014) 1230 55 67 77 90 669 1400 1910 3980 5880
2020-07-31 13:45 6.53 230 6170 (2015) 39 (2014) 1230 55 67 77 90 669 1400 1910 3980 5880
2020-07-31 12:45 6.54 233 6170 (2015) 39 (2014) 1230 55 67 77 90 669 1400 1910 3980 5880
2020-07-31 11:45 6.57 240 6170 (2015) 39 (2014) 1230 55 67 77 90 669 1400 1910 3980 5880
2020-07-31 10:45 6.59 244 6170 (2015) 39 (2014) 1230 55 67 77 90 669 1400 1910 3980 5880
2020-07-31 09:45 6.65 259 6170 (2015) 39 (2014) 1230 55 67 77 90 669 1400 1910 3980 5880
2020-07-31 08:45 6.73 279 6170 (2015) 39 (2014) 1230 55 67 77 90 669 1400 1910 3980 5880
2020-07-31 07:45 6.84 308 6170 (2015) 39 (2014) 1230 55 67 77 90 669 1400 1910 3980 5880
2020-07-31 06:45 6.99 346 6170 (2015) 39 (2014) 1230 55 67 77 90 669 1400 1910 3980 5880
2020-07-31 05:45 7.20 398 6170 (2015) 39 (2014) 1230 55 67 77 90 669 1400 1910 3980 5880
2020-07-31 04:45 7.48 472 6170 (2015) 39 (2014) 1230 55 67 77 90 669 1400 1910 3980 5880
2020-07-31 03:45 7.84 574 6170 (2015) 39 (2014) 1230 55 67 77 90 669 1400 1910 3980 5880
2020-07-31 02:45 8.30 716 6170 (2015) 39 (2014) 1230 55 67 77 90 669 1400 1910 3980 5880
2020-07-31 01:45 8.87 910 6170 (2015) 39 (2014) 1230 55 67 77 90 669 1400 1910 3980 5880
2020-07-31 00:45 9.53 1160 6170 (2015) 39 (2014) 1230 55 67 77 90 669 1400 1910 3980 5880
2020-07-30 23:45 10.31 1480 6120 (2015) 38 (2014) 1320 55 67 79 90 590 1920 2280 4300 5670
2020-07-30 22:45 11.23 1920 6120 (2015) 38 (2014) 1320 55 67 79 90 590 1920 2280 4300 5670
2020-07-30 21:45 12.27 2490 6120 (2015) 38 (2014) 1320 55 67 79 90 590 1920 2280 4300 5670
2020-07-30 20:45 13.40 3180 6120 (2015) 38 (2014) 1320 55 67 79 90 590 1920 2280 4300 5670
2020-07-30 19:45 14.55 3970 6120 (2015) 38 (2014) 1320 55 67 79 90 590 1920 2280 4300 5670
2020-07-30 18:45 15.32 4530 6120 (2015) 38 (2014) 1320 55 67 79 90 590 1920 2280 4300 5670
2020-07-30 17:45 14.34 3820 6120 (2015) 38 (2014) 1320 55 67 79 90 590 1920 2280 4300 5670
2020-07-30 16:45 11.80 2220 6120 (2015) 38 (2014) 1320 55 67 79 90 590 1920 2280 4300 5670
2020-07-30 15:45 7.45 463 6120 (2015) 38 (2014) 1320 55 67 79 90 590 1920 2280 4300 5670
2020-07-30 14:45 6.48 219 6120 (2015) 38 (2014) 1320 55 67 79 90 590 1920 2280 4300 5670
2020-07-30 13:45 6.50 223 6120 (2015) 38 (2014) 1320 55 67 79 90 590 1920 2280 4300 5670
2020-07-30 12:45 6.53 230 6120 (2015) 38 (2014) 1320 55 67 79 90 590 1920 2280 4300 5670
2020-07-30 11:45 6.56 237 6120 (2015) 38 (2014) 1320 55 67 79 90 590 1920 2280 4300 5670
2020-07-30 10:45 6.61 249 6120 (2015) 38 (2014) 1320 55 67 79 90 590 1920 2280 4300 5670
2020-07-30 09:45 6.66 261 6120 (2015) 38 (2014) 1320 55 67 79 90 590 1920 2280 4300 5670
2020-07-30 08:45 6.75 284 6120 (2015) 38 (2014) 1320 55 67 79 90 590 1920 2280 4300 5670
2020-07-30 07:45 6.86 314 6120 (2015) 38 (2014) 1320 55 67 79 90 590 1920 2280 4300 5670
2020-07-30 06:45 7.02 353 6120 (2015) 38 (2014) 1320 55 67 79 90 590 1920 2280 4300 5670
2020-07-30 05:45 7.24 408 6120 (2015) 38 (2014) 1320 55 67 79 90 590 1920 2280 4300 5670
2020-07-30 04:45 7.52 483 6120 (2015) 38 (2014) 1320 55 67 79 90 590 1920 2280 4300 5670
2020-07-30 03:45 7.89 589 6120 (2015) 38 (2014) 1320 55 67 79 90 590 1920 2280 4300 5670
2020-07-30 02:45 8.35 732 6120 (2015) 38 (2014) 1320 55 67 79 90 590 1920 2280 4300 5670
2020-07-30 01:45 8.91 924 6120 (2015) 38 (2014) 1320 55 67 79 90 590 1920 2280 4300 5670
2020-07-30 00:45 9.57 1170 6120 (2015) 38 (2014) 1320 55 67 79 90 590 1920 2280 4300 5670
2020-07-29 23:45 10.34 1500 6150 (2019) 39 (2014) 1310 64 74 115 189 680 1740 2070 3640 5790
2020-07-29 22:45 11.26 1930 6150 (2019) 39 (2014) 1310 64 74 115 189 680 1740 2070 3640 5790
2020-07-29 21:45 12.30 2510 6150 (2019) 39 (2014) 1310 64 74 115 189 680 1740 2070 3640 5790
2020-07-29 20:45 13.43 3200 6150 (2019) 39 (2014) 1310 64 74 115 189 680 1740 2070 3640 5790
2020-07-29 19:45 14.59 4000 6150 (2019) 39 (2014) 1310 64 74 115 189 680 1740 2070 3640 5790
2020-07-29 18:45 15.34 4550 6150 (2019) 39 (2014) 1310 64 74 115 189 680 1740 2070 3640 5790
2020-07-29 17:45 14.34 3820 6150 (2019) 39 (2014) 1310 64 74 115 189 680 1740 2070 3640 5790
2020-07-29 16:45 11.75 2200 6150 (2019) 39 (2014) 1310 64 74 115 189 680 1740 2070 3640 5790
2020-07-29 15:45 7.49 474 6150 (2019) 39 (2014) 1310 64 74 115 189 680 1740 2070 3640 5790
2020-07-29 14:45 6.51 226 6150 (2019) 39 (2014) 1310 64 74 115 189 680 1740 2070 3640 5790
2020-07-29 13:45 6.52 228 6150 (2019) 39 (2014) 1310 64 74 115 189 680 1740 2070 3640 5790
2020-07-29 12:45 6.53 230 6150 (2019) 39 (2014) 1310 64 74 115 189 680 1740 2070 3640 5790
2020-07-29 11:45 6.57 240 6150 (2019) 39 (2014) 1310 64 74 115 189 680 1740 2070 3640 5790
2020-07-29 10:45 6.61 249 6150 (2019) 39 (2014) 1310 64 74 115 189 680 1740 2070 3640 5790
2020-07-29 09:45 6.67 264 6150 (2019) 39 (2014) 1310 64 74 115 189 680 1740 2070 3640 5790
2020-07-29 08:45 6.75 284 6150 (2019) 39 (2014) 1310 64 74 115 189 680 1740 2070 3640 5790
2020-07-29 07:45 6.87 317 6150 (2019) 39 (2014) 1310 64 74 115 189 680 1740 2070 3640 5790
2020-07-29 06:45 7.03 355 6150 (2019) 39 (2014) 1310 64 74 115 189 680 1740 2070 3640 5790
2020-07-29 05:45 7.24 408 6150 (2019) 39 (2014) 1310 64 74 115 189 680 1740 2070 3640 5790
2020-07-29 04:45 7.52 483 6150 (2019) 39 (2014) 1310 64 74 115 189 680 1740 2070 3640 5790
2020-07-29 03:45 7.88 586 6150 (2019) 39 (2014) 1310 64 74 115 189 680 1740 2070 3640 5790
2020-07-29 02:45 8.34 729 6150 (2019) 39 (2014) 1310 64 74 115 189 680 1740 2070 3640 5790
2020-07-29 01:45 8.89 917 6150 (2019) 39 (2014) 1310 64 74 115 189 680 1740 2070 3640 5790
2020-07-29 00:45 9.55 1160 6150 (2019) 39 (2014) 1310 64 74 115 189 680 1740 2070 3640 5790
2020-07-28 23:45 10.32 1490 6110 (2019) 39 (2014) 1260 52 66 86 106 858 1620 1810 3200 5220
2020-07-28 22:45 11.22 1910 6110 (2019) 39 (2014) 1260 52 66 86 106 858 1620 1810 3200 5220
2020-07-28 21:45 12.26 2480 6110 (2019) 39 (2014) 1260 52 66 86 106 858 1620 1810 3200 5220
2020-07-28 20:45 13.38 3170 6110 (2019) 39 (2014) 1260 52 66 86 106 858 1620 1810 3200 5220
2020-07-28 19:45 14.51 3940 6110 (2019) 39 (2014) 1260 52 66 86 106 858 1620 1810 3200 5220
2020-07-28 18:45 15.27 4490 6110 (2019) 39 (2014) 1260 52 66 86 106 858 1620 1810 3200 5220
2020-07-28 17:45 14.25 3760 6110 (2019) 39 (2014) 1260 52 66 86 106 858 1620 1810 3200 5220
2020-07-28 16:45 11.37 1990 6110 (2019) 39 (2014) 1260 52 66 86 106 858 1620 1810 3200 5220
2020-07-28 15:45 7.19 395 6110 (2019) 39 (2014) 1260 52 66 86 106 858 1620 1810 3200 5220
2020-07-28 14:45 6.40 200 6110 (2019) 39 (2014) 1260 52 66 86 106 858 1620 1810 3200 5220
2020-07-28 13:45 6.43 207 6110 (2019) 39 (2014) 1260 52 66 86 106 858 1620 1810 3200 5220
2020-07-28 12:45 6.47 216 6110 (2019) 39 (2014) 1260 52 66 86 106 858 1620 1810 3200 5220
2020-07-28 11:45 6.52 228 6110 (2019) 39 (2014) 1260 52 66 86 106 858 1620 1810 3200 5220
2020-07-28 10:45 6.59 244 6110 (2019) 39 (2014) 1260 52 66 86 106 858 1620 1810 3200 5220
2020-07-28 09:45 6.69 269 6110 (2019) 39 (2014) 1260 52 66 86 106 858 1620 1810 3200 5220
2020-07-28 08:45 6.83 306 6110 (2019) 39 (2014) 1260 52 66 86 106 858 1620 1810 3200 5220
2020-07-28 07:45 7.02 353 6110 (2019) 39 (2014) 1260 52 66 86 106 858 1620 1810 3200 5220
2020-07-28 06:45 7.26 413 6110 (2019) 39 (2014) 1260 52 66 86 106 858 1620 1810 3200 5220
2020-07-28 05:45 7.59 502 6110 (2019) 39 (2014) 1260 52 66 86 106 858 1620 1810 3200 5220
2020-07-28 04:45 8.01 625 6110 (2019) 39 (2014) 1260 52 66 86 106 858 1620 1810 3200 5220
2020-07-28 03:45 8.53 792 6110 (2019) 39 (2014) 1260 52 66 86 106 858 1620 1810 3200 5220
2020-07-28 02:45 9.16 1010 6110 (2019) 39 (2014) 1260 52 66 86 106 858 1620 1810 3200 5220
2020-07-28 01:45 9.89 1300 6110 (2019) 39 (2014) 1260 52 66 86 106 858 1620 1810 3200 5220
2020-07-28 00:45 10.75 1680 6110 (2019) 39 (2014) 1260 52 66 86 106 858 1620 1810 3200 5220
2020-07-27 23:45 11.76 2200 6110 (2015) 40 (2014) 1340 55 60 77 87 981 2070 2240 3760 5780
2020-07-27 22:45 12.89 2860 6110 (2015) 40 (2014) 1340 55 60 77 87 981 2070 2240 3760 5780
2020-07-27 21:45 14.13 3670 6110 (2015) 40 (2014) 1340 55 60 77 87 981 2070 2240 3760 5780
2020-07-27 20:45 15.40 4590 6110 (2015) 40 (2014) 1340 55 60 77 87 981 2070 2240 3760 5780
2020-07-27 19:45 16.44 5410 6110 (2015) 40 (2014) 1340 55 60 77 87 981 2070 2240 3760 5780
2020-07-27 18:45 16.14 5170 6110 (2015) 40 (2014) 1340 55 60 77 87 981 2070 2240 3760 5780
2020-07-27 17:45 15.42 4610 6110 (2015) 40 (2014) 1340 55 60 77 87 981 2070 2240 3760 5780
2020-07-27 16:45 14.22 3730 6110 (2015) 40 (2014) 1340 55 60 77 87 981 2070 2240 3760 5780
2020-07-27 15:45 11.26 1930 6110 (2015) 40 (2014) 1340 55 60 77 87 981 2070 2240 3760 5780
2020-07-27 14:45 6.99 346 6110 (2015) 40 (2014) 1340 55 60 77 87 981 2070 2240 3760 5780
2020-07-27 13:45 6.36 191 6110 (2015) 40 (2014) 1340 55 60 77 87 981 2070 2240 3760 5780
2020-07-27 12:45 6.38 195 6110 (2015) 40 (2014) 1340 55 60 77 87 981 2070 2240 3760 5780
2020-07-27 11:45 6.41 202 6110 (2015) 40 (2014) 1340 55 60 77 87 981 2070 2240 3760 5780
2020-07-27 10:45 6.45 212 6110 (2015) 40 (2014) 1340 55 60 77 87 981 2070 2240 3760 5780
2020-07-27 09:45 6.50 223 6110 (2015) 40 (2014) 1340 55 60 77 87 981 2070 2240 3760 5780
2020-07-27 08:45 6.58 242 6110 (2015) 40 (2014) 1340 55 60 77 87 981 2070 2240 3760 5780
2020-07-27 07:45 6.70 271 6110 (2015) 40 (2014) 1340 55 60 77 87 981 2070 2240 3760 5780
2020-07-27 06:45 6.87 317 6110 (2015) 40 (2014) 1340 55 60 77 87 981 2070 2240 3760 5780
2020-07-27 05:45 7.09 370 6110 (2015) 40 (2014) 1340 55 60 77 87 981 2070 2240 3760 5780
2020-07-27 04:45 7.38 445 6110 (2015) 40 (2014) 1340 55 60 77 87 981 2070 2240 3760 5780
2020-07-27 03:45 7.75 548 6110 (2015) 40 (2014) 1340 55 60 77 87 981 2070 2240 3760 5780
2020-07-27 02:45 8.22 691 6110 (2015) 40 (2014) 1340 55 60 77 87 981 2070 2240 3760 5780
2020-07-27 01:45 8.78 878 6110 (2015) 40 (2014) 1340 55 60 77 87 981 2070 2240 3760 5780
2020-07-27 00:45 9.45 1120 6110 (2015) 40 (2014) 1340 55 60 77 87 981 2070 2240 3760 5780
2020-07-26 23:45 10.23 1450 6120 (2015) 41 (2014) 1430 55 67 107 142 1010 1930 2190 3720 5730
2020-07-26 22:45 11.14 1870 6120 (2015) 41 (2014) 1430 55 67 107 142 1010 1930 2190 3720 5730
2020-07-26 21:45 12.18 2440 6120 (2015) 41 (2014) 1430 55 67 107 142 1010 1930 2190 3720 5730
2020-07-26 20:45 13.33 3140 6120 (2015) 41 (2014) 1430 55 67 107 142 1010 1930 2190 3720 5730
2020-07-26 19:45 14.45 3900 6120 (2015) 41 (2014) 1430 55 67 107 142 1010 1930 2190 3720 5730
2020-07-26 18:45 15.24 4470 6120 (2015) 41 (2014) 1430 55 67 107 142 1010 1930 2190 3720 5730
2020-07-26 17:45 14.23 3740 6120 (2015) 41 (2014) 1430 55 67 107 142 1010 1930 2190 3720 5730
2020-07-26 16:45 11.39 2000 6120 (2015) 41 (2014) 1430 55 67 107 142 1010 1930 2190 3720 5730
2020-07-26 15:45 7.07 365 6120 (2015) 41 (2014) 1430 55 67 107 142 1010 1930 2190 3720 5730
2020-07-26 14:45 6.33 184 6120 (2015) 41 (2014) 1430 55 67 107 142 1010 1930 2190 3720 5730
2020-07-26 13:45 6.35 189 6120 (2015) 41 (2014) 1430 55 67 107 142 1010 1930 2190 3720 5730
2020-07-26 12:45 6.38 195 6120 (2015) 41 (2014) 1430 55 67 107 142 1010 1930 2190 3720 5730
2020-07-26 11:45 6.41 202 6120 (2015) 41 (2014) 1430 55 67 107 142 1010 1930 2190 3720 5730
2020-07-26 10:45 6.46 214 6120 (2015) 41 (2014) 1430 55 67 107 142 1010 1930 2190 3720 5730
2020-07-26 09:45 6.52 228 6120 (2015) 41 (2014) 1430 55 67 107 142 1010 1930 2190 3720 5730
2020-07-26 08:45 6.60 247 6120 (2015) 41 (2014) 1430 55 67 107 142 1010 1930 2190 3720 5730
2020-07-26 07:45 6.72 276 6120 (2015) 41 (2014) 1430 55 67 107 142 1010 1930 2190 3720 5730
2020-07-26 06:45 6.88 319 6120 (2015) 41 (2014) 1430 55 67 107 142 1010 1930 2190 3720 5730
2020-07-26 05:45 7.10 373 6120 (2015) 41 (2014) 1430 55 67 107 142 1010 1930 2190 3720 5730
2020-07-26 04:45 7.39 447 6120 (2015) 41 (2014) 1430 55 67 107 142 1010 1930 2190 3720 5730
2020-07-26 03:45 7.76 551 6120 (2015) 41 (2014) 1430 55 67 107 142 1010 1930 2190 3720 5730
2020-07-26 02:45 8.22 691 6120 (2015) 41 (2014) 1430 55 67 107 142 1010 1930 2190 3720 5730
2020-07-26 01:45 8.78 878 6120 (2015) 41 (2014) 1430 55 67 107 142 1010 1930 2190 3720 5730
2020-07-26 00:45 9.45 1120 6120 (2015) 41 (2014) 1430 55 67 107 142 1010 1930 2190 3720 5730
2020-07-25 23:45 10.23 1450 6090 (2015) 41 (2014) 1380 51 60 86 100 859 1950 2080 3790 5740
2020-07-25 22:45 11.14 1870 6090 (2015) 41 (2014) 1380 51 60 86 100 859 1950 2080 3790 5740
2020-07-25 21:45 12.18 2440 6090 (2015) 41 (2014) 1380 51 60 86 100 859 1950 2080 3790 5740
2020-07-25 20:45 13.31 3130 6090 (2015) 41 (2014) 1380 51 60 86 100 859 1950 2080 3790 5740
2020-07-25 19:45 14.45 3900 6090 (2015) 41 (2014) 1380 51 60 86 100 859 1950 2080 3790 5740
2020-07-25 18:45 15.22 4460 6090 (2015) 41 (2014) 1380 51 60 86 100 859 1950 2080 3790 5740
2020-07-25 17:45 14.21 3730 6090 (2015) 41 (2014) 1380 51 60 86 100 859 1950 2080 3790 5740
2020-07-25 16:45 11.35 1980 6090 (2015) 41 (2014) 1380 51 60 86 100 859 1950 2080 3790 5740
2020-07-25 15:45 7.15 385 6090 (2015) 41 (2014) 1380 51 60 86 100 859 1950 2080 3790 5740
2020-07-25 14:45 6.36 191 6090 (2015) 41 (2014) 1380 51 60 86 100 859 1950 2080 3790 5740
2020-07-25 13:45 6.38 195 6090 (2015) 41 (2014) 1380 51 60 86 100 859 1950 2080 3790 5740
2020-07-25 12:45 6.41 202 6090 (2015) 41 (2014) 1380 51 60 86 100 859 1950 2080 3790 5740
2020-07-25 11:45 6.44 209 6090 (2015) 41 (2014) 1380 51 60 86 100 859 1950 2080 3790 5740
2020-07-25 10:45 6.49 221 6090 (2015) 41 (2014) 1380 51 60 86 100 859 1950 2080 3790 5740
2020-07-25 09:45 6.55 235 6090 (2015) 41 (2014) 1380 51 60 86 100 859 1950 2080 3790 5740
2020-07-25 08:45 6.64 256 6090 (2015) 41 (2014) 1380 51 60 86 100 859 1950 2080 3790 5740
2020-07-25 07:45 6.76 287 6090 (2015) 41 (2014) 1380 51 60 86 100 859 1950 2080 3790 5740
2020-07-25 06:45 6.94 334 6090 (2015) 41 (2014) 1380 51 60 86 100 859 1950 2080 3790 5740
2020-07-25 05:45 7.18 393 6090 (2015) 41 (2014) 1380 51 60 86 100 859 1950 2080 3790 5740
2020-07-25 04:45 7.49 474 6090 (2015) 41 (2014) 1380 51 60 86 100 859 1950 2080 3790 5740
2020-07-25 03:45 7.88 586 6090 (2015) 41 (2014) 1380 51 60 86 100 859 1950 2080 3790 5740
2020-07-25 02:45 8.37 739 6090 (2015) 41 (2014) 1380 51 60 86 100 859 1950 2080 3790 5740
2020-07-25 01:45 8.97 945 6090 (2015) 41 (2014) 1380 51 60 86 100 859 1950 2080 3790 5740
2020-07-25 00:45 9.67 1210 6090 (2015) 41 (2014) 1380 51 60 86 100 859 1950 2080 3790 5740
2020-07-24 23:45 10.49 1560 6040 (2015) 41 (2014) 1350 57 69 115 211 920 1830 2210 3790 5750
2020-07-24 22:45 11.46 2040 6040 (2015) 41 (2014) 1350 57 69 115 211 920 1830 2210 3790 5750
2020-07-24 21:45 12.56 2660 6040 (2015) 41 (2014) 1350 57 69 115 211 920 1830 2210 3790 5750
2020-07-24 20:45 13.75 3410 6040 (2015) 41 (2014) 1350 57 69 115 211 920 1830 2210 3790 5750
2020-07-24 19:45 14.97 4270 6040 (2015) 41 (2014) 1350 57 69 115 211 920 1830 2210 3790 5750
2020-07-24 18:45 15.92 4990 6040 (2015) 41 (2014) 1350 57 69 115 211 920 1830 2210 3790 5750
2020-07-24 17:45 15.35 4550 6040 (2015) 41 (2014) 1350 57 69 115 211 920 1830 2210 3790 5750
2020-07-24 16:45 14.21 3730 6040 (2015) 41 (2014) 1350 57 69 115 211 920 1830 2210 3790 5750
2020-07-24 15:45 11.41 2010 6040 (2015) 41 (2014) 1350 57 69 115 211 920 1830 2210 3790 5750
2020-07-24 14:45 7.16 388 6040 (2015) 41 (2014) 1350 57 69 115 211 920 1830 2210 3790 5750
2020-07-24 13:45 6.38 195 6040 (2015) 41 (2014) 1350 57 69 115 211 920 1830 2210 3790 5750
2020-07-24 12:45 6.40 200 6040 (2015) 41 (2014) 1350 57 69 115 211 920 1830 2210 3790 5750
2020-07-24 11:45 6.43 207 6040 (2015) 41 (2014) 1350 57 69 115 211 920 1830 2210 3790 5750
2020-07-24 10:45 6.47 216 6040 (2015) 41 (2014) 1350 57 69 115 211 920 1830 2210 3790 5750
2020-07-24 09:45 6.53 230 6040 (2015) 41 (2014) 1350 57 69 115 211 920 1830 2210 3790 5750
2020-07-24 08:45 6.61 249 6040 (2015) 41 (2014) 1350 57 69 115 211 920 1830 2210 3790 5750
2020-07-24 07:45 6.73 279 6040 (2015) 41 (2014) 1350 57 69 115 211 920 1830 2210 3790 5750
2020-07-24 06:45 6.89 322 6040 (2015) 41 (2014) 1350 57 69 115 211 920 1830 2210 3790 5750
2020-07-24 05:45 7.11 375 6040 (2015) 41 (2014) 1350 57 69 115 211 920 1830 2210 3790 5750
2020-07-24 04:45 7.39 447 6040 (2015) 41 (2014) 1350 57 69 115 211 920 1830 2210 3790 5750
2020-07-24 03:45 7.76 551 6040 (2015) 41 (2014) 1350 57 69 115 211 920 1830 2210 3790 5750
2020-07-24 02:45 8.22 691 6040 (2015) 41 (2014) 1350 57 69 115 211 920 1830 2210 3790 5750
2020-07-24 01:45 8.79 881 6040 (2015) 41 (2014) 1350 57 69 115 211 920 1830 2210 3790 5750
2020-07-24 00:45 9.46 1130 6040 (2015) 41 (2014) 1350 57 69 115 211 920 1830 2210 3790 5750
2020-07-23 23:45 10.23 1450 6050 (2019) 41 (2014) 1570 56 66 115 335 1270 2080 2640 4690 5720
2020-07-23 22:45 11.15 1880 6050 (2019) 41 (2014) 1570 56 66 115 335 1270 2080 2640 4690 5720
2020-07-23 21:45 12.19 2440 6050 (2019) 41 (2014) 1570 56 66 115 335 1270 2080 2640 4690 5720
2020-07-23 20:45 13.32 3130 6050 (2019) 41 (2014) 1570 56 66 115 335 1270 2080 2640 4690 5720
2020-07-23 19:45 14.46 3900 6050 (2019) 41 (2014) 1570 56 66 115 335 1270 2080 2640 4690 5720
2020-07-23 18:45 15.22 4460 6050 (2019) 41 (2014) 1570 56 66 115 335 1270 2080 2640 4690 5720
2020-07-23 17:45 14.22 3730 6050 (2019) 41 (2014) 1570 56 66 115 335 1270 2080 2640 4690 5720
2020-07-23 16:45 11.42 2020 6050 (2019) 41 (2014) 1570 56 66 115 335 1270 2080 2640 4690 5720
2020-07-23 15:45 7.20 398 6050 (2019) 41 (2014) 1570 56 66 115 335 1270 2080 2640 4690 5720
2020-07-23 14:45 6.39 198 6050 (2019) 41 (2014) 1570 56 66 115 335 1270 2080 2640 4690 5720
2020-07-23 13:45 6.40 200 6050 (2019) 41 (2014) 1570 56 66 115 335 1270 2080 2640 4690 5720
2020-07-23 12:45 6.43 207 6050 (2019) 41 (2014) 1570 56 66 115 335 1270 2080 2640 4690 5720
2020-07-23 11:45 6.46 214 6050 (2019) 41 (2014) 1570 56 66 115 335 1270 2080 2640 4690 5720
2020-07-23 10:45 6.50 223 6050 (2019) 41 (2014) 1570 56 66 115 335 1270 2080 2640 4690 5720
2020-07-23 09:45 6.55 235 6050 (2019) 41 (2014) 1570 56 66 115 335 1270 2080 2640 4690 5720
2020-07-23 08:45 6.63 254 6050 (2019) 41 (2014) 1570 56 66 115 335 1270 2080 2640 4690 5720
2020-07-23 07:45 6.75 284 6050 (2019) 41 (2014) 1570 56 66 115 335 1270 2080 2640 4690 5720
2020-07-23 06:45 6.91 326 6050 (2019) 41 (2014) 1570 56 66 115 335 1270 2080 2640 4690 5720
2020-07-23 05:45 7.13 380 6050 (2019) 41 (2014) 1570 56 66 115 335 1270 2080 2640 4690 5720
2020-07-23 04:45 7.41 453 6050 (2019) 41 (2014) 1570 56 66 115 335 1270 2080 2640 4690 5720
2020-07-23 03:45 7.78 556 6050 (2019) 41 (2014) 1570 56 66 115 335 1270 2080 2640 4690 5720
2020-07-23 02:45 8.24 697 6050 (2019) 41 (2014) 1570 56 66 115 335 1270 2080 2640 4690 5720
2020-07-23 01:45 8.80 885 6050 (2019) 41 (2014) 1570 56 66 115 335 1270 2080 2640 4690 5720
2020-07-23 00:45 9.47 1130 6050 (2019) 41 (2014) 1570 56 66 115 335 1270 2080 2640 4690 5720
2020-07-22 23:45 10.24 1450 6020 (2019) 41 (2014) 1440 64 79 143 248 1050 2050 2210 3910 5680
2020-07-22 22:45 11.15 1880 6020 (2019) 41 (2014) 1440 64 79 143 248 1050 2050 2210 3910 5680
2020-07-22 21:45 12.20 2450 6020 (2019) 41 (2014) 1440 64 79 143 248 1050 2050 2210 3910 5680
2020-07-22 20:45 13.32 3130 6020 (2019) 41 (2014) 1440 64 79 143 248 1050 2050 2210 3910 5680
2020-07-22 19:45 14.46 3900 6020 (2019) 41 (2014) 1440 64 79 143 248 1050 2050 2210 3910 5680
2020-07-22 18:45 15.23 4460 6020 (2019) 41 (2014) 1440 64 79 143 248 1050 2050 2210 3910 5680
2020-07-22 17:45 14.21 3730 6020 (2019) 41 (2014) 1440 64 79 143 248 1050 2050 2210 3910 5680
2020-07-22 16:45 11.40 2010 6020 (2019) 41 (2014) 1440 64 79 143 248 1050 2050 2210 3910 5680
2020-07-22 15:45 7.20 398 6020 (2019) 41 (2014) 1440 64 79 143 248 1050 2050 2210 3910 5680
2020-07-22 14:45 6.39 198 6020 (2019) 41 (2014) 1440 64 79 143 248 1050 2050 2210 3910 5680
2020-07-22 13:45 6.40 200 6020 (2019) 41 (2014) 1440 64 79 143 248 1050 2050 2210 3910 5680
2020-07-22 12:45 6.43 207 6020 (2019) 41 (2014) 1440 64 79 143 248 1050 2050 2210 3910 5680
2020-07-22 11:45 6.46 214 6020 (2019) 41 (2014) 1440 64 79 143 248 1050 2050 2210 3910 5680
2020-07-22 10:45 6.51 226 6020 (2019) 41 (2014) 1440 64 79 143 248 1050 2050 2210 3910 5680
2020-07-22 09:45 6.57 240 6020 (2019) 41 (2014) 1440 64 79 143 248 1050 2050 2210 3910 5680
2020-07-22 08:45 6.65 259 6020 (2019) 41 (2014) 1440 64 79 143 248 1050 2050 2210 3910 5680
2020-07-22 07:45 6.77 290 6020 (2019) 41 (2014) 1440 64 79 143 248 1050 2050 2210 3910 5680
2020-07-22 06:45 6.93 331 6020 (2019) 41 (2014) 1440 64 79 143 248 1050 2050 2210 3910 5680
2020-07-22 05:45 7.14 382 6020 (2019) 41 (2014) 1440 64 79 143 248 1050 2050 2210 3910 5680
2020-07-22 04:45 7.43 458 6020 (2019) 41 (2014) 1440 64 79 143 248 1050 2050 2210 3910 5680
2020-07-22 03:45 7.81 565 6020 (2019) 41 (2014) 1440 64 79 143 248 1050 2050 2210 3910 5680
2020-07-22 02:45 8.27 707 6020 (2019) 41 (2014) 1440 64 79 143 248 1050 2050 2210 3910 5680
2020-07-22 01:45 8.84 899 6020 (2019) 41 (2014) 1440 64 79 143 248 1050 2050 2210 3910 5680
2020-07-22 00:45 9.51 1150 6020 (2019) 41 (2014) 1440 64 79 143 248 1050 2050 2210 3910 5680
2020-07-21 23:45 10.29 1470 5940 (2019) 41 (2014) 1350 58 69 83 95 1080 2070 2170 3140 4760
2020-07-21 22:45 11.20 1900 5940 (2019) 41 (2014) 1350 58 69 83 95 1080 2070 2170 3140 4760
2020-07-21 21:45 12.25 2480 5940 (2019) 41 (2014) 1350 58 69 83 95 1080 2070 2170 3140 4760
2020-07-21 20:45 13.37 3170 5940 (2019) 41 (2014) 1350 58 69 83 95 1080 2070 2170 3140 4760
2020-07-21 19:45 14.52 3950 5940 (2019) 41 (2014) 1350 58 69 83 95 1080 2070 2170 3140 4760
2020-07-21 18:45 15.29 4510 5940 (2019) 41 (2014) 1350 58 69 83 95 1080 2070 2170 3140 4760
2020-07-21 17:45 14.28 3780 5940 (2019) 41 (2014) 1350 58 69 83 95 1080 2070 2170 3140 4760
2020-07-21 16:45 11.77 2210 5940 (2019) 41 (2014) 1350 58 69 83 95 1080 2070 2170 3140 4760
2020-07-21 15:45 7.36 439 5940 (2019) 41 (2014) 1350 58 69 83 95 1080 2070 2170 3140 4760
2020-07-21 14:45 6.43 207 5940 (2019) 41 (2014) 1350 58 69 83 95 1080 2070 2170 3140 4760
2020-07-21 13:45 6.46 214 5940 (2019) 41 (2014) 1350 58 69 83 95 1080 2070 2170 3140 4760
2020-07-21 12:45 6.49 221 5940 (2019) 41 (2014) 1350 58 69 83 95 1080 2070 2170 3140 4760
2020-07-21 11:45 6.53 230 5940 (2019) 41 (2014) 1350 58 69 83 95 1080 2070 2170 3140 4760
2020-07-21 10:45 6.59 244 5940 (2019) 41 (2014) 1350 58 69 83 95 1080 2070 2170 3140 4760
2020-07-21 09:45 6.67 264 5940 (2019) 41 (2014) 1350 58 69 83 95 1080 2070 2170 3140 4760
2020-07-21 08:45 6.79 295 5940 (2019) 41 (2014) 1350 58 69 83 95 1080 2070 2170 3140 4760
2020-07-21 07:45 6.96 338 5940 (2019) 41 (2014) 1350 58 69 83 95 1080 2070 2170 3140 4760
2020-07-21 06:45 7.18 393 5940 (2019) 41 (2014) 1350 58 69 83 95 1080 2070 2170 3140 4760
2020-07-21 05:45 7.48 472 5940 (2019) 41 (2014) 1350 58 69 83 95 1080 2070 2170 3140 4760
2020-07-21 04:45 7.86 580 5940 (2019) 41 (2014) 1350 58 69 83 95 1080 2070 2170 3140 4760
2020-07-21 03:45 8.33 726 5940 (2019) 41 (2014) 1350 58 69 83 95 1080 2070 2170 3140 4760
2020-07-21 02:45 8.91 924 5940 (2019) 41 (2014) 1350 58 69 83 95 1080 2070 2170 3140 4760
2020-07-21 01:45 9.59 1180 5940 (2019) 41 (2014) 1350 58 69 83 95 1080 2070 2170 3140 4760
2020-07-21 00:45 10.40 1520 5940 (2019) 41 (2014) 1350 58 69 83 95 1080 2070 2170 3140 4760
2020-07-20 23:45 11.33 1970 5900 (2019) 42 (2014) 1400 58 67 86 157 960 2090 2320 3620 5040
2020-07-20 22:45 12.40 2570 5900 (2019) 42 (2014) 1400 58 67 86 157 960 2090 2320 3620 5040
2020-07-20 21:45 13.56 3290 5900 (2019) 42 (2014) 1400 58 67 86 157 960 2090 2320 3620 5040
2020-07-20 20:45 14.75 4110 5900 (2019) 42 (2014) 1400 58 67 86 157 960 2090 2320 3620 5040
2020-07-20 19:45 15.62 4760 5900 (2019) 42 (2014) 1400 58 67 86 157 960 2090 2320 3620 5040
2020-07-20 18:45 15.01 4300 5900 (2019) 42 (2014) 1400 58 67 86 157 960 2090 2320 3620 5040
2020-07-20 17:45 13.99 3580 5900 (2019) 42 (2014) 1400 58 67 86 157 960 2090 2320 3620 5040
2020-07-20 16:45 12.88 2860 5900 (2019) 42 (2014) 1400 58 67 86 157 960 2090 2320 3620 5040
2020-07-20 15:45 10.86 1730 5900 (2019) 42 (2014) 1400 58 67 86 157 960 2090 2320 3620 5040
2020-07-20 14:45 6.86 314 5900 (2019) 42 (2014) 1400 58 67 86 157 960 2090 2320 3620 5040
2020-07-20 13:45 6.44 209 5900 (2019) 42 (2014) 1400 58 67 86 157 960 2090 2320 3620 5040
2020-07-20 12:45 6.48 219 5900 (2019) 42 (2014) 1400 58 67 86 157 960 2090 2320 3620 5040
2020-07-20 11:45 6.51 226 5900 (2019) 42 (2014) 1400 58 67 86 157 960 2090 2320 3620 5040
2020-07-20 10:45 6.54 233 5900 (2019) 42 (2014) 1400 58 67 86 157 960 2090 2320 3620 5040
2020-07-20 09:45 6.60 247 5900 (2019) 42 (2014) 1400 58 67 86 157 960 2090 2320 3620 5040
2020-07-20 08:45 6.68 266 5900 (2019) 42 (2014) 1400 58 67 86 157 960 2090 2320 3620 5040
2020-07-20 07:45 6.79 295 5900 (2019) 42 (2014) 1400 58 67 86 157 960 2090 2320 3620 5040
2020-07-20 06:45 6.95 336 5900 (2019) 42 (2014) 1400 58 67 86 157 960 2090 2320 3620 5040
2020-07-20 05:45 7.16 388 5900 (2019) 42 (2014) 1400 58 67 86 157 960 2090 2320 3620 5040
2020-07-20 04:45 7.44 461 5900 (2019) 42 (2014) 1400 58 67 86 157 960 2090 2320 3620 5040
2020-07-20 03:45 7.81 565 5900 (2019) 42 (2014) 1400 58 67 86 157 960 2090 2320 3620 5040
2020-07-20 02:45 8.26 703 5900 (2019) 42 (2014) 1400 58 67 86 157 960 2090 2320 3620 5040
2020-07-20 01:45 8.82 892 5900 (2019) 42 (2014) 1400 58 67 86 157 960 2090 2320 3620 5040
2020-07-20 00:45 9.48 1140 5900 (2019) 42 (2014) 1400 58 67 86 157 960 2090 2320 3620 5040
2020-07-19 23:45 10.25 1460 6080 (2015) 42 (2014) 1510 63 77 113 219 1290 2100 2170 3590 5640
2020-07-19 22:45 11.15 1880 6080 (2015) 42 (2014) 1510 63 77 113 219 1290 2100 2170 3590 5640
2020-07-19 21:45 12.19 2440 6080 (2015) 42 (2014) 1510 63 77 113 219 1290 2100 2170 3590 5640
2020-07-19 20:45 13.31 3130 6080 (2015) 42 (2014) 1510 63 77 113 219 1290 2100 2170 3590 5640
2020-07-19 19:45 14.45 3900 6080 (2015) 42 (2014) 1510 63 77 113 219 1290 2100 2170 3590 5640
2020-07-19 18:45 15.21 4450 6080 (2015) 42 (2014) 1510 63 77 113 219 1290 2100 2170 3590 5640
2020-07-19 17:45 14.21 3730 6080 (2015) 42 (2014) 1510 63 77 113 219 1290 2100 2170 3590 5640
2020-07-19 16:45 11.73 2190 6080 (2015) 42 (2014) 1510 63 77 113 219 1290 2100 2170 3590 5640
2020-07-19 15:45 7.35 437 6080 (2015) 42 (2014) 1510 63 77 113 219 1290 2100 2170 3590 5640
2020-07-19 14:45 6.44 209 6080 (2015) 42 (2014) 1510 63 77 113 219 1290 2100 2170 3590 5640
2020-07-19 13:45 6.44 209 6080 (2015) 42 (2014) 1510 63 77 113 219 1290 2100 2170 3590 5640
2020-07-19 12:45 6.45 212 6080 (2015) 42 (2014) 1510 63 77 113 219 1290 2100 2170 3590 5640
2020-07-19 11:45 6.46 214 6080 (2015) 42 (2014) 1510 63 77 113 219 1290 2100 2170 3590 5640
2020-07-19 10:45 6.47 216 6080 (2015) 42 (2014) 1510 63 77 113 219 1290 2100 2170 3590 5640
2020-07-19 09:45 6.47 216 6080 (2015) 42 (2014) 1510 63 77 113 219 1290 2100 2170 3590 5640
2020-07-19 08:45 6.47 216 6080 (2015) 42 (2014) 1510 63 77 113 219 1290 2100 2170 3590 5640
2020-07-19 07:45 6.47 216 6080 (2015) 42 (2014) 1510 63 77 113 219 1290 2100 2170 3590 5640
2020-07-19 06:45 6.47 216 6080 (2015) 42 (2014) 1510 63 77 113 219 1290 2100 2170 3590 5640
2020-07-19 05:45 6.48 219 6080 (2015) 42 (2014) 1510 63 77 113 219 1290 2100 2170 3590 5640
2020-07-19 04:45 6.48 219 6080 (2015) 42 (2014) 1510 63 77 113 219 1290 2100 2170 3590 5640
2020-07-19 03:45 6.47 216 6080 (2015) 42 (2014) 1510 63 77 113 219 1290 2100 2170 3590 5640
2020-07-19 02:45 6.46 214 6080 (2015) 42 (2014) 1510 63 77 113 219 1290 2100 2170 3590 5640
2020-07-19 01:45 6.45 212 6080 (2015) 42 (2014) 1510 63 77 113 219 1290 2100 2170 3590 5640
2020-07-19 00:45 6.43 207 6080 (2015) 42 (2014) 1510 63 77 113 219 1290 2100 2170 3590 5640
2020-07-18 23:45 6.41 202 5870 (2019) 43 (2014) 1450 57 75 92 217 1140 1960 2220 3400 5370
2020-07-18 22:45 6.38 195 5870 (2019) 43 (2014) 1450 57 75 92 217 1140 1960 2220 3400 5370
2020-07-18 21:45 6.36 191 5870 (2019) 43 (2014) 1450 57 75 92 217 1140 1960 2220 3400 5370
2020-07-18 20:45 6.35 189 5870 (2019) 43 (2014) 1450 57 75 92 217 1140 1960 2220 3400 5370
2020-07-18 19:45 6.35 189 5870 (2019) 43 (2014) 1450 57 75 92 217 1140 1960 2220 3400 5370
2020-07-18 18:45 6.36 191 5870 (2019) 43 (2014) 1450 57 75 92 217 1140 1960 2220 3400 5370
2020-07-18 17:45 6.37 193 5870 (2019) 43 (2014) 1450 57 75 92 217 1140 1960 2220 3400 5370
2020-07-18 16:45 6.38 195 5870 (2019) 43 (2014) 1450 57 75 92 217 1140 1960 2220 3400 5370
2020-07-18 15:45 6.39 198 5870 (2019) 43 (2014) 1450 57 75 92 217 1140 1960 2220 3400 5370
2020-07-18 14:45 6.41 202 5870 (2019) 43 (2014) 1450 57 75 92 217 1140 1960 2220 3400 5370
2020-07-18 13:45 6.42 205 5870 (2019) 43 (2014) 1450 57 75 92 217 1140 1960 2220 3400 5370
2020-07-18 12:45 6.45 212 5870 (2019) 43 (2014) 1450 57 75 92 217 1140 1960 2220 3400 5370
2020-07-18 11:45 6.48 219 5870 (2019) 43 (2014) 1450 57 75 92 217 1140 1960 2220 3400 5370
2020-07-18 10:45 6.52 228 5870 (2019) 43 (2014) 1450 57 75 92 217 1140 1960 2220 3400 5370
2020-07-18 09:45 6.58 242 5870 (2019) 43 (2014) 1450 57 75 92 217 1140 1960 2220 3400 5370
2020-07-18 08:45 6.67 264 5870 (2019) 43 (2014) 1450 57 75 92 217 1140 1960 2220 3400 5370
2020-07-18 07:45 6.79 295 5870 (2019) 43 (2014) 1450 57 75 92 217 1140 1960 2220 3400 5370
2020-07-18 06:45 6.97 341 5870 (2019) 43 (2014) 1450 57 75 92 217 1140 1960 2220 3400 5370
2020-07-18 05:45 7.19 395 5870 (2019) 43 (2014) 1450 57 75 92 217 1140 1960 2220 3400 5370
2020-07-18 04:45 7.50 477 5870 (2019) 43 (2014) 1450 57 75 92 217 1140 1960 2220 3400 5370
2020-07-18 03:45 7.90 592 5870 (2019) 43 (2014) 1450 57 75 92 217 1140 1960 2220 3400 5370
2020-07-18 02:45 8.39 746 5870 (2019) 43 (2014) 1450 57 75 92 217 1140 1960 2220 3400 5370
2020-07-18 01:45 8.98 949 5870 (2019) 43 (2014) 1450 57 75 92 217 1140 1960 2220 3400 5370
2020-07-18 00:45 9.68 1220 5870 (2019) 43 (2014) 1450 57 75 92 217 1140 1960 2220 3400 5370
2020-07-17 23:45 10.50 1570 5860 (2019) 44 (2014) 1330 54 64 95 150 1020 1940 2210 3580 5140
2020-07-17 22:45 11.47 2040 5860 (2019) 44 (2014) 1330 54 64 95 150 1020 1940 2210 3580 5140
2020-07-17 21:45 12.57 2670 5860 (2019) 44 (2014) 1330 54 64 95 150 1020 1940 2210 3580 5140
2020-07-17 20:45 13.75 3410 5860 (2019) 44 (2014) 1330 54 64 95 150 1020 1940 2210 3580 5140
2020-07-17 19:45 14.97 4270 5860 (2019) 44 (2014) 1330 54 64 95 150 1020 1940 2210 3580 5140
2020-07-17 18:45 15.93 5000 5860 (2019) 44 (2014) 1330 54 64 95 150 1020 1940 2210 3580 5140
2020-07-17 17:45 15.38 4580 5860 (2019) 44 (2014) 1330 54 64 95 150 1020 1940 2210 3580 5140
2020-07-17 16:45 14.22 3730 5860 (2019) 44 (2014) 1330 54 64 95 150 1020 1940 2210 3580 5140
2020-07-17 15:45 11.96 2310 5860 (2019) 44 (2014) 1330 54 64 95 150 1020 1940 2210 3580 5140
2020-07-17 14:45 7.31 426 5860 (2019) 44 (2014) 1330 54 64 95 150 1020 1940 2210 3580 5140
2020-07-17 13:45 6.36 191 5860 (2019) 44 (2014) 1330 54 64 95 150 1020 1940 2210 3580 5140
2020-07-17 12:45 6.37 193 5860 (2019) 44 (2014) 1330 54 64 95 150 1020 1940 2210 3580 5140
2020-07-17 11:45 6.37 193 5860 (2019) 44 (2014) 1330 54 64 95 150 1020 1940 2210 3580 5140
2020-07-17 10:45 6.37 193 5860 (2019) 44 (2014) 1330 54 64 95 150 1020 1940 2210 3580 5140
2020-07-17 09:45 6.37 193 5860 (2019) 44 (2014) 1330 54 64 95 150 1020 1940 2210 3580 5140
2020-07-17 08:45 6.37 193 5860 (2019) 44 (2014) 1330 54 64 95 150 1020 1940 2210 3580 5140
2020-07-17 07:45 6.37 193 5860 (2019) 44 (2014) 1330 54 64 95 150 1020 1940 2210 3580 5140
2020-07-17 06:45 6.36 191 5860 (2019) 44 (2014) 1330 54 64 95 150 1020 1940 2210 3580 5140
2020-07-17 05:45 6.36 191 5860 (2019) 44 (2014) 1330 54 64 95 150 1020 1940 2210 3580 5140
2020-07-17 04:45 6.36 191 5860 (2019) 44 (2014) 1330 54 64 95 150 1020 1940 2210 3580 5140
2020-07-17 03:45 6.35 189 5860 (2019) 44 (2014) 1330 54 64 95 150 1020 1940 2210 3580 5140
2020-07-17 02:45 6.35 189 5860 (2019) 44 (2014) 1330 54 64 95 150 1020 1940 2210 3580 5140
2020-07-17 01:45 6.35 189 5860 (2019) 44 (2014) 1330 54 64 95 150 1020 1940 2210 3580 5140
2020-07-17 00:45 6.35 189 5860 (2019) 44 (2014) 1330 54 64 95 150 1020 1940 2210 3580 5140
2020-07-16 23:45 6.35 189 6470 (2015) 53 (1978) 1280 58 70 129 264 959 1600 1800 3370 5190
2020-07-16 22:45 6.35 189 6470 (2015) 53 (1978) 1280 58 70 129 264 959 1600 1800 3370 5190
2020-07-16 21:45 6.36 191 6470 (2015) 53 (1978) 1280 58 70 129 264 959 1600 1800 3370 5190
2020-07-16 20:45 6.36 191 6470 (2015) 53 (1978) 1280 58 70 129 264 959 1600 1800 3370 5190
2020-07-16 19:45 6.37 193 6470 (2015) 53 (1978) 1280 58 70 129 264 959 1600 1800 3370 5190
2020-07-16 18:45 6.38 195 6470 (2015) 53 (1978) 1280 58 70 129 264 959 1600 1800 3370 5190
2020-07-16 17:45 6.39 198 6470 (2015) 53 (1978) 1280 58 70 129 264 959 1600 1800 3370 5190
2020-07-16 16:45 6.40 200 6470 (2015) 53 (1978) 1280 58 70 129 264 959 1600 1800 3370 5190
2020-07-16 15:45 6.41 202 6470 (2015) 53 (1978) 1280 58 70 129 264 959 1600 1800 3370 5190
2020-07-16 14:45 6.43 207 6470 (2015) 53 (1978) 1280 58 70 129 264 959 1600 1800 3370 5190
2020-07-16 13:45 6.46 214 6470 (2015) 53 (1978) 1280 58 70 129 264 959 1600 1800 3370 5190
2020-07-16 12:45 6.49 221 6470 (2015) 53 (1978) 1280 58 70 129 264 959 1600 1800 3370 5190
2020-07-16 11:45 6.54 233 6470 (2015) 53 (1978) 1280 58 70 129 264 959 1600 1800 3370 5190
2020-07-16 10:45 6.60 247 6470 (2015) 53 (1978) 1280 58 70 129 264 959 1600 1800 3370 5190
2020-07-16 09:45 6.68 266 6470 (2015) 53 (1978) 1280 58 70 129 264 959 1600 1800 3370 5190
2020-07-16 08:45 6.80 298 6470 (2015) 53 (1978) 1280 58 70 129 264 959 1600 1800 3370 5190
2020-07-16 07:45 6.97 341 6470 (2015) 53 (1978) 1280 58 70 129 264 959 1600 1800 3370 5190
2020-07-16 06:45 7.19 395 6470 (2015) 53 (1978) 1280 58 70 129 264 959 1600 1800 3370 5190
2020-07-16 05:45 7.48 472 6470 (2015) 53 (1978) 1280 58 70 129 264 959 1600 1800 3370 5190
2020-07-16 04:45 7.86 580 6470 (2015) 53 (1978) 1280 58 70 129 264 959 1600 1800 3370 5190
2020-07-16 03:45 8.34 729 6470 (2015) 53 (1978) 1280 58 70 129 264 959 1600 1800 3370 5190
2020-07-16 02:45 8.94 935 6470 (2015) 53 (1978) 1280 58 70 129 264 959 1600 1800 3370 5190
2020-07-16 01:45 9.64 1200 6470 (2015) 53 (1978) 1280 58 70 129 264 959 1600 1800 3370 5190
2020-07-16 00:45 10.48 1560 6470 (2015) 53 (1978) 1280 58 70 129 264 959 1600 1800 3370 5190
2020-07-15 23:45 11.45 2030 5900 (2015) 55 (1978) 1380 57 72 144 198 1130 1770 1880 3580 4980
2020-07-15 22:45 12.54 2650 5900 (2015) 55 (1978) 1380 57 72 144 198 1130 1770 1880 3580 4980
2020-07-15 21:45 13.74 3410 5900 (2015) 55 (1978) 1380 57 72 144 198 1130 1770 1880 3580 4980
2020-07-15 20:45 14.97 4270 5900 (2015) 55 (1978) 1380 57 72 144 198 1130 1770 1880 3580 4980
2020-07-15 19:45 15.92 4990 5900 (2015) 55 (1978) 1380 57 72 144 198 1130 1770 1880 3580 4980
2020-07-15 18:45 15.36 4560 5900 (2015) 55 (1978) 1380 57 72 144 198 1130 1770 1880 3580 4980
2020-07-15 17:45 14.20 3720 5900 (2015) 55 (1978) 1380 57 72 144 198 1130 1770 1880 3580 4980
2020-07-15 16:45 11.61 2120 5900 (2015) 55 (1978) 1380 57 72 144 198 1130 1770 1880 3580 4980
2020-07-15 15:45 7.34 434 5900 (2015) 55 (1978) 1380 57 72 144 198 1130 1770 1880 3580 4980
2020-07-15 14:45 6.46 214 5900 (2015) 55 (1978) 1380 57 72 144 198 1130 1770 1880 3580 4980
2020-07-15 13:45 6.48 219 5900 (2015) 55 (1978) 1380 57 72 144 198 1130 1770 1880 3580 4980
2020-07-15 12:45 6.51 226 5900 (2015) 55 (1978) 1380 57 72 144 198 1130 1770 1880 3580 4980
2020-07-15 11:45 6.56 237 5900 (2015) 55 (1978) 1380 57 72 144 198 1130 1770 1880 3580 4980
2020-07-15 10:45 6.62 251 5900 (2015) 55 (1978) 1380 57 72 144 198 1130 1770 1880 3580 4980
2020-07-15 09:45 6.71 274 5900 (2015) 55 (1978) 1380 57 72 144 198 1130 1770 1880 3580 4980
2020-07-15 08:45 6.84 308 5900 (2015) 55 (1978) 1380 57 72 144 198 1130 1770 1880 3580 4980
2020-07-15 07:45 7.01 350 5900 (2015) 55 (1978) 1380 57 72 144 198 1130 1770 1880 3580 4980
2020-07-15 06:45 7.25 411 5900 (2015) 55 (1978) 1380 57 72 144 198 1130 1770 1880 3580 4980
2020-07-15 05:45 7.56 494 5900 (2015) 55 (1978) 1380 57 72 144 198 1130 1770 1880 3580 4980
2020-07-15 04:45 7.96 610 5900 (2015) 55 (1978) 1380 57 72 144 198 1130 1770 1880 3580 4980
2020-07-15 03:45 8.46 769 5900 (2015) 55 (1978) 1380 57 72 144 198 1130 1770 1880 3580 4980
2020-07-15 02:45 9.06 978 5900 (2015) 55 (1978) 1380 57 72 144 198 1130 1770 1880 3580 4980
2020-07-15 01:45 9.77 1250 5900 (2015) 55 (1978) 1380 57 72 144 198 1130 1770 1880 3580 4980
2020-07-15 00:45 10.60 1610 5900 (2015) 55 (1978) 1380 57 72 144 198 1130 1770 1880 3580 4980
2020-07-14 23:45 11.58 2100 5810 (2015) 56 (1991) 1340 62 72 130 212 1070 1800 2080 3460 5340
2020-07-14 22:45 12.69 2740 5810 (2015) 56 (1991) 1340 62 72 130 212 1070 1800 2080 3460 5340
2020-07-14 21:45 13.88 3500 5810 (2015) 56 (1991) 1340 62 72 130 212 1070 1800 2080 3460 5340
2020-07-14 20:45 15.09 4360 5810 (2015) 56 (1991) 1340 62 72 130 212 1070 1800 2080 3460 5340
2020-07-14 19:45 15.97 5030 5810 (2015) 56 (1991) 1340 62 72 130 212 1070 1800 2080 3460 5340
2020-07-14 18:45 15.38 4580 5810 (2015) 56 (1991) 1340 62 72 130 212 1070 1800 2080 3460 5340
2020-07-14 17:45 14.21 3730 5810 (2015) 56 (1991) 1340 62 72 130 212 1070 1800 2080 3460 5340
2020-07-14 16:45 11.66 2150 5810 (2015) 56 (1991) 1340 62 72 130 212 1070 1800 2080 3460 5340
2020-07-14 15:45 7.34 434 5810 (2015) 56 (1991) 1340 62 72 130 212 1070 1800 2080 3460 5340
2020-07-14 14:45 6.45 212 5810 (2015) 56 (1991) 1340 62 72 130 212 1070 1800 2080 3460 5340
2020-07-14 13:45 6.48 219 5810 (2015) 56 (1991) 1340 62 72 130 212 1070 1800 2080 3460 5340
2020-07-14 12:45 6.51 226 5810 (2015) 56 (1991) 1340 62 72 130 212 1070 1800 2080 3460 5340
2020-07-14 11:45 6.55 235 5810 (2015) 56 (1991) 1340 62 72 130 212 1070 1800 2080 3460 5340
2020-07-14 10:45 6.61 249 5810 (2015) 56 (1991) 1340 62 72 130 212 1070 1800 2080 3460 5340
2020-07-14 09:45 6.70 271 5810 (2015) 56 (1991) 1340 62 72 130 212 1070 1800 2080 3460 5340
2020-07-14 08:45 6.82 303 5810 (2015) 56 (1991) 1340 62 72 130 212 1070 1800 2080 3460 5340
2020-07-14 07:45 6.99 346 5810 (2015) 56 (1991) 1340 62 72 130 212 1070 1800 2080 3460 5340
2020-07-14 06:45 7.21 400 5810 (2015) 56 (1991) 1340 62 72 130 212 1070 1800 2080 3460 5340
2020-07-14 05:45 7.51 480 5810 (2015) 56 (1991) 1340 62 72 130 212 1070 1800 2080 3460 5340
2020-07-14 04:45 7.90 592 5810 (2015) 56 (1991) 1340 62 72 130 212 1070 1800 2080 3460 5340
2020-07-14 03:45 8.37 739 5810 (2015) 56 (1991) 1340 62 72 130 212 1070 1800 2080 3460 5340
2020-07-14 02:45 8.97 945 5810 (2015) 56 (1991) 1340 62 72 130 212 1070 1800 2080 3460 5340
2020-07-14 01:45 9.66 1210 5810 (2015) 56 (1991) 1340 62 72 130 212 1070 1800 2080 3460 5340
2020-07-14 00:45 10.48 1560 5810 (2015) 56 (1991) 1340 62 72 130 212 1070 1800 2080 3460 5340
2020-07-13 23:45 11.45 2030 6300 (2008) 58 (2006) 1490 61 73 120 308 917 1770 1920 4630 5620
2020-07-13 22:45 12.55 2660 6300 (2008) 58 (2006) 1490 61 73 120 308 917 1770 1920 4630 5620
2020-07-13 21:45 13.74 3410 6300 (2008) 58 (2006) 1490 61 73 120 308 917 1770 1920 4630 5620
2020-07-13 20:45 14.99 4290 6300 (2008) 58 (2006) 1490 61 73 120 308 917 1770 1920 4630 5620
2020-07-13 19:45 16.07 5110 6300 (2008) 58 (2006) 1490 61 73 120 308 917 1770 1920 4630 5620
2020-07-13 18:45 16.02 5070 6300 (2008) 58 (2006) 1490 61 73 120 308 917 1770 1920 4630 5620
2020-07-13 17:45 15.34 4550 6300 (2008) 58 (2006) 1490 61 73 120 308 917 1770 1920 4630 5620
2020-07-13 16:45 14.20 3720 6300 (2008) 58 (2006) 1490 61 73 120 308 917 1770 1920 4630 5620
2020-07-13 15:45 11.59 2110 6300 (2008) 58 (2006) 1490 61 73 120 308 917 1770 1920 4630 5620
2020-07-13 14:45 7.31 426 6300 (2008) 58 (2006) 1490 61 73 120 308 917 1770 1920 4630 5620
2020-07-13 13:45 6.44 209 6300 (2008) 58 (2006) 1490 61 73 120 308 917 1770 1920 4630 5620
2020-07-13 12:45 6.47 216 6300 (2008) 58 (2006) 1490 61 73 120 308 917 1770 1920 4630 5620
2020-07-13 11:45 6.49 221 6300 (2008) 58 (2006) 1490 61 73 120 308 917 1770 1920 4630 5620
2020-07-13 10:45 6.53 230 6300 (2008) 58 (2006) 1490 61 73 120 308 917 1770 1920 4630 5620
2020-07-13 09:45 6.57 240 6300 (2008) 58 (2006) 1490 61 73 120 308 917 1770 1920 4630 5620
2020-07-13 08:45 6.64 256 6300 (2008) 58 (2006) 1490 61 73 120 308 917 1770 1920 4630 5620
2020-07-13 07:45 6.73 279 6300 (2008) 58 (2006) 1490 61 73 120 308 917 1770 1920 4630 5620
2020-07-13 06:45 6.86 314 6300 (2008) 58 (2006) 1490 61 73 120 308 917 1770 1920 4630 5620
2020-07-13 05:45 7.04 358 6300 (2008) 58 (2006) 1490 61 73 120 308 917 1770 1920 4630 5620
2020-07-13 04:45 7.28 418 6300 (2008) 58 (2006) 1490 61 73 120 308 917 1770 1920 4630 5620
2020-07-13 03:45 7.60 505 6300 (2008) 58 (2006) 1490 61 73 120 308 917 1770 1920 4630 5620
2020-07-13 02:45 8.00 622 6300 (2008) 58 (2006) 1490 61 73 120 308 917 1770 1920 4630 5620
2020-07-13 01:45 8.50 782 6300 (2008) 58 (2006) 1490 61 73 120 308 917 1770 1920 4630 5620
2020-07-13 00:45 9.09 989 6300 (2008) 58 (2006) 1490 61 73 120 308 917 1770 1920 4630 5620
2020-07-12 23:45 9.79 1260 6220 (2008) 57 (2006) 1520 61 69 101 121 907 2350 2710 4870 5120
2020-07-12 22:45 10.60 1610 6220 (2008) 57 (2006) 1520 61 69 101 121 907 2350 2710 4870 5120
2020-07-12 21:45 11.54 2080 6220 (2008) 57 (2006) 1520 61 69 101 121 907 2350 2710 4870 5120
2020-07-12 20:45 12.56 2660 6220 (2008) 57 (2006) 1520 61 69 101 121 907 2350 2710 4870 5120
2020-07-12 19:45 13.53 3270 6220 (2008) 57 (2006) 1520 61 69 101 121 907 2350 2710 4870 5120
2020-07-12 18:45 13.89 3510 6220 (2008) 57 (2006) 1520 61 69 101 121 907 2350 2710 4870 5120
2020-07-12 17:45 11.46 2040 6220 (2008) 57 (2006) 1520 61 69 101 121 907 2350 2710 4870 5120
2020-07-12 16:45 7.22 403 6220 (2008) 57 (2006) 1520 61 69 101 121 907 2350 2710 4870 5120
2020-07-12 15:45 6.38 195 6220 (2008) 57 (2006) 1520 61 69 101 121 907 2350 2710 4870 5120
2020-07-12 14:45 6.38 195 6220 (2008) 57 (2006) 1520 61 69 101 121 907 2350 2710 4870 5120
2020-07-12 13:45 6.39 198 6220 (2008) 57 (2006) 1520 61 69 101 121 907 2350 2710 4870 5120
2020-07-12 12:45 6.40 200 6220 (2008) 57 (2006) 1520 61 69 101 121 907 2350 2710 4870 5120
2020-07-12 11:45 6.40 200 6220 (2008) 57 (2006) 1520 61 69 101 121 907 2350 2710 4870 5120
2020-07-12 10:45 6.41 202 6220 (2008) 57 (2006) 1520 61 69 101 121 907 2350 2710 4870 5120
2020-07-12 09:45 6.40 200 6220 (2008) 57 (2006) 1520 61 69 101 121 907 2350 2710 4870 5120
2020-07-12 08:45 6.40 200 6220 (2008) 57 (2006) 1520 61 69 101 121 907 2350 2710 4870 5120
2020-07-12 07:45 6.40 200 6220 (2008) 57 (2006) 1520 61 69 101 121 907 2350 2710 4870 5120
2020-07-12 06:45 6.40 200 6220 (2008) 57 (2006) 1520 61 69 101 121 907 2350 2710 4870 5120
2020-07-12 05:45 6.39 198 6220 (2008) 57 (2006) 1520 61 69 101 121 907 2350 2710 4870 5120
2020-07-12 04:45 6.39 198 6220 (2008) 57 (2006) 1520 61 69 101 121 907 2350 2710 4870 5120
2020-07-12 03:45 6.39 198 6220 (2008) 57 (2006) 1520 61 69 101 121 907 2350 2710 4870 5120
2020-07-12 02:45 6.39 198 6220 (2008) 57 (2006) 1520 61 69 101 121 907 2350 2710 4870 5120
2020-07-12 01:45 6.39 198 6220 (2008) 57 (2006) 1520 61 69 101 121 907 2350 2710 4870 5120
2020-07-12 00:45 6.39 198 6220 (2008) 57 (2006) 1520 61 69 101 121 907 2350 2710 4870 5120
2020-07-11 23:45 6.39 198 6360 (2008) 55 (2006) 1530 59 72 123 225 1010 2320 2500 4760 5210
2020-07-11 22:45 6.39 198 6360 (2008) 55 (2006) 1530 59 72 123 225 1010 2320 2500 4760 5210
2020-07-11 21:45 6.40 200 6360 (2008) 55 (2006) 1530 59 72 123 225 1010 2320 2500 4760 5210
2020-07-11 20:45 6.40 200 6360 (2008) 55 (2006) 1530 59 72 123 225 1010 2320 2500 4760 5210
2020-07-11 19:45 6.41 202 6360 (2008) 55 (2006) 1530 59 72 123 225 1010 2320 2500 4760 5210
2020-07-11 18:45 6.43 207 6360 (2008) 55 (2006) 1530 59 72 123 225 1010 2320 2500 4760 5210
2020-07-11 17:45 6.44 209 6360 (2008) 55 (2006) 1530 59 72 123 225 1010 2320 2500 4760 5210
2020-07-11 16:45 6.46 214 6360 (2008) 55 (2006) 1530 59 72 123 225 1010 2320 2500 4760 5210
2020-07-11 15:45 6.48 219 6360 (2008) 55 (2006) 1530 59 72 123 225 1010 2320 2500 4760 5210
2020-07-11 14:45 6.50 223 6360 (2008) 55 (2006) 1530 59 72 123 225 1010 2320 2500 4760 5210
2020-07-11 13:45 6.53 230 6360 (2008) 55 (2006) 1530 59 72 123 225 1010 2320 2500 4760 5210
2020-07-11 12:45 6.56 237 6360 (2008) 55 (2006) 1530 59 72 123 225 1010 2320 2500 4760 5210
2020-07-11 11:45 6.62 251 6360 (2008) 55 (2006) 1530 59 72 123 225 1010 2320 2500 4760 5210
2020-07-11 10:45 6.68 266 6360 (2008) 55 (2006) 1530 59 72 123 225 1010 2320 2500 4760 5210
2020-07-11 09:45 6.78 292 6360 (2008) 55 (2006) 1530 59 72 123 225 1010 2320 2500 4760 5210
2020-07-11 08:45 6.91 326 6360 (2008) 55 (2006) 1530 59 72 123 225 1010 2320 2500 4760 5210
2020-07-11 07:45 7.09 370 6360 (2008) 55 (2006) 1530 59 72 123 225 1010 2320 2500 4760 5210
2020-07-11 06:45 7.34 434 6360 (2008) 55 (2006) 1530 59 72 123 225 1010 2320 2500 4760 5210
2020-07-11 05:45 7.66 522 6360 (2008) 55 (2006) 1530 59 72 123 225 1010 2320 2500 4760 5210
2020-07-11 04:45 8.07 644 6360 (2008) 55 (2006) 1530 59 72 123 225 1010 2320 2500 4760 5210
2020-07-11 03:45 8.58 809 6360 (2008) 55 (2006) 1530 59 72 123 225 1010 2320 2500 4760 5210
2020-07-11 02:45 9.20 1030 6360 (2008) 55 (2006) 1530 59 72 123 225 1010 2320 2500 4760 5210
2020-07-11 01:45 9.93 1320 6360 (2008) 55 (2006) 1530 59 72 123 225 1010 2320 2500 4760 5210
2020-07-11 00:45 10.79 1700 6360 (2008) 55 (2006) 1530 59 72 123 225 1010 2320 2500 4760 5210
2020-07-10 23:45 11.80 2220 6400 (2008) 56 (1978) 1510 58 72 117 134 864 2310 2550 4830 5220
2020-07-10 22:45 12.94 2890 6400 (2008) 56 (1978) 1510 58 72 117 134 864 2310 2550 4830 5220
2020-07-10 21:45 14.17 3700 6400 (2008) 56 (1978) 1510 58 72 117 134 864 2310 2550 4830 5220
2020-07-10 20:45 15.45 4630 6400 (2008) 56 (1978) 1510 58 72 117 134 864 2310 2550 4830 5220
2020-07-10 19:45 16.51 5470 6400 (2008) 56 (1978) 1510 58 72 117 134 864 2310 2550 4830 5220
2020-07-10 18:45 16.18 5200 6400 (2008) 56 (1978) 1510 58 72 117 134 864 2310 2550 4830 5220
2020-07-10 17:45 15.48 4650 6400 (2008) 56 (1978) 1510 58 72 117 134 864 2310 2550 4830 5220
2020-07-10 16:45 14.33 3810 6400 (2008) 56 (1978) 1510 58 72 117 134 864 2310 2550 4830 5220
2020-07-10 15:45 11.83 2240 6400 (2008) 56 (1978) 1510 58 72 117 134 864 2310 2550 4830 5220
2020-07-10 14:45 7.58 499 6400 (2008) 56 (1978) 1510 58 72 117 134 864 2310 2550 4830 5220
2020-07-10 13:45 6.54 233 6400 (2008) 56 (1978) 1510 58 72 117 134 864 2310 2550 4830 5220
2020-07-10 12:45 6.57 240 6400 (2008) 56 (1978) 1510 58 72 117 134 864 2310 2550 4830 5220
2020-07-10 11:45 6.62 251 6400 (2008) 56 (1978) 1510 58 72 117 134 864 2310 2550 4830 5220
2020-07-10 10:45 6.69 269 6400 (2008) 56 (1978) 1510 58 72 117 134 864 2310 2550 4830 5220
2020-07-10 09:45 6.78 292 6400 (2008) 56 (1978) 1510 58 72 117 134 864 2310 2550 4830 5220
2020-07-10 08:45 6.90 324 6400 (2008) 56 (1978) 1510 58 72 117 134 864 2310 2550 4830 5220
2020-07-10 07:45 7.07 365 6400 (2008) 56 (1978) 1510 58 72 117 134 864 2310 2550 4830 5220
2020-07-10 06:45 7.30 424 6400 (2008) 56 (1978) 1510 58 72 117 134 864 2310 2550 4830 5220
2020-07-10 05:45 7.61 508 6400 (2008) 56 (1978) 1510 58 72 117 134 864 2310 2550 4830 5220
2020-07-10 04:45 8.00 622 6400 (2008) 56 (1978) 1510 58 72 117 134 864 2310 2550 4830 5220
2020-07-10 03:45 8.50 782 6400 (2008) 56 (1978) 1510 58 72 117 134 864 2310 2550 4830 5220
2020-07-10 02:45 9.10 993 6400 (2008) 56 (1978) 1510 58 72 117 134 864 2310 2550 4830 5220
2020-07-10 01:45 9.80 1270 6400 (2008) 56 (1978) 1510 58 72 117 134 864 2310 2550 4830 5220
2020-07-10 00:45 10.64 1630 6400 (2008) 56 (1978) 1510 58 72 117 134 864 2310 2550 4830 5220
2020-07-09 23:45 11.62 2120 6350 (2008) 54 (2006) 1460 58 66 137 266 1010 1900 2140 4580 5140
2020-07-09 22:45 12.73 2760 6350 (2008) 54 (2006) 1460 58 66 137 266 1010 1900 2140 4580 5140
2020-07-09 21:45 13.94 3540 6350 (2008) 54 (2006) 1460 58 66 137 266 1010 1900 2140 4580 5140
2020-07-09 20:45 15.18 4430 6350 (2008) 54 (2006) 1460 58 66 137 266 1010 1900 2140 4580 5140
2020-07-09 19:45 16.19 5210 6350 (2008) 54 (2006) 1460 58 66 137 266 1010 1900 2140 4580 5140
2020-07-09 18:45 15.80 4900 6350 (2008) 54 (2006) 1460 58 66 137 266 1010 1900 2140 4580 5140
2020-07-09 17:45 14.92 4230 6350 (2008) 54 (2006) 1460 58 66 137 266 1010 1900 2140 4580 5140
2020-07-09 16:45 13.49 3240 6350 (2008) 54 (2006) 1460 58 66 137 266 1010 1900 2140 4580 5140
2020-07-09 15:45 11.14 1870 6350 (2008) 54 (2006) 1460 58 66 137 266 1010 1900 2140 4580 5140
2020-07-09 14:45 6.97 341 6350 (2008) 54 (2006) 1460 58 66 137 266 1010 1900 2140 4580 5140
2020-07-09 13:45 6.55 235 6350 (2008) 54 (2006) 1460 58 66 137 266 1010 1900 2140 4580 5140
2020-07-09 12:45 6.58 242 6350 (2008) 54 (2006) 1460 58 66 137 266 1010 1900 2140 4580 5140
2020-07-09 11:45 6.63 254 6350 (2008) 54 (2006) 1460 58 66 137 266 1010 1900 2140 4580 5140
2020-07-09 10:45 6.68 266 6350 (2008) 54 (2006) 1460 58 66 137 266 1010 1900 2140 4580 5140
2020-07-09 09:45 6.78 292 6350 (2008) 54 (2006) 1460 58 66 137 266 1010 1900 2140 4580 5140
2020-07-09 08:45 6.90 324 6350 (2008) 54 (2006) 1460 58 66 137 266 1010 1900 2140 4580 5140
2020-07-09 07:45 7.07 365 6350 (2008) 54 (2006) 1460 58 66 137 266 1010 1900 2140 4580 5140
2020-07-09 06:45 7.30 424 6350 (2008) 54 (2006) 1460 58 66 137 266 1010 1900 2140 4580 5140
2020-07-09 05:45 7.61 508 6350 (2008) 54 (2006) 1460 58 66 137 266 1010 1900 2140 4580 5140
2020-07-09 04:45 8.01 625 6350 (2008) 54 (2006) 1460 58 66 137 266 1010 1900 2140 4580 5140
2020-07-09 03:45 8.51 785 6350 (2008) 54 (2006) 1460 58 66 137 266 1010 1900 2140 4580 5140
2020-07-09 02:45 9.11 996 6350 (2008) 54 (2006) 1460 58 66 137 266 1010 1900 2140 4580 5140
2020-07-09 01:45 9.83 1280 6350 (2008) 54 (2006) 1460 58 66 137 266 1010 1900 2140 4580 5140
2020-07-09 00:45 10.67 1650 6350 (2008) 54 (2006) 1460 58 66 137 266 1010 1900 2140 4580 5140
2020-07-08 23:45 11.66 2150 6340 (2008) 54 (2006) 1530 59 79 338 557 939 2050 2320 4110 5120
2020-07-08 22:45 12.78 2790 6340 (2008) 54 (2006) 1530 59 79 338 557 939 2050 2320 4110 5120
2020-07-08 21:45 14.00 3580 6340 (2008) 54 (2006) 1530 59 79 338 557 939 2050 2320 4110 5120
2020-07-08 20:45 15.25 4480 6340 (2008) 54 (2006) 1530 59 79 338 557 939 2050 2320 4110 5120
2020-07-08 19:45 16.27 5270 6340 (2008) 54 (2006) 1530 59 79 338 557 939 2050 2320 4110 5120
2020-07-08 18:45 15.94 5010 6340 (2008) 54 (2006) 1530 59 79 338 557 939 2050 2320 4110 5120
2020-07-08 17:45 15.13 4390 6340 (2008) 54 (2006) 1530 59 79 338 557 939 2050 2320 4110 5120
2020-07-08 16:45 13.83 3470 6340 (2008) 54 (2006) 1530 59 79 338 557 939 2050 2320 4110 5120
2020-07-08 15:45 11.07 1840 6340 (2008) 54 (2006) 1530 59 79 338 557 939 2050 2320 4110 5120
2020-07-08 14:45 6.86 314 6340 (2008) 54 (2006) 1530 59 79 338 557 939 2050 2320 4110 5120
2020-07-08 13:45 6.49 221 6340 (2008) 54 (2006) 1530 59 79 338 557 939 2050 2320 4110 5120
2020-07-08 12:45 6.53 230 6340 (2008) 54 (2006) 1530 59 79 338 557 939 2050 2320 4110 5120
2020-07-08 11:45 6.59 244 6340 (2008) 54 (2006) 1530 59 79 338 557 939 2050 2320 4110 5120
2020-07-08 10:45 6.66 261 6340 (2008) 54 (2006) 1530 59 79 338 557 939 2050 2320 4110 5120
2020-07-08 09:45 6.76 287 6340 (2008) 54 (2006) 1530 59 79 338 557 939 2050 2320 4110 5120
2020-07-08 08:45 6.89 322 6340 (2008) 54 (2006) 1530 59 79 338 557 939 2050 2320 4110 5120
2020-07-08 07:45 7.07 365 6340 (2008) 54 (2006) 1530 59 79 338 557 939 2050 2320 4110 5120
2020-07-08 06:45 7.32 429 6340 (2008) 54 (2006) 1530 59 79 338 557 939 2050 2320 4110 5120
2020-07-08 05:45 7.64 516 6340 (2008) 54 (2006) 1530 59 79 338 557 939 2050 2320 4110 5120
2020-07-08 04:45 8.06 640 6340 (2008) 54 (2006) 1530 59 79 338 557 939 2050 2320 4110 5120
2020-07-08 03:45 8.58 809 6340 (2008) 54 (2006) 1530 59 79 338 557 939 2050 2320 4110 5120
2020-07-08 02:45 9.19 1030 6340 (2008) 54 (2006) 1530 59 79 338 557 939 2050 2320 4110 5120
2020-07-08 01:45 9.93 1320 6340 (2008) 54 (2006) 1530 59 79 338 557 939 2050 2320 4110 5120
2020-07-08 00:45 10.79 1700 6340 (2008) 54 (2006) 1530 59 79 338 557 939 2050 2320 4110 5120
2020-07-07 23:45 11.81 2230 5200 (2008) 55 (2006) 1310 63 83 180 228 850 1760 1930 4120 5090
2020-07-07 22:45 12.95 2900 5200 (2008) 55 (2006) 1310 63 83 180 228 850 1760 1930 4120 5090
2020-07-07 21:45 14.20 3720 5200 (2008) 55 (2006) 1310 63 83 180 228 850 1760 1930 4120 5090
2020-07-07 20:45 15.49 4660 5200 (2008) 55 (2006) 1310 63 83 180 228 850 1760 1930 4120 5090
2020-07-07 19:45 16.57 5520 5200 (2008) 55 (2006) 1310 63 83 180 228 850 1760 1930 4120 5090
2020-07-07 18:45 16.37 5350 5200 (2008) 55 (2006) 1310 63 83 180 228 850 1760 1930 4120 5090
2020-07-07 17:45 15.80 4900 5200 (2008) 55 (2006) 1310 63 83 180 228 850 1760 1930 4120 5090
2020-07-07 16:45 14.97 4270 5200 (2008) 55 (2006) 1310 63 83 180 228 850 1760 1930 4120 5090
2020-07-07 15:45 13.62 3330 5200 (2008) 55 (2006) 1310 63 83 180 228 850 1760 1930 4120 5090
2020-07-07 14:45 11.25 1930 5200 (2008) 55 (2006) 1310 63 83 180 228 850 1760 1930 4120 5090
2020-07-07 13:45 7.17 390 5200 (2008) 55 (2006) 1310 63 83 180 228 850 1760 1930 4120 5090
2020-07-07 12:45 6.68 266 5200 (2008) 55 (2006) 1310 63 83 180 228 850 1760 1930 4120 5090
2020-07-07 11:45 6.79 295 5200 (2008) 55 (2006) 1310 63 83 180 228 850 1760 1930 4120 5090
2020-07-07 10:45 6.94 334 5200 (2008) 55 (2006) 1310 63 83 180 228 850 1760 1930 4120 5090
2020-07-07 09:45 7.14 382 5200 (2008) 55 (2006) 1310 63 83 180 228 850 1760 1930 4120 5090
2020-07-07 08:45 7.39 447 5200 (2008) 55 (2006) 1310 63 83 180 228 850 1760 1930 4120 5090
2020-07-07 07:45 7.73 542 5200 (2008) 55 (2006) 1310 63 83 180 228 850 1760 1930 4120 5090
2020-07-07 06:45 8.17 675 5200 (2008) 55 (2006) 1310 63 83 180 228 850 1760 1930 4120 5090
2020-07-07 05:45 8.70 850 5200 (2008) 55 (2006) 1310 63 83 180 228 850 1760 1930 4120 5090
2020-07-07 04:45 9.35 1090 5200 (2008) 55 (2006) 1310 63 83 180 228 850 1760 1930 4120 5090
2020-07-07 03:45 10.11 1400 5200 (2008) 55 (2006) 1310 63 83 180 228 850 1760 1930 4120 5090
2020-07-07 02:45 11.00 1800 5200 (2008) 55 (2006) 1310 63 83 180 228 850 1760 1930 4120 5090
2020-07-07 01:45 12.05 2360 5200 (2008) 55 (2006) 1310 63 83 180 228 850 1760 1930 4120 5090
2020-07-07 00:45 13.23 3080 5200 (2008) 55 (2006) 1310 63 83 180 228 850 1760 1930 4120 5090
2020-07-06 23:45 14.52 3950 5270 (2007) 61 (1975) 1160 67 77 124 261 672 1290 1730 3240 4970
2020-07-06 22:45 15.86 4950 5270 (2007) 61 (1975) 1160 67 77 124 261 672 1290 1730 3240 4970
2020-07-06 21:45 17.04 5910 5270 (2007) 61 (1975) 1160 67 77 124 261 672 1290 1730 3240 4970
2020-07-06 20:45 17.06 5930 5270 (2007) 61 (1975) 1160 67 77 124 261 672 1290 1730 3240 4970
2020-07-06 19:45 16.87 5770 5270 (2007) 61 (1975) 1160 67 77 124 261 672 1290 1730 3240 4970
2020-07-06 18:45 16.62 5560 5270 (2007) 61 (1975) 1160 67 77 124 261 672 1290 1730 3240 4970
2020-07-06 17:45 16.27 5270 5270 (2007) 61 (1975) 1160 67 77 124 261 672 1290 1730 3240 4970
2020-07-06 16:45 15.80 4900 5270 (2007) 61 (1975) 1160 67 77 124 261 672 1290 1730 3240 4970
2020-07-06 15:45 15.09 4360 5270 (2007) 61 (1975) 1160 67 77 124 261 672 1290 1730 3240 4970
2020-07-06 14:45 13.96 3560 5270 (2007) 61 (1975) 1160 67 77 124 261 672 1290 1730 3240 4970
2020-07-06 13:45 11.73 2190 5270 (2007) 61 (1975) 1160 67 77 124 261 672 1290 1730 3240 4970
2020-07-06 12:45 7.35 437 5270 (2007) 61 (1975) 1160 67 77 124 261 672 1290 1730 3240 4970
2020-07-06 11:45 6.51 226 5270 (2007) 61 (1975) 1160 67 77 124 261 672 1290 1730 3240 4970
2020-07-06 10:45 6.54 233 5270 (2007) 61 (1975) 1160 67 77 124 261 672 1290 1730 3240 4970
2020-07-06 09:45 6.59 244 5270 (2007) 61 (1975) 1160 67 77 124 261 672 1290 1730 3240 4970
2020-07-06 08:45 6.66 261 5270 (2007) 61 (1975) 1160 67 77 124 261 672 1290 1730 3240 4970
2020-07-06 07:45 6.75 284 5270 (2007) 61 (1975) 1160 67 77 124 261 672 1290 1730 3240 4970
2020-07-06 06:45 6.88 319 5270 (2007) 61 (1975) 1160 67 77 124 261 672 1290 1730 3240 4970
2020-07-06 05:45 7.07 365 5270 (2007) 61 (1975) 1160 67 77 124 261 672 1290 1730 3240 4970
2020-07-06 04:45 7.32 429 5270 (2007) 61 (1975) 1160 67 77 124 261 672 1290 1730 3240 4970
2020-07-06 03:45 7.64 516 5270 (2007) 61 (1975) 1160 67 77 124 261 672 1290 1730 3240 4970
2020-07-06 02:45 8.05 637 5270 (2007) 61 (1975) 1160 67 77 124 261 672 1290 1730 3240 4970
2020-07-06 01:45 8.56 802 5270 (2007) 61 (1975) 1160 67 77 124 261 672 1290 1730 3240 4970
2020-07-06 00:45 9.17 1020 5270 (2007) 61 (1975) 1160 67 77 124 261 672 1290 1730 3240 4970
2020-07-05 23:45 9.87 1290 5350 (2007) 64 (1975) 1240 66 74 102 156 754 1720 1960 3010 4870
2020-07-05 22:45 10.69 1650 5350 (2007) 64 (1975) 1240 66 74 102 156 754 1720 1960 3010 4870
2020-07-05 21:45 11.64 2140 5350 (2007) 64 (1975) 1240 66 74 102 156 754 1720 1960 3010 4870
2020-07-05 20:45 12.68 2730 5350 (2007) 64 (1975) 1240 66 74 102 156 754 1720 1960 3010 4870
2020-07-05 19:45 13.66 3360 5350 (2007) 64 (1975) 1240 66 74 102 156 754 1720 1960 3010 4870
2020-07-05 18:45 14.03 3600 5350 (2007) 64 (1975) 1240 66 74 102 156 754 1720 1960 3010 4870
2020-07-05 17:45 11.58 2100 5350 (2007) 64 (1975) 1240 66 74 102 156 754 1720 1960 3010 4870
2020-07-05 16:45 7.27 416 5350 (2007) 64 (1975) 1240 66 74 102 156 754 1720 1960 3010 4870
2020-07-05 15:45 6.41 202 5350 (2007) 64 (1975) 1240 66 74 102 156 754 1720 1960 3010 4870
2020-07-05 14:45 6.42 205 5350 (2007) 64 (1975) 1240 66 74 102 156 754 1720 1960 3010 4870
2020-07-05 13:45 6.42 205 5350 (2007) 64 (1975) 1240 66 74 102 156 754 1720 1960 3010 4870
2020-07-05 12:45 6.43 207 5350 (2007) 64 (1975) 1240 66 74 102 156 754 1720 1960 3010 4870
2020-07-05 11:45 6.44 209 5350 (2007) 64 (1975) 1240 66 74 102 156 754 1720 1960 3010 4870
2020-07-05 10:45 6.44 209 5350 (2007) 64 (1975) 1240 66 74 102 156 754 1720 1960 3010 4870
2020-07-05 09:45 6.44 209 5350 (2007) 64 (1975) 1240 66 74 102 156 754 1720 1960 3010 4870
2020-07-05 08:45 6.44 209 5350 (2007) 64 (1975) 1240 66 74 102 156 754 1720 1960 3010 4870
2020-07-05 07:45 6.44 209 5350 (2007) 64 (1975) 1240 66 74 102 156 754 1720 1960 3010 4870
2020-07-05 06:45 6.44 209 5350 (2007) 64 (1975) 1240 66 74 102 156 754 1720 1960 3010 4870
2020-07-05 05:45 6.44 209 5350 (2007) 64 (1975) 1240 66 74 102 156 754 1720 1960 3010 4870
2020-07-05 04:45 6.43 207 5350 (2007) 64 (1975) 1240 66 74 102 156 754 1720 1960 3010 4870
2020-07-05 03:45 6.43 207 5350 (2007) 64 (1975) 1240 66 74 102 156 754 1720 1960 3010 4870
2020-07-05 02:45 6.43 207 5350 (2007) 64 (1975) 1240 66 74 102 156 754 1720 1960 3010 4870
2020-07-05 01:45 6.42 205 5350 (2007) 64 (1975) 1240 66 74 102 156 754 1720 1960 3010 4870
2020-07-05 00:45 6.42 205 5350 (2007) 64 (1975) 1240 66 74 102 156 754 1720 1960 3010 4870
2020-07-04 23:45 6.42 205 4900 (1995) 54 (2006) 1130 68 84 103 134 553 1790 2370 3330 4690
2020-07-04 22:45 6.42 205 4900 (1995) 54 (2006) 1130 68 84 103 134 553 1790 2370 3330 4690
2020-07-04 21:45 6.43 207 4900 (1995) 54 (2006) 1130 68 84 103 134 553 1790 2370 3330 4690
2020-07-04 20:45 6.43 207 4900 (1995) 54 (2006) 1130 68 84 103 134 553 1790 2370 3330 4690
2020-07-04 19:45 6.44 209 4900 (1995) 54 (2006) 1130 68 84 103 134 553 1790 2370 3330 4690
2020-07-04 18:45 6.45 212 4900 (1995) 54 (2006) 1130 68 84 103 134 553 1790 2370 3330 4690
2020-07-04 17:45 6.45 212 4900 (1995) 54 (2006) 1130 68 84 103 134 553 1790 2370 3330 4690
2020-07-04 16:45 6.47 216 4900 (1995) 54 (2006) 1130 68 84 103 134 553 1790 2370 3330 4690
2020-07-04 15:45 6.49 221 4900 (1995) 54 (2006) 1130 68 84 103 134 553 1790 2370 3330 4690
2020-07-04 14:45 6.52 228 4900 (1995) 54 (2006) 1130 68 84 103 134 553 1790 2370 3330 4690
2020-07-04 13:45 6.51 226 4900 (1995) 54 (2006) 1130 68 84 103 134 553 1790 2370 3330 4690
2020-07-04 12:45 6.53 230 4900 (1995) 54 (2006) 1130 68 84 103 134 553 1790 2370 3330 4690
2020-07-04 11:45 6.56 237 4900 (1995) 54 (2006) 1130 68 84 103 134 553 1790 2370 3330 4690
2020-07-04 10:45 6.60 247 4900 (1995) 54 (2006) 1130 68 84 103 134 553 1790 2370 3330 4690
2020-07-04 09:45 6.66 261 4900 (1995) 54 (2006) 1130 68 84 103 134 553 1790 2370 3330 4690
2020-07-04 08:45 6.73 279 4900 (1995) 54 (2006) 1130 68 84 103 134 553 1790 2370 3330 4690
2020-07-04 07:45 6.84 308 4900 (1995) 54 (2006) 1130 68 84 103 134 553 1790 2370 3330 4690
2020-07-04 06:45 6.99 346 4900 (1995) 54 (2006) 1130 68 84 103 134 553 1790 2370 3330 4690
2020-07-04 05:45 7.20 398 4900 (1995) 54 (2006) 1130 68 84 103 134 553 1790 2370 3330 4690
2020-07-04 04:45 7.47 469 4900 (1995) 54 (2006) 1130 68 84 103 134 553 1790 2370 3330 4690
2020-07-04 03:45 7.82 568 4900 (1995) 54 (2006) 1130 68 84 103 134 553 1790 2370 3330 4690
2020-07-04 02:45 8.27 707 4900 (1995) 54 (2006) 1130 68 84 103 134 553 1790 2370 3330 4690
2020-07-04 01:45 8.82 892 4900 (1995) 54 (2006) 1130 68 84 103 134 553 1790 2370 3330 4690
2020-07-04 00:45 9.47 1130 4900 (1995) 54 (2006) 1130 68 84 103 134 553 1790 2370 3330 4690
2020-07-03 23:45 10.23 1450 6170 (2008) 54 (2006) 1320 71 81 106 152 683 2020 2460 4100 4940
2020-07-03 22:45 11.13 1870 6170 (2008) 54 (2006) 1320 71 81 106 152 683 2020 2460 4100 4940
2020-07-03 21:45 12.16 2430 6170 (2008) 54 (2006) 1320 71 81 106 152 683 2020 2460 4100 4940
2020-07-03 20:45 13.27 3100 6170 (2008) 54 (2006) 1320 71 81 106 152 683 2020 2460 4100 4940
2020-07-03 19:45 14.38 3850 6170 (2008) 54 (2006) 1320 71 81 106 152 683 2020 2460 4100 4940
2020-07-03 18:45 15.12 4380 6170 (2008) 54 (2006) 1320 71 81 106 152 683 2020 2460 4100 4940
2020-07-03 17:45 14.06 3620 6170 (2008) 54 (2006) 1320 71 81 106 152 683 2020 2460 4100 4940
2020-07-03 16:45 11.57 2100 6170 (2008) 54 (2006) 1320 71 81 106 152 683 2020 2460 4100 4940
2020-07-03 15:45 7.09 370 6170 (2008) 54 (2006) 1320 71 81 106 152 683 2020 2460 4100 4940
2020-07-03 14:45 6.46 214 6170 (2008) 54 (2006) 1320 71 81 106 152 683 2020 2460 4100 4940
2020-07-03 13:45 6.47 216 6170 (2008) 54 (2006) 1320 71 81 106 152 683 2020 2460 4100 4940
2020-07-03 12:45 6.47 216 6170 (2008) 54 (2006) 1320 71 81 106 152 683 2020 2460 4100 4940
2020-07-03 11:45 6.48 219 6170 (2008) 54 (2006) 1320 71 81 106 152 683 2020 2460 4100 4940
2020-07-03 10:45 6.49 221 6170 (2008) 54 (2006) 1320 71 81 106 152 683 2020 2460 4100 4940
2020-07-03 09:45 6.49 221 6170 (2008) 54 (2006) 1320 71 81 106 152 683 2020 2460 4100 4940
2020-07-03 08:45 6.49 221 6170 (2008) 54 (2006) 1320 71 81 106 152 683 2020 2460 4100 4940
2020-07-03 07:45 6.49 221 6170 (2008) 54 (2006) 1320 71 81 106 152 683 2020 2460 4100 4940
2020-07-03 06:45 6.50 223 6170 (2008) 54 (2006) 1320 71 81 106 152 683 2020 2460 4100 4940
2020-07-03 05:45 6.50 223 6170 (2008) 54 (2006) 1320 71 81 106 152 683 2020 2460 4100 4940
2020-07-03 04:45 6.51 226 6170 (2008) 54 (2006) 1320 71 81 106 152 683 2020 2460 4100 4940
2020-07-03 03:45 6.53 230 6170 (2008) 54 (2006) 1320 71 81 106 152 683 2020 2460 4100 4940
2020-07-03 02:45 6.55 235 6170 (2008) 54 (2006) 1320 71 81 106 152 683 2020 2460 4100 4940
2020-07-03 01:45 6.59 244 6170 (2008) 54 (2006) 1320 71 81 106 152 683 2020 2460 4100 4940
2020-07-03 00:45 6.64 256 6170 (2008) 54 (2006) 1320 71 81 106 152 683 2020 2460 4100 4940
2020-07-02 23:45 6.72 276 6410 (2008) 54 (2006) 1440 65 79 109 152 928 2430 2730 3650 4790
2020-07-02 22:45 6.83 306 6410 (2008) 54 (2006) 1440 65 79 109 152 928 2430 2730 3650 4790
2020-07-02 21:45 6.96 338 6410 (2008) 54 (2006) 1440 65 79 109 152 928 2430 2730 3650 4790
2020-07-02 20:45 7.13 380 6410 (2008) 54 (2006) 1440 65 79 109 152 928 2430 2730 3650 4790
2020-07-02 19:45 7.31 426 6410 (2008) 54 (2006) 1440 65 79 109 152 928 2430 2730 3650 4790
2020-07-02 18:45 7.48 472 6410 (2008) 54 (2006) 1440 65 79 109 152 928 2430 2730 3650 4790
2020-07-02 17:45 7.55 491 6410 (2008) 54 (2006) 1440 65 79 109 152 928 2430 2730 3650 4790
2020-07-02 16:45 7.23 405 6410 (2008) 54 (2006) 1440 65 79 109 152 928 2430 2730 3650 4790
2020-07-02 15:45 6.38 195 6410 (2008) 54 (2006) 1440 65 79 109 152 928 2430 2730 3650 4790
2020-07-02 14:45 6.35 189 6410 (2008) 54 (2006) 1440 65 79 109 152 928 2430 2730 3650 4790
2020-07-02 13:45 6.39 198 6410 (2008) 54 (2006) 1440 65 79 109 152 928 2430 2730 3650 4790
2020-07-02 12:45 6.43 207 6410 (2008) 54 (2006) 1440 65 79 109 152 928 2430 2730 3650 4790
2020-07-02 11:45 6.49 221 6410 (2008) 54 (2006) 1440 65 79 109 152 928 2430 2730 3650 4790
2020-07-02 10:45 6.57 240 6410 (2008) 54 (2006) 1440 65 79 109 152 928 2430 2730 3650 4790
2020-07-02 09:45 6.67 264 6410 (2008) 54 (2006) 1440 65 79 109 152 928 2430 2730 3650 4790
2020-07-02 08:45 6.81 300 6410 (2008) 54 (2006) 1440 65 79 109 152 928 2430 2730 3650 4790
2020-07-02 07:45 7.00 348 6410 (2008) 54 (2006) 1440 65 79 109 152 928 2430 2730 3650 4790
2020-07-02 06:45 7.26 413 6410 (2008) 54 (2006) 1440 65 79 109 152 928 2430 2730 3650 4790
2020-07-02 05:45 7.59 502 6410 (2008) 54 (2006) 1440 65 79 109 152 928 2430 2730 3650 4790
2020-07-02 04:45 8.01 625 6410 (2008) 54 (2006) 1440 65 79 109 152 928 2430 2730 3650 4790
2020-07-02 03:45 8.52 789 6410 (2008) 54 (2006) 1440 65 79 109 152 928 2430 2730 3650 4790
2020-07-02 02:45 9.15 1010 6410 (2008) 54 (2006) 1440 65 79 109 152 928 2430 2730 3650 4790
2020-07-02 01:45 9.88 1300 6410 (2008) 54 (2006) 1440 65 79 109 152 928 2430 2730 3650 4790
2020-07-02 00:45 10.75 1680 6410 (2008) 54 (2006) 1440 65 79 109 152 928 2430 2730 3650 4790
2020-07-01 23:45 11.77 2210 6480 (2008) 54 (2006) 1490 75 93 152 202 1240 2100 2280 3660 5080
2020-07-01 22:45 12.90 2870 6480 (2008) 54 (2006) 1490 75 93 152 202 1240 2100 2280 3660 5080
2020-07-01 21:45 14.16 3690 6480 (2008) 54 (2006) 1490 75 93 152 202 1240 2100 2280 3660 5080
2020-07-01 20:45 15.46 4640 6480 (2008) 54 (2006) 1490 75 93 152 202 1240 2100 2280 3660 5080
2020-07-01 19:45 16.58 5520 6480 (2008) 54 (2006) 1490 75 93 152 202 1240 2100 2280 3660 5080
2020-07-01 18:45 16.44 5410 6480 (2008) 54 (2006) 1490 75 93 152 202 1240 2100 2280 3660 5080
2020-07-01 17:45 15.87 4950 6480 (2008) 54 (2006) 1490 75 93 152 202 1240 2100 2280 3660 5080
2020-07-01 16:45 15.02 4310 6480 (2008) 54 (2006) 1490 75 93 152 202 1240 2100 2280 3660 5080
2020-07-01 15:45 13.69 3380 6480 (2008) 54 (2006) 1490 75 93 152 202 1240 2100 2280 3660 5080
2020-07-01 14:45 11.57 2100 6480 (2008) 54 (2006) 1490 75 93 152 202 1240 2100 2280 3660 5080
2020-07-01 13:45 7.26 413 6480 (2008) 54 (2006) 1490 75 93 152 202 1240 2100 2280 3660 5080
2020-07-01 12:45 6.65 259 6480 (2008) 54 (2006) 1490 75 93 152 202 1240 2100 2280 3660 5080
2020-07-01 11:45 6.70 271 6480 (2008) 54 (2006) 1490 75 93 152 202 1240 2100 2280 3660 5080
2020-07-01 10:45 6.78 292 6480 (2008) 54 (2006) 1490 75 93 152 202 1240 2100 2280 3660 5080
2020-07-01 09:45 6.89 322 6480 (2008) 54 (2006) 1490 75 93 152 202 1240 2100 2280 3660 5080
2020-07-01 08:45 7.04 358 6480 (2008) 54 (2006) 1490 75 93 152 202 1240 2100 2280 3660 5080
2020-07-01 07:45 7.25 411 6480 (2008) 54 (2006) 1490 75 93 152 202 1240 2100 2280 3660 5080
2020-07-01 06:45 7.53 485 6480 (2008) 54 (2006) 1490 75 93 152 202 1240 2100 2280 3660 5080
2020-07-01 05:45 7.90 592 6480 (2008) 54 (2006) 1490 75 93 152 202 1240 2100 2280 3660 5080
2020-07-01 04:45 8.36 736 6480 (2008) 54 (2006) 1490 75 93 152 202 1240 2100 2280 3660 5080
2020-07-01 03:45 8.92 927 6480 (2008) 54 (2006) 1490 75 93 152 202 1240 2100 2280 3660 5080
2020-07-01 02:45 9.60 1180 6480 (2008) 54 (2006) 1490 75 93 152 202 1240 2100 2280 3660 5080
2020-07-01 01:45 10.39 1520 6480 (2008) 54 (2006) 1490 75 93 152 202 1240 2100 2280 3660 5080
2020-07-01 00:45 11.33 1970 6480 (2008) 54 (2006) 1490 75 93 152 202 1240 2100 2280 3660 5080
2020-06-30 23:45 12.41 2570 5250 (2008) 55 (2006) 1320 65 76 101 144 878 1740 2480 3770 4880
2020-06-30 22:45 13.59 3310 5250 (2008) 55 (2006) 1320 65 76 101 144 878 1740 2480 3770 4880
2020-06-30 21:45 14.86 4190 5250 (2008) 55 (2006) 1320 65 76 101 144 878 1740 2480 3770 4880
2020-06-30 20:45 16.02 5070 5250 (2008) 55 (2006) 1320 65 76 101 144 878 1740 2480 3770 4880
2020-06-30 19:45 16.35 5340 5250 (2008) 55 (2006) 1320 65 76 101 144 878 1740 2480 3770 4880
2020-06-30 18:45 16.10 5140 5250 (2008) 55 (2006) 1320 65 76 101 144 878 1740 2480 3770 4880
2020-06-30 17:45 15.43 4610 5250 (2008) 55 (2006) 1320 65 76 101 144 878 1740 2480 3770 4880
2020-06-30 16:45 14.44 3890 5250 (2008) 55 (2006) 1320 65 76 101 144 878 1740 2480 3770 4880
2020-06-30 15:45 12.95 2900 5250 (2008) 55 (2006) 1320 65 76 101 144 878 1740 2480 3770 4880
2020-06-30 14:45 10.61 1620 5250 (2008) 55 (2006) 1320 65 76 101 144 878 1740 2480 3770 4880
2020-06-30 13:45 6.81 300 5250 (2008) 55 (2006) 1320 65 76 101 144 878 1740 2480 3770 4880
2020-06-30 12:45 6.66 261 5250 (2008) 55 (2006) 1320 65 76 101 144 878 1740 2480 3770 4880
2020-06-30 11:45 6.72 276 5250 (2008) 55 (2006) 1320 65 76 101 144 878 1740 2480 3770 4880
2020-06-30 10:45 6.82 303 5250 (2008) 55 (2006) 1320 65 76 101 144 878 1740 2480 3770 4880
2020-06-30 09:45 6.97 341 5250 (2008) 55 (2006) 1320 65 76 101 144 878 1740 2480 3770 4880
2020-06-30 08:45 7.19 395 5250 (2008) 55 (2006) 1320 65 76 101 144 878 1740 2480 3770 4880
2020-06-30 07:45 7.48 472 5250 (2008) 55 (2006) 1320 65 76 101 144 878 1740 2480 3770 4880
2020-06-30 06:45 7.87 583 5250 (2008) 55 (2006) 1320 65 76 101 144 878 1740 2480 3770 4880
2020-06-30 05:45 8.36 736 5250 (2008) 55 (2006) 1320 65 76 101 144 878 1740 2480 3770 4880
2020-06-30 04:45 8.96 942 5250 (2008) 55 (2006) 1320 65 76 101 144 878 1740 2480 3770 4880
2020-06-30 03:45 9.65 1200 5250 (2008) 55 (2006) 1320 65 76 101 144 878 1740 2480 3770 4880
2020-06-30 02:45 10.48 1560 5250 (2008) 55 (2006) 1320 65 76 101 144 878 1740 2480 3770 4880
2020-06-30 01:45 11.45 2030 5250 (2008) 55 (2006) 1320 65 76 101 144 878 1740 2480 3770 4880
2020-06-30 00:45 12.55 2660 5250 (2008) 55 (2006) 1320 65 76 101 144 878 1740 2480 3770 4880
2020-06-29 23:45 13.79 3440 4920 (1994) 56 (2006) 1300 62 70 100 234 915 1470 2370 3860 4900
2020-06-29 22:45 15.11 4370 4920 (1994) 56 (2006) 1300 62 70 100 234 915 1470 2370 3860 4900
2020-06-29 21:45 16.33 5320 4920 (1994) 56 (2006) 1300 62 70 100 234 915 1470 2370 3860 4900
2020-06-29 20:45 16.85 5750 4920 (1994) 56 (2006) 1300 62 70 100 234 915 1470 2370 3860 4900
2020-06-29 19:45 16.89 5780 4920 (1994) 56 (2006) 1300 62 70 100 234 915 1470 2370 3860 4900
2020-06-29 18:45 16.80 5710 4920 (1994) 56 (2006) 1300 62 70 100 234 915 1470 2370 3860 4900
2020-06-29 17:45 16.45 5420 4920 (1994) 56 (2006) 1300 62 70 100 234 915 1470 2370 3860 4900
2020-06-29 16:45 15.96 5030 4920 (1994) 56 (2006) 1300 62 70 100 234 915 1470 2370 3860 4900
2020-06-29 15:45 15.23 4460 4920 (1994) 56 (2006) 1300 62 70 100 234 915 1470 2370 3860 4900
2020-06-29 14:45 14.33 3810 4920 (1994) 56 (2006) 1300 62 70 100 234 915 1470 2370 3860 4900
2020-06-29 13:45 13.11 3000 4920 (1994) 56 (2006) 1300 62 70 100 234 915 1470 2370 3860 4900
2020-06-29 12:45 10.89 1750 4920 (1994) 56 (2006) 1300 62 70 100 234 915 1470 2370 3860 4900
2020-06-29 11:45 6.54 233 4920 (1994) 56 (2006) 1300 62 70 100 234 915 1470 2370 3860 4900
2020-06-29 10:45 6.31 180 4920 (1994) 56 (2006) 1300 62 70 100 234 915 1470 2370 3860 4900
2020-06-29 09:45 6.31 180 4920 (1994) 56 (2006) 1300 62 70 100 234 915 1470 2370 3860 4900
2020-06-29 08:45 6.31 180 4920 (1994) 56 (2006) 1300 62 70 100 234 915 1470 2370 3860 4900
2020-06-29 07:45 6.31 180 4920 (1994) 56 (2006) 1300 62 70 100 234 915 1470 2370 3860 4900
2020-06-29 06:45 6.31 180 4920 (1994) 56 (2006) 1300 62 70 100 234 915 1470 2370 3860 4900
2020-06-29 05:45 6.30 178 4920 (1994) 56 (2006) 1300 62 70 100 234 915 1470 2370 3860 4900
2020-06-29 04:45 6.30 178 4920 (1994) 56 (2006) 1300 62 70 100 234 915 1470 2370 3860 4900
2020-06-29 03:45 6.30 178 4920 (1994) 56 (2006) 1300 62 70 100 234 915 1470 2370 3860 4900
2020-06-29 02:45 6.30 178 4920 (1994) 56 (2006) 1300 62 70 100 234 915 1470 2370 3860 4900
2020-06-29 01:45 6.29 176 4920 (1994) 56 (2006) 1300 62 70 100 234 915 1470 2370 3860 4900
2020-06-29 00:45 6.29 176 4920 (1994) 56 (2006) 1300 62 70 100 234 915 1470 2370 3860 4900
2020-06-28 23:45 6.29 176 5020 (1994) 55 (2006) 1650 65 77 179 461 1200 2690 2910 4310 4840
2020-06-28 22:45 6.29 176 5020 (1994) 55 (2006) 1650 65 77 179 461 1200 2690 2910 4310 4840
2020-06-28 21:45 6.29 176 5020 (1994) 55 (2006) 1650 65 77 179 461 1200 2690 2910 4310 4840
2020-06-28 20:45 6.29 176 5020 (1994) 55 (2006) 1650 65 77 179 461 1200 2690 2910 4310 4840
2020-06-28 19:45 6.29 176 5020 (1994) 55 (2006) 1650 65 77 179 461 1200 2690 2910 4310 4840
2020-06-28 18:45 6.30 178 5020 (1994) 55 (2006) 1650 65 77 179 461 1200 2690 2910 4310 4840
2020-06-28 17:45 6.30 178 5020 (1994) 55 (2006) 1650 65 77 179 461 1200 2690 2910 4310 4840
2020-06-28 16:45 6.32 182 5020 (1994) 55 (2006) 1650 65 77 179 461 1200 2690 2910 4310 4840
2020-06-28 15:45 6.32 182 5020 (1994) 55 (2006) 1650 65 77 179 461 1200 2690 2910 4310 4840
2020-06-28 14:45 6.33 184 5020 (1994) 55 (2006) 1650 65 77 179 461 1200 2690 2910 4310 4840
2020-06-28 13:45 6.33 184 5020 (1994) 55 (2006) 1650 65 77 179 461 1200 2690 2910 4310 4840
2020-06-28 12:45 6.34 187 5020 (1994) 55 (2006) 1650 65 77 179 461 1200 2690 2910 4310 4840
2020-06-28 11:45 6.35 189 5020 (1994) 55 (2006) 1650 65 77 179 461 1200 2690 2910 4310 4840
2020-06-28 10:45 6.35 189 5020 (1994) 55 (2006) 1650 65 77 179 461 1200 2690 2910 4310 4840
2020-06-28 09:45 6.36 191 5020 (1994) 55 (2006) 1650 65 77 179 461 1200 2690 2910 4310 4840
2020-06-28 08:45 6.36 191 5020 (1994) 55 (2006) 1650 65 77 179 461 1200 2690 2910 4310 4840
2020-06-28 07:45 6.36 191 5020 (1994) 55 (2006) 1650 65 77 179 461 1200 2690 2910 4310 4840
2020-06-28 06:45 6.36 191 5020 (1994) 55 (2006) 1650 65 77 179 461 1200 2690 2910 4310 4840
2020-06-28 05:45 6.36 191 5020 (1994) 55 (2006) 1650 65 77 179 461 1200 2690 2910 4310 4840
2020-06-28 04:45 6.36 191 5020 (1994) 55 (2006) 1650 65 77 179 461 1200 2690 2910 4310 4840
2020-06-28 03:45 6.36 191 5020 (1994) 55 (2006) 1650 65 77 179 461 1200 2690 2910 4310 4840
2020-06-28 02:45 6.36 191 5020 (1994) 55 (2006) 1650 65 77 179 461 1200 2690 2910 4310 4840
2020-06-28 01:45 6.36 191 5020 (1994) 55 (2006) 1650 65 77 179 461 1200 2690 2910 4310 4840
2020-06-28 00:45 6.36 191 5020 (1994) 55 (2006) 1650 65 77 179 461 1200 2690 2910 4310 4840
2020-06-27 23:45 6.37 193 5150 (2008) 54 (2006) 1680 63 80 203 343 1270 2600 2940 4200 4960
2020-06-27 22:45 6.37 193 5150 (2008) 54 (2006) 1680 63 80 203 343 1270 2600 2940 4200 4960
2020-06-27 21:45 6.38 195 5150 (2008) 54 (2006) 1680 63 80 203 343 1270 2600 2940 4200 4960
2020-06-27 20:45 6.40 200 5150 (2008) 54 (2006) 1680 63 80 203 343 1270 2600 2940 4200 4960
2020-06-27 19:45 6.41 202 5150 (2008) 54 (2006) 1680 63 80 203 343 1270 2600 2940 4200 4960
2020-06-27 18:45 6.43 207 5150 (2008) 54 (2006) 1680 63 80 203 343 1270 2600 2940 4200 4960
2020-06-27 17:45 6.46 214 5150 (2008) 54 (2006) 1680 63 80 203 343 1270 2600 2940 4200 4960
2020-06-27 16:45 6.50 223 5150 (2008) 54 (2006) 1680 63 80 203 343 1270 2600 2940 4200 4960
2020-06-27 15:45 6.54 233 5150 (2008) 54 (2006) 1680 63 80 203 343 1270 2600 2940 4200 4960
2020-06-27 14:45 6.59 244 5150 (2008) 54 (2006) 1680 63 80 203 343 1270 2600 2940 4200 4960
2020-06-27 13:45 6.67 264 5150 (2008) 54 (2006) 1680 63 80 203 343 1270 2600 2940 4200 4960
2020-06-27 12:45 6.77 290 5150 (2008) 54 (2006) 1680 63 80 203 343 1270 2600 2940 4200 4960
2020-06-27 11:45 6.90 324 5150 (2008) 54 (2006) 1680 63 80 203 343 1270 2600 2940 4200 4960
2020-06-27 10:45 7.09 370 5150 (2008) 54 (2006) 1680 63 80 203 343 1270 2600 2940 4200 4960
2020-06-27 09:45 7.35 437 5150 (2008) 54 (2006) 1680 63 80 203 343 1270 2600 2940 4200 4960
2020-06-27 08:45 7.67 525 5150 (2008) 54 (2006) 1680 63 80 203 343 1270 2600 2940 4200 4960
2020-06-27 07:45 8.08 647 5150 (2008) 54 (2006) 1680 63 80 203 343 1270 2600 2940 4200 4960
2020-06-27 06:45 8.59 812 5150 (2008) 54 (2006) 1680 63 80 203 343 1270 2600 2940 4200 4960
2020-06-27 05:45 9.22 1040 5150 (2008) 54 (2006) 1680 63 80 203 343 1270 2600 2940 4200 4960
2020-06-27 04:45 9.96 1330 5150 (2008) 54 (2006) 1680 63 80 203 343 1270 2600 2940 4200 4960
2020-06-27 03:45 10.84 1720 5150 (2008) 54 (2006) 1680 63 80 203 343 1270 2600 2940 4200 4960
2020-06-27 02:45 11.86 2260 5150 (2008) 54 (2006) 1680 63 80 203 343 1270 2600 2940 4200 4960
2020-06-27 01:45 13.02 2940 5150 (2008) 54 (2006) 1680 63 80 203 343 1270 2600 2940 4200 4960
2020-06-27 00:45 14.29 3780 5150 (2008) 54 (2006) 1680 63 80 203 343 1270 2600 2940 4200 4960
2020-06-26 23:45 15.62 4760 5300 (2007) 54 (2006) 1740 69 97 190 294 1140 2710 3350 4410 5070
2020-06-26 22:45 16.81 5720 5300 (2007) 54 (2006) 1740 69 97 190 294 1140 2710 3350 4410 5070
2020-06-26 21:45 16.99 5870 5300 (2007) 54 (2006) 1740 69 97 190 294 1140 2710 3350 4410 5070
2020-06-26 20:45 16.99 5870 5300 (2007) 54 (2006) 1740 69 97 190 294 1140 2710 3350 4410 5070
2020-06-26 19:45 16.99 5870 5300 (2007) 54 (2006) 1740 69 97 190 294 1140 2710 3350 4410 5070
2020-06-26 18:45 16.93 5820 5300 (2007) 54 (2006) 1740 69 97 190 294 1140 2710 3350 4410 5070
2020-06-26 17:45 16.61 5550 5300 (2007) 54 (2006) 1740 69 97 190 294 1140 2710 3350 4410 5070
2020-06-26 16:45 16.16 5180 5300 (2007) 54 (2006) 1740 69 97 190 294 1140 2710 3350 4410 5070
2020-06-26 15:45 15.64 4780 5300 (2007) 54 (2006) 1740 69 97 190 294 1140 2710 3350 4410 5070
2020-06-26 14:45 15.13 4390 5300 (2007) 54 (2006) 1740 69 97 190 294 1140 2710 3350 4410 5070
2020-06-26 13:45 14.42 3870 5300 (2007) 54 (2006) 1740 69 97 190 294 1140 2710 3350 4410 5070
2020-06-26 12:45 13.27 3100 5300 (2007) 54 (2006) 1740 69 97 190 294 1140 2710 3350 4410 5070
2020-06-26 11:45 11.24 1920 5300 (2007) 54 (2006) 1740 69 97 190 294 1140 2710 3350 4410 5070
2020-06-26 10:45 7.53 485 5300 (2007) 54 (2006) 1740 69 97 190 294 1140 2710 3350 4410 5070
2020-06-26 09:45 7.33 431 5300 (2007) 54 (2006) 1740 69 97 190 294 1140 2710 3350 4410 5070
2020-06-26 08:45 7.65 519 5300 (2007) 54 (2006) 1740 69 97 190 294 1140 2710 3350 4410 5070
2020-06-26 07:45 8.07 644 5300 (2007) 54 (2006) 1740 69 97 190 294 1140 2710 3350 4410 5070
2020-06-26 06:45 8.58 809 5300 (2007) 54 (2006) 1740 69 97 190 294 1140 2710 3350 4410 5070
2020-06-26 05:45 9.20 1030 5300 (2007) 54 (2006) 1740 69 97 190 294 1140 2710 3350 4410 5070
2020-06-26 04:45 9.93 1320 5300 (2007) 54 (2006) 1740 69 97 190 294 1140 2710 3350 4410 5070
2020-06-26 03:45 10.79 1700 5300 (2007) 54 (2006) 1740 69 97 190 294 1140 2710 3350 4410 5070
2020-06-26 02:45 11.82 2230 5300 (2007) 54 (2006) 1740 69 97 190 294 1140 2710 3350 4410 5070
2020-06-26 01:45 12.97 2910 5300 (2007) 54 (2006) 1740 69 97 190 294 1140 2710 3350 4410 5070
2020-06-26 00:45 14.23 3740 5300 (2007) 54 (2006) 1740 69 97 190 294 1140 2710 3350 4410 5070
2020-06-25 23:45 15.56 4710 5830 (2008) 55 (2006) 1800 72 88 122 235 1200 2800 3800 5160 5390
2020-06-25 22:45 16.74 5660 5830 (2008) 55 (2006) 1800 72 88 122 235 1200 2800 3800 5160 5390
2020-06-25 21:45 16.96 5840 5830 (2008) 55 (2006) 1800 72 88 122 235 1200 2800 3800 5160 5390
2020-06-25 20:45 16.97 5850 5830 (2008) 55 (2006) 1800 72 88 122 235 1200 2800 3800 5160 5390
2020-06-25 19:45 16.97 5850 5830 (2008) 55 (2006) 1800 72 88 122 235 1200 2800 3800 5160 5390
2020-06-25 18:45 16.90 5790 5830 (2008) 55 (2006) 1800 72 88 122 235 1200 2800 3800 5160 5390
2020-06-25 17:45 16.56 5510 5830 (2008) 55 (2006) 1800 72 88 122 235 1200 2800 3800 5160 5390
2020-06-25 16:45 16.12 5150 5830 (2008) 55 (2006) 1800 72 88 122 235 1200 2800 3800 5160 5390
2020-06-25 15:45 15.60 4740 5830 (2008) 55 (2006) 1800 72 88 122 235 1200 2800 3800 5160 5390
2020-06-25 14:45 15.10 4370 5830 (2008) 55 (2006) 1800 72 88 122 235 1200 2800 3800 5160 5390
2020-06-25 13:45 14.41 3870 5830 (2008) 55 (2006) 1800 72 88 122 235 1200 2800 3800 5160 5390
2020-06-25 12:45 13.24 3080 5830 (2008) 55 (2006) 1800 72 88 122 235 1200 2800 3800 5160 5390
2020-06-25 11:45 11.23 1920 5830 (2008) 55 (2006) 1800 72 88 122 235 1200 2800 3800 5160 5390
2020-06-25 10:45 7.52 483 5830 (2008) 55 (2006) 1800 72 88 122 235 1200 2800 3800 5160 5390
2020-06-25 09:45 7.35 437 5830 (2008) 55 (2006) 1800 72 88 122 235 1200 2800 3800 5160 5390
2020-06-25 08:45 7.67 525 5830 (2008) 55 (2006) 1800 72 88 122 235 1200 2800 3800 5160 5390
2020-06-25 07:45 8.08 647 5830 (2008) 55 (2006) 1800 72 88 122 235 1200 2800 3800 5160 5390
2020-06-25 06:45 8.59 812 5830 (2008) 55 (2006) 1800 72 88 122 235 1200 2800 3800 5160 5390
2020-06-25 05:45 9.21 1030 5830 (2008) 55 (2006) 1800 72 88 122 235 1200 2800 3800 5160 5390
2020-06-25 04:45 9.94 1320 5830 (2008) 55 (2006) 1800 72 88 122 235 1200 2800 3800 5160 5390
2020-06-25 03:45 10.80 1710 5830 (2008) 55 (2006) 1800 72 88 122 235 1200 2800 3800 5160 5390
2020-06-25 02:45 11.82 2230 5830 (2008) 55 (2006) 1800 72 88 122 235 1200 2800 3800 5160 5390
2020-06-25 01:45 12.96 2910 5830 (2008) 55 (2006) 1800 72 88 122 235 1200 2800 3800 5160 5390
2020-06-25 00:45 14.22 3730 5830 (2008) 55 (2006) 1800 72 88 122 235 1200 2800 3800 5160 5390
2020-06-24 23:45 15.54 4700 6380 (2008) 55 (2006) 1890 74 124 281 525 1350 3020 3670 4790 5170
2020-06-24 22:45 16.72 5640 6380 (2008) 55 (2006) 1890 74 124 281 525 1350 3020 3670 4790 5170
2020-06-24 21:45 16.90 5790 6380 (2008) 55 (2006) 1890 74 124 281 525 1350 3020 3670 4790 5170
2020-06-24 20:45 16.88 5770 6380 (2008) 55 (2006) 1890 74 124 281 525 1350 3020 3670 4790 5170
2020-06-24 19:45 16.87 5770 6380 (2008) 55 (2006) 1890 74 124 281 525 1350 3020 3670 4790 5170
2020-06-24 18:45 16.79 5700 6380 (2008) 55 (2006) 1890 74 124 281 525 1350 3020 3670 4790 5170
2020-06-24 17:45 16.43 5400 6380 (2008) 55 (2006) 1890 74 124 281 525 1350 3020 3670 4790 5170
2020-06-24 16:45 15.95 5020 6380 (2008) 55 (2006) 1890 74 124 281 525 1350 3020 3670 4790 5170
2020-06-24 15:45 15.43 4610 6380 (2008) 55 (2006) 1890 74 124 281 525 1350 3020 3670 4790 5170
2020-06-24 14:45 14.93 4240 6380 (2008) 55 (2006) 1890 74 124 281 525 1350 3020 3670 4790 5170
2020-06-24 13:45 14.22 3730 6380 (2008) 55 (2006) 1890 74 124 281 525 1350 3020 3670 4790 5170
2020-06-24 12:45 13.02 2940 6380 (2008) 55 (2006) 1890 74 124 281 525 1350 3020 3670 4790 5170
2020-06-24 11:45 10.88 1740 6380 (2008) 55 (2006) 1890 74 124 281 525 1350 3020 3670 4790 5170
2020-06-24 10:45 6.94 334 6380 (2008) 55 (2006) 1890 74 124 281 525 1350 3020 3670 4790 5170
2020-06-24 09:45 7.04 358 6380 (2008) 55 (2006) 1890 74 124 281 525 1350 3020 3670 4790 5170
2020-06-24 08:45 7.38 445 6380 (2008) 55 (2006) 1890 74 124 281 525 1350 3020 3670 4790 5170
2020-06-24 07:45 7.81 565 6380 (2008) 55 (2006) 1890 74 124 281 525 1350 3020 3670 4790 5170
2020-06-24 06:45 8.34 729 6380 (2008) 55 (2006) 1890 74 124 281 525 1350 3020 3670 4790 5170
2020-06-24 05:45 8.98 949 6380 (2008) 55 (2006) 1890 74 124 281 525 1350 3020 3670 4790 5170
2020-06-24 04:45 9.72 1230 6380 (2008) 55 (2006) 1890 74 124 281 525 1350 3020 3670 4790 5170
2020-06-24 03:45 10.58 1600 6380 (2008) 55 (2006) 1890 74 124 281 525 1350 3020 3670 4790 5170
2020-06-24 02:45 11.60 2110 6380 (2008) 55 (2006) 1890 74 124 281 525 1350 3020 3670 4790 5170
2020-06-24 01:45 12.75 2780 6380 (2008) 55 (2006) 1890 74 124 281 525 1350 3020 3670 4790 5170
2020-06-24 00:45 14.01 3590 6380 (2008) 55 (2006) 1890 74 124 281 525 1350 3020 3670 4790 5170
2020-06-23 23:45 15.35 4550 6420 (2008) 55 (2006) 1960 81 107 560 733 1320 2870 3690 4970 5080
2020-06-23 22:45 16.53 5480 6420 (2008) 55 (2006) 1960 81 107 560 733 1320 2870 3690 4970 5080
2020-06-23 21:45 16.73 5650 6420 (2008) 55 (2006) 1960 81 107 560 733 1320 2870 3690 4970 5080
2020-06-23 20:45 16.76 5670 6420 (2008) 55 (2006) 1960 81 107 560 733 1320 2870 3690 4970 5080
2020-06-23 19:45 16.75 5670 6420 (2008) 55 (2006) 1960 81 107 560 733 1320 2870 3690 4970 5080
2020-06-23 18:45 16.73 5650 6420 (2008) 55 (2006) 1960 81 107 560 733 1320 2870 3690 4970 5080
2020-06-23 17:45 16.57 5520 6420 (2008) 55 (2006) 1960 81 107 560 733 1320 2870 3690 4970 5080
2020-06-23 16:45 16.19 5210 6420 (2008) 55 (2006) 1960 81 107 560 733 1320 2870 3690 4970 5080
2020-06-23 15:45 15.66 4790 6420 (2008) 55 (2006) 1960 81 107 560 733 1320 2870 3690 4970 5080
2020-06-23 14:45 15.00 4290 6420 (2008) 55 (2006) 1960 81 107 560 733 1320 2870 3690 4970 5080
2020-06-23 13:45 14.25 3760 6420 (2008) 55 (2006) 1960 81 107 560 733 1320 2870 3690 4970 5080
2020-06-23 12:45 13.08 2980 6420 (2008) 55 (2006) 1960 81 107 560 733 1320 2870 3690 4970 5080
2020-06-23 11:45 10.96 1780 6420 (2008) 55 (2006) 1960 81 107 560 733 1320 2870 3690 4970 5080
2020-06-23 10:45 7.02 353 6420 (2008) 55 (2006) 1960 81 107 560 733 1320 2870 3690 4970 5080
2020-06-23 09:45 7.07 365 6420 (2008) 55 (2006) 1960 81 107 560 733 1320 2870 3690 4970 5080
2020-06-23 08:45 7.41 453 6420 (2008) 55 (2006) 1960 81 107 560 733 1320 2870 3690 4970 5080
2020-06-23 07:45 7.84 574 6420 (2008) 55 (2006) 1960 81 107 560 733 1320 2870 3690 4970 5080
2020-06-23 06:45 8.38 742 6420 (2008) 55 (2006) 1960 81 107 560 733 1320 2870 3690 4970 5080
2020-06-23 05:45 9.01 960 6420 (2008) 55 (2006) 1960 81 107 560 733 1320 2870 3690 4970 5080
2020-06-23 04:45 9.76 1250 6420 (2008) 55 (2006) 1960 81 107 560 733 1320 2870 3690 4970 5080
2020-06-23 03:45 10.63 1630 6420 (2008) 55 (2006) 1960 81 107 560 733 1320 2870 3690 4970 5080
2020-06-23 02:45 11.66 2150 6420 (2008) 55 (2006) 1960 81 107 560 733 1320 2870 3690 4970 5080
2020-06-23 01:45 12.81 2810 6420 (2008) 55 (2006) 1960 81 107 560 733 1320 2870 3690 4970 5080
2020-06-23 00:45 14.08 3640 6420 (2008) 55 (2006) 1960 81 107 560 733 1320 2870 3690 4970 5080
2020-06-22 23:45 15.39 4580 6420 (2008) 57 (2006) 1700 67 74 116 389 1110 2410 2710 4950 5190
2020-06-22 22:45 16.55 5500 6420 (2008) 57 (2006) 1700 67 74 116 389 1110 2410 2710 4950 5190
2020-06-22 21:45 16.69 5620 6420 (2008) 57 (2006) 1700 67 74 116 389 1110 2410 2710 4950 5190
2020-06-22 20:45 16.68 5610 6420 (2008) 57 (2006) 1700 67 74 116 389 1110 2410 2710 4950 5190
2020-06-22 19:45 16.62 5560 6420 (2008) 57 (2006) 1700 67 74 116 389 1110 2410 2710 4950 5190
2020-06-22 18:45 16.57 5520 6420 (2008) 57 (2006) 1700 67 74 116 389 1110 2410 2710 4950 5190
2020-06-22 17:45 16.43 5400 6420 (2008) 57 (2006) 1700 67 74 116 389 1110 2410 2710 4950 5190
2020-06-22 16:45 16.01 5060 6420 (2008) 57 (2006) 1700 67 74 116 389 1110 2410 2710 4950 5190
2020-06-22 15:45 15.49 4660 6420 (2008) 57 (2006) 1700 67 74 116 389 1110 2410 2710 4950 5190
2020-06-22 14:45 15.03 4310 6420 (2008) 57 (2006) 1700 67 74 116 389 1110 2410 2710 4950 5190
2020-06-22 13:45 14.38 3850 6420 (2008) 57 (2006) 1700 67 74 116 389 1110 2410 2710 4950 5190
2020-06-22 12:45 13.27 3100 6420 (2008) 57 (2006) 1700 67 74 116 389 1110 2410 2710 4950 5190
2020-06-22 11:45 11.35 1980 6420 (2008) 57 (2006) 1700 67 74 116 389 1110 2410 2710 4950 5190
2020-06-22 10:45 7.42 455 6420 (2008) 57 (2006) 1700 67 74 116 389 1110 2410 2710 4950 5190
2020-06-22 09:45 7.27 416 6420 (2008) 57 (2006) 1700 67 74 116 389 1110 2410 2710 4950 5190
2020-06-22 08:45 7.67 525 6420 (2008) 57 (2006) 1700 67 74 116 389 1110 2410 2710 4950 5190
2020-06-22 07:45 8.17 675 6420 (2008) 57 (2006) 1700 67 74 116 389 1110 2410 2710 4950 5190
2020-06-22 06:45 8.76 871 6420 (2008) 57 (2006) 1700 67 74 116 389 1110 2410 2710 4950 5190
2020-06-22 05:45 9.46 1130 6420 (2008) 57 (2006) 1700 67 74 116 389 1110 2410 2710 4950 5190
2020-06-22 04:45 10.28 1470 6420 (2008) 57 (2006) 1700 67 74 116 389 1110 2410 2710 4950 5190
2020-06-22 03:45 11.24 1920 6420 (2008) 57 (2006) 1700 67 74 116 389 1110 2410 2710 4950 5190
2020-06-22 02:45 12.34 2530 6420 (2008) 57 (2006) 1700 67 74 116 389 1110 2410 2710 4950 5190
2020-06-22 01:45 13.55 3280 6420 (2008) 57 (2006) 1700 67 74 116 389 1110 2410 2710 4950 5190
2020-06-22 00:45 14.78 4130 6420 (2008) 57 (2006) 1700 67 74 116 389 1110 2410 2710 4950 5190
2020-06-21 23:45 15.83 4920 6630 (2008) 56 (2006) 1670 68 76 187 321 1110 2370 2660 4940 5160
2020-06-21 22:45 15.74 4850 6630 (2008) 56 (2006) 1670 68 76 187 321 1110 2370 2660 4940 5160
2020-06-21 21:45 15.44 4620 6630 (2008) 56 (2006) 1670 68 76 187 321 1110 2370 2660 4940 5160
2020-06-21 20:45 14.98 4280 6630 (2008) 56 (2006) 1670 68 76 187 321 1110 2370 2660 4940 5160
2020-06-21 19:45 14.29 3780 6630 (2008) 56 (2006) 1670 68 76 187 321 1110 2370 2660 4940 5160
2020-06-21 18:45 13.14 3020 6630 (2008) 56 (2006) 1670 68 76 187 321 1110 2370 2660 4940 5160
2020-06-21 17:45 10.60 1610 6630 (2008) 56 (2006) 1670 68 76 187 321 1110 2370 2660 4940 5160
2020-06-21 16:45 6.36 191 6630 (2008) 56 (2006) 1670 68 76 187 321 1110 2370 2660 4940 5160
2020-06-21 15:45 6.22 161 6630 (2008) 56 (2006) 1670 68 76 187 321 1110 2370 2660 4940 5160
2020-06-21 14:45 6.31 180 6630 (2008) 56 (2006) 1670 68 76 187 321 1110 2370 2660 4940 5160
2020-06-21 13:45 6.42 205 6630 (2008) 56 (2006) 1670 68 76 187 321 1110 2370 2660 4940 5160
2020-06-21 12:45 6.57 240 6630 (2008) 56 (2006) 1670 68 76 187 321 1110 2370 2660 4940 5160
2020-06-21 11:45 6.77 290 6630 (2008) 56 (2006) 1670 68 76 187 321 1110 2370 2660 4940 5160
2020-06-21 10:45 7.02 353 6630 (2008) 56 (2006) 1670 68 76 187 321 1110 2370 2660 4940 5160
2020-06-21 09:45 7.34 434 6630 (2008) 56 (2006) 1670 68 76 187 321 1110 2370 2660 4940 5160
2020-06-21 08:45 7.73 542 6630 (2008) 56 (2006) 1670 68 76 187 321 1110 2370 2660 4940 5160
2020-06-21 07:45 8.21 687 6630 (2008) 56 (2006) 1670 68 76 187 321 1110 2370 2660 4940 5160
2020-06-21 06:45 8.81 888 6630 (2008) 56 (2006) 1670 68 76 187 321 1110 2370 2660 4940 5160
2020-06-21 05:45 9.51 1150 6630 (2008) 56 (2006) 1670 68 76 187 321 1110 2370 2660 4940 5160
2020-06-21 04:45 10.33 1490 6630 (2008) 56 (2006) 1670 68 76 187 321 1110 2370 2660 4940 5160
2020-06-21 03:45 11.29 1950 6630 (2008) 56 (2006) 1670 68 76 187 321 1110 2370 2660 4940 5160
2020-06-21 02:45 12.40 2570 6630 (2008) 56 (2006) 1670 68 76 187 321 1110 2370 2660 4940 5160
2020-06-21 01:45 13.59 3310 6630 (2008) 56 (2006) 1670 68 76 187 321 1110 2370 2660 4940 5160
2020-06-21 00:45 14.83 4170 6630 (2008) 56 (2006) 1670 68 76 187 321 1110 2370 2660 4940 5160
2020-06-20 23:45 15.85 4940 7040 (2008) 54 (1976) 1690 61 71 92 131 972 2350 2640 4900 5820
2020-06-20 22:45 15.77 4880 7040 (2008) 54 (1976) 1690 61 71 92 131 972 2350 2640 4900 5820
2020-06-20 21:45 15.47 4650 7040 (2008) 54 (1976) 1690 61 71 92 131 972 2350 2640 4900 5820
2020-06-20 20:45 15.02 4310 7040 (2008) 54 (1976) 1690 61 71 92 131 972 2350 2640 4900 5820
2020-06-20 19:45 14.33 3810 7040 (2008) 54 (1976) 1690 61 71 92 131 972 2350 2640 4900 5820
2020-06-20 18:45 13.22 3070 7040 (2008) 54 (1976) 1690 61 71 92 131 972 2350 2640 4900 5820
2020-06-20 17:45 11.22 1910 7040 (2008) 54 (1976) 1690 61 71 92 131 972 2350 2640 4900 5820
2020-06-20 16:45 6.79 295 7040 (2008) 54 (1976) 1690 61 71 92 131 972 2350 2640 4900 5820
2020-06-20 15:45 6.57 240 7040 (2008) 54 (1976) 1690 61 71 92 131 972 2350 2640 4900 5820
2020-06-20 14:45 6.66 261 7040 (2008) 54 (1976) 1690 61 71 92 131 972 2350 2640 4900 5820
2020-06-20 13:45 6.76 287 7040 (2008) 54 (1976) 1690 61 71 92 131 972 2350 2640 4900 5820
2020-06-20 12:45 6.90 324 7040 (2008) 54 (1976) 1690 61 71 92 131 972 2350 2640 4900 5820
2020-06-20 11:45 7.10 373 7040 (2008) 54 (1976) 1690 61 71 92 131 972 2350 2640 4900 5820
2020-06-20 10:45 7.30 424 7040 (2008) 54 (1976) 1690 61 71 92 131 972 2350 2640 4900 5820
2020-06-20 09:45 7.59 502 7040 (2008) 54 (1976) 1690 61 71 92 131 972 2350 2640 4900 5820
2020-06-20 08:45 7.97 613 7040 (2008) 54 (1976) 1690 61 71 92 131 972 2350 2640 4900 5820
2020-06-20 07:45 8.47 772 7040 (2008) 54 (1976) 1690 61 71 92 131 972 2350 2640 4900 5820
2020-06-20 06:45 9.06 978 7040 (2008) 54 (1976) 1690 61 71 92 131 972 2350 2640 4900 5820
2020-06-20 05:45 9.79 1260 7040 (2008) 54 (1976) 1690 61 71 92 131 972 2350 2640 4900 5820
2020-06-20 04:45 10.66 1640 7040 (2008) 54 (1976) 1690 61 71 92 131 972 2350 2640 4900 5820
2020-06-20 03:45 11.66 2150 7040 (2008) 54 (1976) 1690 61 71 92 131 972 2350 2640 4900 5820
2020-06-20 02:45 12.80 2810 7040 (2008) 54 (1976) 1690 61 71 92 131 972 2350 2640 4900 5820
2020-06-20 01:45 14.02 3600 7040 (2008) 54 (1976) 1690 61 71 92 131 972 2350 2640 4900 5820
2020-06-20 00:45 15.34 4550 7040 (2008) 54 (1976) 1690 61 71 92 131 972 2350 2640 4900 5820
2020-06-19 23:45 16.46 5430 6520 (2008) 58 (2006) 1510 68 75 105 126 1190 2100 2430 4810 5140
2020-06-19 22:45 16.53 5480 6520 (2008) 58 (2006) 1510 68 75 105 126 1190 2100 2430 4810 5140
2020-06-19 21:45 16.49 5450 6520 (2008) 58 (2006) 1510 68 75 105 126 1190 2100 2430 4810 5140
2020-06-19 20:45 16.46 5430 6520 (2008) 58 (2006) 1510 68 75 105 126 1190 2100 2430 4810 5140
2020-06-19 19:45 16.37 5350 6520 (2008) 58 (2006) 1510 68 75 105 126 1190 2100 2430 4810 5140
2020-06-19 18:45 16.29 5290 6520 (2008) 58 (2006) 1510 68 75 105 126 1190 2100 2430 4810 5140
2020-06-19 17:45 16.16 5180 6520 (2008) 58 (2006) 1510 68 75 105 126 1190 2100 2430 4810 5140
2020-06-19 16:45 16.01 5060 6520 (2008) 58 (2006) 1510 68 75 105 126 1190 2100 2430 4810 5140
2020-06-19 15:45 15.79 4890 6520 (2008) 58 (2006) 1510 68 75 105 126 1190 2100 2430 4810 5140
2020-06-19 14:45 15.51 4680 6520 (2008) 58 (2006) 1510 68 75 105 126 1190 2100 2430 4810 5140
2020-06-19 13:45 15.06 4340 6520 (2008) 58 (2006) 1510 68 75 105 126 1190 2100 2430 4810 5140
2020-06-19 12:45 14.43 3880 6520 (2008) 58 (2006) 1510 68 75 105 126 1190 2100 2430 4810 5140
2020-06-19 11:45 13.42 3200 6520 (2008) 58 (2006) 1510 68 75 105 126 1190 2100 2430 4810 5140
2020-06-19 10:45 11.70 2170 6520 (2008) 58 (2006) 1510 68 75 105 126 1190 2100 2430 4810 5140
2020-06-19 09:45 8.73 860 6520 (2008) 58 (2006) 1510 68 75 105 126 1190 2100 2430 4810 5140
2020-06-19 08:45 8.58 809 6520 (2008) 58 (2006) 1510 68 75 105 126 1190 2100 2430 4810 5140
2020-06-19 07:45 9.24 1040 6520 (2008) 58 (2006) 1510 68 75 105 126 1190 2100 2430 4810 5140
2020-06-19 06:45 10.04 1370 6520 (2008) 58 (2006) 1510 68 75 105 126 1190 2100 2430 4810 5140
2020-06-19 05:45 10.91 1760 6520 (2008) 58 (2006) 1510 68 75 105 126 1190 2100 2430 4810 5140
2020-06-19 04:45 11.96 2310 6520 (2008) 58 (2006) 1510 68 75 105 126 1190 2100 2430 4810 5140
2020-06-19 03:45 13.15 3020 6520 (2008) 58 (2006) 1510 68 75 105 126 1190 2100 2430 4810 5140
2020-06-19 02:45 14.43 3880 6520 (2008) 58 (2006) 1510 68 75 105 126 1190 2100 2430 4810 5140
2020-06-19 01:45 15.79 4890 6520 (2008) 58 (2006) 1510 68 75 105 126 1190 2100 2430 4810 5140
2020-06-19 00:45 17.01 5880 6520 (2008) 58 (2006) 1510 68 75 105 126 1190 2100 2430 4810 5140
2020-06-18 23:45 17.20 6040 6540 (2008) 66 (1977) 1550 67 80 129 191 978 2430 2540 4690 4980
2020-06-18 22:45 17.21 6050 6540 (2008) 66 (1977) 1550 67 80 129 191 978 2430 2540 4690 4980
2020-06-18 21:45 17.25 6090 6540 (2008) 66 (1977) 1550 67 80 129 191 978 2430 2540 4690 4980
2020-06-18 20:45 17.26 6100 6540 (2008) 66 (1977) 1550 67 80 129 191 978 2430 2540 4690 4980
2020-06-18 19:45 17.28 6110 6540 (2008) 66 (1977) 1550 67 80 129 191 978 2430 2540 4690 4980
2020-06-18 18:45 17.31 6140 6540 (2008) 66 (1977) 1550 67 80 129 191 978 2430 2540 4690 4980
2020-06-18 17:45 17.24 6080 6540 (2008) 66 (1977) 1550 67 80 129 191 978 2430 2540 4690 4980
2020-06-18 16:45 17.11 5970 6540 (2008) 66 (1977) 1550 67 80 129 191 978 2430 2540 4690 4980
2020-06-18 15:45 16.89 5780 6540 (2008) 66 (1977) 1550 67 80 129 191 978 2430 2540 4690 4980
2020-06-18 14:45 16.62 5560 6540 (2008) 66 (1977) 1550 67 80 129 191 978 2430 2540 4690 4980
2020-06-18 13:45 16.25 5260 6540 (2008) 66 (1977) 1550 67 80 129 191 978 2430 2540 4690 4980
2020-06-18 12:45 15.76 4870 6540 (2008) 66 (1977) 1550 67 80 129 191 978 2430 2540 4690 4980
2020-06-18 11:45 15.16 4410 6540 (2008) 66 (1977) 1550 67 80 129 191 978 2430 2540 4690 4980
2020-06-18 10:45 14.53 3950 6540 (2008) 66 (1977) 1550 67 80 129 191 978 2430 2540 4690 4980
2020-06-18 09:45 13.62 3330 6540 (2008) 66 (1977) 1550 67 80 129 191 978 2430 2540 4690 4980
2020-06-18 08:45 12.14 2420 6540 (2008) 66 (1977) 1550 67 80 129 191 978 2430 2540 4690 4980
2020-06-18 07:45 9.88 1300 6540 (2008) 66 (1977) 1550 67 80 129 191 978 2430 2540 4690 4980
2020-06-18 06:45 9.62 1190 6540 (2008) 66 (1977) 1550 67 80 129 191 978 2430 2540 4690 4980
2020-06-18 05:45 10.46 1550 6540 (2008) 66 (1977) 1550 67 80 129 191 978 2430 2540 4690 4980
2020-06-18 04:45 11.45 2030 6540 (2008) 66 (1977) 1550 67 80 129 191 978 2430 2540 4690 4980
2020-06-18 03:45 12.57 2670 6540 (2008) 66 (1977) 1550 67 80 129 191 978 2430 2540 4690 4980
2020-06-18 02:45 13.79 3440 6540 (2008) 66 (1977) 1550 67 80 129 191 978 2430 2540 4690 4980
2020-06-18 01:45 15.07 4340 6540 (2008) 66 (1977) 1550 67 80 129 191 978 2430 2540 4690 4980
2020-06-18 00:45 16.25 5260 6540 (2008) 66 (1977) 1550 67 80 129 191 978 2430 2540 4690 4980
2020-06-17 23:45 16.50 5460 6340 (2008) 65 (2006) 1530 66 82 158 242 1080 2000 2590 4670 4900
2020-06-17 22:45 16.67 5600 6340 (2008) 65 (2006) 1530 66 82 158 242 1080 2000 2590 4670 4900
2020-06-17 21:45 16.88 5770 6340 (2008) 65 (2006) 1530 66 82 158 242 1080 2000 2590 4670 4900
2020-06-17 20:45 17.09 5950 6340 (2008) 65 (2006) 1530 66 82 158 242 1080 2000 2590 4670 4900
2020-06-17 19:45 17.19 6040 6340 (2008) 65 (2006) 1530 66 82 158 242 1080 2000 2590 4670 4900
2020-06-17 18:45 17.21 6050 6340 (2008) 65 (2006) 1530 66 82 158 242 1080 2000 2590 4670 4900
2020-06-17 17:45 17.03 5900 6340 (2008) 65 (2006) 1530 66 82 158 242 1080 2000 2590 4670 4900
2020-06-17 16:45 16.79 5700 6340 (2008) 65 (2006) 1530 66 82 158 242 1080 2000 2590 4670 4900
2020-06-17 15:45 16.50 5460 6340 (2008) 65 (2006) 1530 66 82 158 242 1080 2000 2590 4670 4900
2020-06-17 14:45 16.17 5190 6340 (2008) 65 (2006) 1530 66 82 158 242 1080 2000 2590 4670 4900
2020-06-17 13:45 16.02 5070 6340 (2008) 65 (2006) 1530 66 82 158 242 1080 2000 2590 4670 4900
2020-06-17 12:45 15.88 4960 6340 (2008) 65 (2006) 1530 66 82 158 242 1080 2000 2590 4670 4900
2020-06-17 11:45 15.85 4940 6340 (2008) 65 (2006) 1530 66 82 158 242 1080 2000 2590 4670 4900
2020-06-17 10:45 15.86 4950 6340 (2008) 65 (2006) 1530 66 82 158 242 1080 2000 2590 4670 4900
2020-06-17 09:45 15.88 4960 6340 (2008) 65 (2006) 1530 66 82 158 242 1080 2000 2590 4670 4900
2020-06-17 08:45 15.89 4970 6340 (2008) 65 (2006) 1530 66 82 158 242 1080 2000 2590 4670 4900
2020-06-17 07:45 15.91 4990 6340 (2008) 65 (2006) 1530 66 82 158 242 1080 2000 2590 4670 4900
2020-06-17 06:45 15.95 5020 6340 (2008) 65 (2006) 1530 66 82 158 242 1080 2000 2590 4670 4900
2020-06-17 05:45 15.97 5030 6340 (2008) 65 (2006) 1530 66 82 158 242 1080 2000 2590 4670 4900
2020-06-17 04:45 16.01 5060 6340 (2008) 65 (2006) 1530 66 82 158 242 1080 2000 2590 4670 4900
2020-06-17 03:45 16.07 5110 6340 (2008) 65 (2006) 1530 66 82 158 242 1080 2000 2590 4670 4900
2020-06-17 02:45 16.12 5150 6340 (2008) 65 (2006) 1530 66 82 158 242 1080 2000 2590 4670 4900
2020-06-17 01:45 16.20 5220 6340 (2008) 65 (2006) 1530 66 82 158 242 1080 2000 2590 4670 4900
2020-06-17 00:45 16.32 5310 6340 (2008) 65 (2006) 1530 66 82 158 242 1080 2000 2590 4670 4900
2020-06-16 23:45 16.46 5430 5080 (2008) 57 (2006) 1540 68 80 109 169 814 2900 3130 4740 5030
2020-06-16 22:45 16.64 5570 5080 (2008) 57 (2006) 1540 68 80 109 169 814 2900 3130 4740 5030
2020-06-16 21:45 16.85 5750 5080 (2008) 57 (2006) 1540 68 80 109 169 814 2900 3130 4740 5030
2020-06-16 20:45 17.03 5900 5080 (2008) 57 (2006) 1540 68 80 109 169 814 2900 3130 4740 5030
2020-06-16 19:45 17.12 5980 5080 (2008) 57 (2006) 1540 68 80 109 169 814 2900 3130 4740 5030
2020-06-16 18:45 17.14 5990 5080 (2008) 57 (2006) 1540 68 80 109 169 814 2900 3130 4740 5030
2020-06-16 17:45 16.97 5850 5080 (2008) 57 (2006) 1540 68 80 109 169 814 2900 3130 4740 5030
2020-06-16 16:45 16.74 5660 5080 (2008) 57 (2006) 1540 68 80 109 169 814 2900 3130 4740 5030
2020-06-16 15:45 16.44 5410 5080 (2008) 57 (2006) 1540 68 80 109 169 814 2900 3130 4740 5030
2020-06-16 14:45 16.16 5180 5080 (2008) 57 (2006) 1540 68 80 109 169 814 2900 3130 4740 5030
2020-06-16 13:45 15.97 5030 5080 (2008) 57 (2006) 1540 68 80 109 169 814 2900 3130 4740 5030
2020-06-16 12:45 15.87 4950 5080 (2008) 57 (2006) 1540 68 80 109 169 814 2900 3130 4740 5030
2020-06-16 11:45 15.87 4950 5080 (2008) 57 (2006) 1540 68 80 109 169 814 2900 3130 4740 5030
2020-06-16 10:45 15.86 4950 5080 (2008) 57 (2006) 1540 68 80 109 169 814 2900 3130 4740 5030
2020-06-16 09:45 15.91 4990 5080 (2008) 57 (2006) 1540 68 80 109 169 814 2900 3130 4740 5030
2020-06-16 08:45 15.94 5010 5080 (2008) 57 (2006) 1540 68 80 109 169 814 2900 3130 4740 5030
2020-06-16 07:45 15.97 5030 5080 (2008) 57 (2006) 1540 68 80 109 169 814 2900 3130 4740 5030
2020-06-16 06:45 16.00 5060 5080 (2008) 57 (2006) 1540 68 80 109 169 814 2900 3130 4740 5030
2020-06-16 05:45 16.07 5110 5080 (2008) 57 (2006) 1540 68 80 109 169 814 2900 3130 4740 5030
2020-06-16 04:45 16.14 5170 5080 (2008) 57 (2006) 1540 68 80 109 169 814 2900 3130 4740 5030
2020-06-16 03:45 16.22 5230 5080 (2008) 57 (2006) 1540 68 80 109 169 814 2900 3130 4740 5030
2020-06-16 02:45 16.35 5340 5080 (2008) 57 (2006) 1540 68 80 109 169 814 2900 3130 4740 5030
2020-06-16 01:45 16.46 5430 5080 (2008) 57 (2006) 1540 68 80 109 169 814 2900 3130 4740 5030
2020-06-16 00:45 16.59 5530 5080 (2008) 57 (2006) 1540 68 80 109 169 814 2900 3130 4740 5030
2020-06-15 23:45 16.60 5540 5320 (1990) 55 (1975) 1490 60 71 92 136 922 2520 3440 4790 4980
2020-06-15 22:45 16.60 5540 5320 (1990) 55 (1975) 1490 60 71 92 136 922 2520 3440 4790 4980
2020-06-15 21:45 16.61 5550 5320 (1990) 55 (1975) 1490 60 71 92 136 922 2520 3440 4790 4980
2020-06-15 20:45 16.58 5520 5320 (1990) 55 (1975) 1490 60 71 92 136 922 2520 3440 4790 4980
2020-06-15 19:45 16.57 5520 5320 (1990) 55 (1975) 1490 60 71 92 136 922 2520 3440 4790 4980
2020-06-15 18:45 16.53 5480 5320 (1990) 55 (1975) 1490 60 71 92 136 922 2520 3440 4790 4980
2020-06-15 17:45 16.50 5460 5320 (1990) 55 (1975) 1490 60 71 92 136 922 2520 3440 4790 4980
2020-06-15 16:45 16.47 5430 5320 (1990) 55 (1975) 1490 60 71 92 136 922 2520 3440 4790 4980
2020-06-15 15:45 16.41 5390 5320 (1990) 55 (1975) 1490 60 71 92 136 922 2520 3440 4790 4980
2020-06-15 14:45 16.35 5340 5320 (1990) 55 (1975) 1490 60 71 92 136 922 2520 3440 4790 4980
2020-06-15 13:45 16.29 5290 5320 (1990) 55 (1975) 1490 60 71 92 136 922 2520 3440 4790 4980
2020-06-15 12:45 16.18 5200 5320 (1990) 55 (1975) 1490 60 71 92 136 922 2520 3440 4790 4980
2020-06-15 11:45 16.06 5100 5320 (1990) 55 (1975) 1490 60 71 92 136 922 2520 3440 4790 4980
2020-06-15 10:45 15.93 5000 5320 (1990) 55 (1975) 1490 60 71 92 136 922 2520 3440 4790 4980
2020-06-15 09:45 15.90 4980 5320 (1990) 55 (1975) 1490 60 71 92 136 922 2520 3440 4790 4980
2020-06-15 08:45 15.92 4990 5320 (1990) 55 (1975) 1490 60 71 92 136 922 2520 3440 4790 4980
2020-06-15 07:45 15.97 5030 5320 (1990) 55 (1975) 1490 60 71 92 136 922 2520 3440 4790 4980
2020-06-15 06:45 16.01 5060 5320 (1990) 55 (1975) 1490 60 71 92 136 922 2520 3440 4790 4980
2020-06-15 05:45 16.07 5110 5320 (1990) 55 (1975) 1490 60 71 92 136 922 2520 3440 4790 4980
2020-06-15 04:45 16.13 5160 5320 (1990) 55 (1975) 1490 60 71 92 136 922 2520 3440 4790 4980
2020-06-15 03:45 16.22 5230 5320 (1990) 55 (1975) 1490 60 71 92 136 922 2520 3440 4790 4980
2020-06-15 02:45 16.34 5330 5320 (1990) 55 (1975) 1490 60 71 92 136 922 2520 3440 4790 4980
2020-06-15 01:45 16.47 5430 5320 (1990) 55 (1975) 1490 60 71 92 136 922 2520 3440 4790 4980
2020-06-15 00:45 16.59 5530 5320 (1990) 55 (1975) 1490 60 71 92 136 922 2520 3440 4790 4980
2020-06-14 23:45 16.61 5550 5850 (2017) 56 (1975) 1720 61 70 90 107 1060 3360 3640 4810 5130
2020-06-14 22:45 16.61 5550 5850 (2017) 56 (1975) 1720 61 70 90 107 1060 3360 3640 4810 5130
2020-06-14 21:45 16.59 5530 5850 (2017) 56 (1975) 1720 61 70 90 107 1060 3360 3640 4810 5130
2020-06-14 20:45 16.58 5520 5850 (2017) 56 (1975) 1720 61 70 90 107 1060 3360 3640 4810 5130
2020-06-14 19:45 16.57 5520 5850 (2017) 56 (1975) 1720 61 70 90 107 1060 3360 3640 4810 5130
2020-06-14 18:45 16.56 5510 5850 (2017) 56 (1975) 1720 61 70 90 107 1060 3360 3640 4810 5130
2020-06-14 17:45 16.53 5480 5850 (2017) 56 (1975) 1720 61 70 90 107 1060 3360 3640 4810 5130
2020-06-14 16:45 16.49 5450 5850 (2017) 56 (1975) 1720 61 70 90 107 1060 3360 3640 4810 5130
2020-06-14 15:45 16.45 5420 5850 (2017) 56 (1975) 1720 61 70 90 107 1060 3360 3640 4810 5130
2020-06-14 14:45 16.39 5370 5850 (2017) 56 (1975) 1720 61 70 90 107 1060 3360 3640 4810 5130
2020-06-14 13:45 16.33 5320 5850 (2017) 56 (1975) 1720 61 70 90 107 1060 3360 3640 4810 5130
2020-06-14 12:45 16.26 5260 5850 (2017) 56 (1975) 1720 61 70 90 107 1060 3360 3640 4810 5130
2020-06-14 11:45 16.15 5180 5850 (2017) 56 (1975) 1720 61 70 90 107 1060 3360 3640 4810 5130
2020-06-14 10:45 16.02 5070 5850 (2017) 56 (1975) 1720 61 70 90 107 1060 3360 3640 4810 5130
2020-06-14 09:45 15.92 4990 5850 (2017) 56 (1975) 1720 61 70 90 107 1060 3360 3640 4810 5130
2020-06-14 08:45 15.93 5000 5850 (2017) 56 (1975) 1720 61 70 90 107 1060 3360 3640 4810 5130
2020-06-14 07:45 15.96 5030 5850 (2017) 56 (1975) 1720 61 70 90 107 1060 3360 3640 4810 5130
2020-06-14 06:45 16.02 5070 5850 (2017) 56 (1975) 1720 61 70 90 107 1060 3360 3640 4810 5130
2020-06-14 05:45 16.12 5150 5850 (2017) 56 (1975) 1720 61 70 90 107 1060 3360 3640 4810 5130
2020-06-14 04:45 16.17 5190 5850 (2017) 56 (1975) 1720 61 70 90 107 1060 3360 3640 4810 5130
2020-06-14 03:45 16.25 5260 5850 (2017) 56 (1975) 1720 61 70 90 107 1060 3360 3640 4810 5130
2020-06-14 02:45 16.37 5350 5850 (2017) 56 (1975) 1720 61 70 90 107 1060 3360 3640 4810 5130
2020-06-14 01:45 16.50 5460 5850 (2017) 56 (1975) 1720 61 70 90 107 1060 3360 3640 4810 5130
2020-06-14 00:45 16.62 5560 5850 (2017) 56 (1975) 1720 61 70 90 107 1060 3360 3640 4810 5130
2020-06-13 23:45 16.61 5550 4830 (1990) 54 (1975) 1640 61 70 89 101 1260 3380 3510 4490 4720
2020-06-13 22:45 16.61 5550 4830 (1990) 54 (1975) 1640 61 70 89 101 1260 3380 3510 4490 4720
2020-06-13 21:45 16.60 5540 4830 (1990) 54 (1975) 1640 61 70 89 101 1260 3380 3510 4490 4720
2020-06-13 20:45 16.58 5520 4830 (1990) 54 (1975) 1640 61 70 89 101 1260 3380 3510 4490 4720
2020-06-13 19:45 16.54 5490 4830 (1990) 54 (1975) 1640 61 70 89 101 1260 3380 3510 4490 4720
2020-06-13 18:45 16.52 5480 4830 (1990) 54 (1975) 1640 61 70 89 101 1260 3380 3510 4490 4720
2020-06-13 17:45 16.49 5450 4830 (1990) 54 (1975) 1640 61 70 89 101 1260 3380 3510 4490 4720
2020-06-13 16:45 16.43 5400 4830 (1990) 54 (1975) 1640 61 70 89 101 1260 3380 3510 4490 4720
2020-06-13 15:45 16.36 5350 4830 (1990) 54 (1975) 1640 61 70 89 101 1260 3380 3510 4490 4720
2020-06-13 14:45 16.29 5290 4830 (1990) 54 (1975) 1640 61 70 89 101 1260 3380 3510 4490 4720
2020-06-13 13:45 16.17 5190 4830 (1990) 54 (1975) 1640 61 70 89 101 1260 3380 3510 4490 4720
2020-06-13 12:45 16.04 5090 4830 (1990) 54 (1975) 1640 61 70 89 101 1260 3380 3510 4490 4720
2020-06-13 11:45 15.92 4990 4830 (1990) 54 (1975) 1640 61 70 89 101 1260 3380 3510 4490 4720
2020-06-13 10:45 15.87 4950 4830 (1990) 54 (1975) 1640 61 70 89 101 1260 3380 3510 4490 4720
2020-06-13 09:45 15.89 4970 4830 (1990) 54 (1975) 1640 61 70 89 101 1260 3380 3510 4490 4720
2020-06-13 08:45 15.91 4990 4830 (1990) 54 (1975) 1640 61 70 89 101 1260 3380 3510 4490 4720
2020-06-13 07:45 15.94 5010 4830 (1990) 54 (1975) 1640 61 70 89 101 1260 3380 3510 4490 4720
2020-06-13 06:45 16.00 5060 4830 (1990) 54 (1975) 1640 61 70 89 101 1260 3380 3510 4490 4720
2020-06-13 05:45 16.06 5100 4830 (1990) 54 (1975) 1640 61 70 89 101 1260 3380 3510 4490 4720
2020-06-13 04:45 16.14 5170 4830 (1990) 54 (1975) 1640 61 70 89 101 1260 3380 3510 4490 4720
2020-06-13 03:45 16.26 5260 4830 (1990) 54 (1975) 1640 61 70 89 101 1260 3380 3510 4490 4720
2020-06-13 02:45 16.39 5370 4830 (1990) 54 (1975) 1640 61 70 89 101 1260 3380 3510 4490 4720
2020-06-13 01:45 16.54 5490 4830 (1990) 54 (1975) 1640 61 70 89 101 1260 3380 3510 4490 4720
2020-06-13 00:45 16.69 5620 4830 (1990) 54 (1975) 1640 61 70 89 101 1260 3380 3510 4490 4720
2020-06-12 23:45 16.73 5650 4940 (1990) 53 (1975) 1500 61 70 88 127 882 2870 3000 3840 4620
2020-06-12 22:45 16.76 5670 4940 (1990) 53 (1975) 1500 61 70 88 127 882 2870 3000 3840 4620
2020-06-12 21:45 16.83 5730 4940 (1990) 53 (1975) 1500 61 70 88 127 882 2870 3000 3840 4620
2020-06-12 20:45 16.89 5780 4940 (1990) 53 (1975) 1500 61 70 88 127 882 2870 3000 3840 4620
2020-06-12 19:45 16.96 5840 4940 (1990) 53 (1975) 1500 61 70 88 127 882 2870 3000 3840 4620
2020-06-12 18:45 16.98 5860 4940 (1990) 53 (1975) 1500 61 70 88 127 882 2870 3000 3840 4620
2020-06-12 17:45 16.80 5710 4940 (1990) 53 (1975) 1500 61 70 88 127 882 2870 3000 3840 4620
2020-06-12 16:45 16.53 5480 4940 (1990) 53 (1975) 1500 61 70 88 127 882 2870 3000 3840 4620
2020-06-12 15:45 16.18 5200 4940 (1990) 53 (1975) 1500 61 70 88 127 882 2870 3000 3840 4620
2020-06-12 14:45 15.85 4940 4940 (1990) 53 (1975) 1500 61 70 88 127 882 2870 3000 3840 4620
2020-06-12 13:45 15.85 4940 4940 (1990) 53 (1975) 1500 61 70 88 127 882 2870 3000 3840 4620
2020-06-12 12:45 15.84 4930 4940 (1990) 53 (1975) 1500 61 70 88 127 882 2870 3000 3840 4620
2020-06-12 11:45 15.85 4940 4940 (1990) 53 (1975) 1500 61 70 88 127 882 2870 3000 3840 4620
2020-06-12 10:45 15.82 4920 4940 (1990) 53 (1975) 1500 61 70 88 127 882 2870 3000 3840 4620
2020-06-12 09:45 15.83 4920 4940 (1990) 53 (1975) 1500 61 70 88 127 882 2870 3000 3840 4620
2020-06-12 08:45 15.83 4920 4940 (1990) 53 (1975) 1500 61 70 88 127 882 2870 3000 3840 4620
2020-06-12 07:45 15.83 4920 4940 (1990) 53 (1975) 1500 61 70 88 127 882 2870 3000 3840 4620
2020-06-12 06:45 15.86 4950 4940 (1990) 53 (1975) 1500 61 70 88 127 882 2870 3000 3840 4620
2020-06-12 05:45 15.88 4960 4940 (1990) 53 (1975) 1500 61 70 88 127 882 2870 3000 3840 4620
2020-06-12 04:45 15.92 4990 4940 (1990) 53 (1975) 1500 61 70 88 127 882 2870 3000 3840 4620
2020-06-12 03:45 15.93 5000 4940 (1990) 53 (1975) 1500 61 70 88 127 882 2870 3000 3840 4620
2020-06-12 02:45 15.99 5050 4940 (1990) 53 (1975) 1500 61 70 88 127 882 2870 3000 3840 4620
2020-06-12 01:45 16.07 5110 4940 (1990) 53 (1975) 1500 61 70 88 127 882 2870 3000 3840 4620
2020-06-12 00:45 16.19 5210 4940 (1990) 53 (1975) 1500 61 70 88 127 882 2870 3000 3840 4620
2020-06-11 23:45 16.24 5250 4840 (1990) 55 (1975) 1560 62 72 89 149 1120 2790 3370 3700 4660
2020-06-11 22:45 16.37 5350 4840 (1990) 55 (1975) 1560 62 72 89 149 1120 2790 3370 3700 4660
2020-06-11 21:45 16.56 5510 4840 (1990) 55 (1975) 1560 62 72 89 149 1120 2790 3370 3700 4660
2020-06-11 20:45 16.76 5670 4840 (1990) 55 (1975) 1560 62 72 89 149 1120 2790 3370 3700 4660
2020-06-11 19:45 16.93 5820 4840 (1990) 55 (1975) 1560 62 72 89 149 1120 2790 3370 3700 4660
2020-06-11 18:45 16.97 5850 4840 (1990) 55 (1975) 1560 62 72 89 149 1120 2790 3370 3700 4660
2020-06-11 17:45 16.76 5670 4840 (1990) 55 (1975) 1560 62 72 89 149 1120 2790 3370 3700 4660
2020-06-11 16:45 16.49 5450 4840 (1990) 55 (1975) 1560 62 72 89 149 1120 2790 3370 3700 4660
2020-06-11 15:45 16.17 5190 4840 (1990) 55 (1975) 1560 62 72 89 149 1120 2790 3370 3700 4660
2020-06-11 14:45 15.85 4940 4840 (1990) 55 (1975) 1560 62 72 89 149 1120 2790 3370 3700 4660
2020-06-11 13:45 15.83 4920 4840 (1990) 55 (1975) 1560 62 72 89 149 1120 2790 3370 3700 4660
2020-06-11 12:45 15.83 4920 4840 (1990) 55 (1975) 1560 62 72 89 149 1120 2790 3370 3700 4660
2020-06-11 11:45 15.85 4940 4840 (1990) 55 (1975) 1560 62 72 89 149 1120 2790 3370 3700 4660
2020-06-11 10:45 15.89 4970 4840 (1990) 55 (1975) 1560 62 72 89 149 1120 2790 3370 3700 4660
2020-06-11 09:45 15.89 4970 4840 (1990) 55 (1975) 1560 62 72 89 149 1120 2790 3370 3700 4660
2020-06-11 08:45 15.90 4980 4840 (1990) 55 (1975) 1560 62 72 89 149 1120 2790 3370 3700 4660
2020-06-11 07:45 15.87 4950 4840 (1990) 55 (1975) 1560 62 72 89 149 1120 2790 3370 3700 4660
2020-06-11 06:45 15.86 4950 4840 (1990) 55 (1975) 1560 62 72 89 149 1120 2790 3370 3700 4660
2020-06-11 05:45 15.92 4990 4840 (1990) 55 (1975) 1560 62 72 89 149 1120 2790 3370 3700 4660
2020-06-11 04:45 15.88 4960 4840 (1990) 55 (1975) 1560 62 72 89 149 1120 2790 3370 3700 4660
2020-06-11 03:45 15.85 4940 4840 (1990) 55 (1975) 1560 62 72 89 149 1120 2790 3370 3700 4660
2020-06-11 02:45 15.90 4980 4840 (1990) 55 (1975) 1560 62 72 89 149 1120 2790 3370 3700 4660
2020-06-11 01:45 15.90 4980 4840 (1990) 55 (1975) 1560 62 72 89 149 1120 2790 3370 3700 4660
2020-06-11 00:45 15.88 4960 4840 (1990) 55 (1975) 1560 62 72 89 149 1120 2790 3370 3700 4660
2020-06-10 23:45 15.91 4990 6970 (1995) 57 (1975) 1520 63 73 86 94 1040 2200 2580 4140 4770
2020-06-10 22:45 15.89 4970 6970 (1995) 57 (1975) 1520 63 73 86 94 1040 2200 2580 4140 4770
2020-06-10 21:45 15.89 4970 6970 (1995) 57 (1975) 1520 63 73 86 94 1040 2200 2580 4140 4770
2020-06-10 20:45 15.86 4950 6970 (1995) 57 (1975) 1520 63 73 86 94 1040 2200 2580 4140 4770
2020-06-10 19:45 15.84 4930 6970 (1995) 57 (1975) 1520 63 73 86 94 1040 2200 2580 4140 4770
2020-06-10 18:45 15.86 4950 6970 (1995) 57 (1975) 1520 63 73 86 94 1040 2200 2580 4140 4770
2020-06-10 17:45 15.86 4950 6970 (1995) 57 (1975) 1520 63 73 86 94 1040 2200 2580 4140 4770
2020-06-10 16:45 15.87 4950 6970 (1995) 57 (1975) 1520 63 73 86 94 1040 2200 2580 4140 4770
2020-06-10 15:45 15.85 4940 6970 (1995) 57 (1975) 1520 63 73 86 94 1040 2200 2580 4140 4770
2020-06-10 14:45 15.83 4920 6970 (1995) 57 (1975) 1520 63 73 86 94 1040 2200 2580 4140 4770
2020-06-10 13:45 15.84 4930 6970 (1995) 57 (1975) 1520 63 73 86 94 1040 2200 2580 4140 4770
2020-06-10 12:45 15.84 4930 6970 (1995) 57 (1975) 1520 63 73 86 94 1040 2200 2580 4140 4770
2020-06-10 11:45 15.87 4950 6970 (1995) 57 (1975) 1520 63 73 86 94 1040 2200 2580 4140 4770
2020-06-10 10:45 15.87 4950 6970 (1995) 57 (1975) 1520 63 73 86 94 1040 2200 2580 4140 4770
2020-06-10 09:45 15.88 4960 6970 (1995) 57 (1975) 1520 63 73 86 94 1040 2200 2580 4140 4770
2020-06-10 08:45 15.90 4980 6970 (1995) 57 (1975) 1520 63 73 86 94 1040 2200 2580 4140 4770
2020-06-10 07:45 15.92 4990 6970 (1995) 57 (1975) 1520 63 73 86 94 1040 2200 2580 4140 4770
2020-06-10 06:45 15.95 5020 6970 (1995) 57 (1975) 1520 63 73 86 94 1040 2200 2580 4140 4770
2020-06-10 05:45 15.97 5030 6970 (1995) 57 (1975) 1520 63 73 86 94 1040 2200 2580 4140 4770
2020-06-10 04:45 16.01 5060 6970 (1995) 57 (1975) 1520 63 73 86 94 1040 2200 2580 4140 4770
2020-06-10 03:45 16.02 5070 6970 (1995) 57 (1975) 1520 63 73 86 94 1040 2200 2580 4140 4770
2020-06-10 02:45 16.04 5090 6970 (1995) 57 (1975) 1520 63 73 86 94 1040 2200 2580 4140 4770
2020-06-10 01:45 16.08 5120 6970 (1995) 57 (1975) 1520 63 73 86 94 1040 2200 2580 4140 4770
2020-06-10 00:45 16.07 5110 6970 (1995) 57 (1975) 1520 63 73 86 94 1040 2200 2580 4140 4770
2020-06-09 23:45 16.03 5080 6200 (2017) 62 (2006) 1490 67 79 94 127 625 2280 3540 4560 4790
2020-06-09 22:45 15.99 5050 6200 (2017) 62 (2006) 1490 67 79 94 127 625 2280 3540 4560 4790
2020-06-09 21:45 15.92 4990 6200 (2017) 62 (2006) 1490 67 79 94 127 625 2280 3540 4560 4790
2020-06-09 20:45 15.84 4930 6200 (2017) 62 (2006) 1490 67 79 94 127 625 2280 3540 4560 4790
2020-06-09 19:45 15.70 4820 6200 (2017) 62 (2006) 1490 67 79 94 127 625 2280 3540 4560 4790
2020-06-09 18:45 15.56 4710 6200 (2017) 62 (2006) 1490 67 79 94 127 625 2280 3540 4560 4790
2020-06-09 17:45 15.17 4420 6200 (2017) 62 (2006) 1490 67 79 94 127 625 2280 3540 4560 4790
2020-06-09 16:45 14.10 3650 6200 (2017) 62 (2006) 1490 67 79 94 127 625 2280 3540 4560 4790
2020-06-09 15:45 12.75 2780 6200 (2017) 62 (2006) 1490 67 79 94 127 625 2280 3540 4560 4790
2020-06-09 14:45 10.35 1500 6200 (2017) 62 (2006) 1490 67 79 94 127 625 2280 3540 4560 4790
2020-06-09 13:45 6.65 259 6200 (2017) 62 (2006) 1490 67 79 94 127 625 2280 3540 4560 4790
2020-06-09 12:45 6.72 276 6200 (2017) 62 (2006) 1490 67 79 94 127 625 2280 3540 4560 4790
2020-06-09 11:45 6.87 317 6200 (2017) 62 (2006) 1490 67 79 94 127 625 2280 3540 4560 4790
2020-06-09 10:45 7.02 353 6200 (2017) 62 (2006) 1490 67 79 94 127 625 2280 3540 4560 4790
2020-06-09 09:45 7.29 421 6200 (2017) 62 (2006) 1490 67 79 94 127 625 2280 3540 4560 4790
2020-06-09 08:45 7.59 502 6200 (2017) 62 (2006) 1490 67 79 94 127 625 2280 3540 4560 4790
2020-06-09 07:45 7.98 616 6200 (2017) 62 (2006) 1490 67 79 94 127 625 2280 3540 4560 4790
2020-06-09 06:45 8.53 792 6200 (2017) 62 (2006) 1490 67 79 94 127 625 2280 3540 4560 4790
2020-06-09 05:45 9.07 982 6200 (2017) 62 (2006) 1490 67 79 94 127 625 2280 3540 4560 4790
2020-06-09 04:45 9.79 1260 6200 (2017) 62 (2006) 1490 67 79 94 127 625 2280 3540 4560 4790
2020-06-09 03:45 10.58 1600 6200 (2017) 62 (2006) 1490 67 79 94 127 625 2280 3540 4560 4790
2020-06-09 02:45 11.54 2080 6200 (2017) 62 (2006) 1490 67 79 94 127 625 2280 3540 4560 4790
2020-06-09 01:45 12.65 2720 6200 (2017) 62 (2006) 1490 67 79 94 127 625 2280 3540 4560 4790
2020-06-09 00:45 13.86 3490 6200 (2017) 62 (2006) 1490 67 79 94 127 625 2280 3540 4560 4790
2020-06-08 23:45 15.07 4340 6200 (2017) 56 (2014) 1750 65 74 101 106 963 3570 3830 4650 5130
2020-06-08 22:45 16.20 5220 6200 (2017) 56 (2014) 1750 65 74 101 106 963 3570 3830 4650 5130
2020-06-08 21:45 16.33 5320 6200 (2017) 56 (2014) 1750 65 74 101 106 963 3570 3830 4650 5130
2020-06-08 20:45 16.55 5500 6200 (2017) 56 (2014) 1750 65 74 101 106 963 3570 3830 4650 5130
2020-06-08 19:45 16.63 5570 6200 (2017) 56 (2014) 1750 65 74 101 106 963 3570 3830 4650 5130
2020-06-08 18:45 16.61 5550 6200 (2017) 56 (2014) 1750 65 74 101 106 963 3570 3830 4650 5130
2020-06-08 17:45 16.60 5540 6200 (2017) 56 (2014) 1750 65 74 101 106 963 3570 3830 4650 5130
2020-06-08 16:45 16.63 5570 6200 (2017) 56 (2014) 1750 65 74 101 106 963 3570 3830 4650 5130
2020-06-08 15:45 16.61 5550 6200 (2017) 56 (2014) 1750 65 74 101 106 963 3570 3830 4650 5130
2020-06-08 14:45 16.66 5590 6200 (2017) 56 (2014) 1750 65 74 101 106 963 3570 3830 4650 5130
2020-06-08 13:45 16.62 5560 6200 (2017) 56 (2014) 1750 65 74 101 106 963 3570 3830 4650 5130
2020-06-08 12:45 16.60 5540 6200 (2017) 56 (2014) 1750 65 74 101 106 963 3570 3830 4650 5130
2020-06-08 11:45 16.71 5630 6200 (2017) 56 (2014) 1750 65 74 101 106 963 3570 3830 4650 5130
2020-06-08 10:45 16.64 5570 6200 (2017) 56 (2014) 1750 65 74 101 106 963 3570 3830 4650 5130
2020-06-08 09:45 16.75 5670 6200 (2017) 56 (2014) 1750 65 74 101 106 963 3570 3830 4650 5130
2020-06-08 08:45 16.68 5610 6200 (2017) 56 (2014) 1750 65 74 101 106 963 3570 3830 4650 5130
2020-06-08 07:45 16.63 5570 6200 (2017) 56 (2014) 1750 65 74 101 106 963 3570 3830 4650 5130
2020-06-08 06:45 16.62 5560 6200 (2017) 56 (2014) 1750 65 74 101 106 963 3570 3830 4650 5130
2020-06-08 05:45 16.61 5550 6200 (2017) 56 (2014) 1750 65 74 101 106 963 3570 3830 4650 5130
2020-06-08 04:45 16.60 5540 6200 (2017) 56 (2014) 1750 65 74 101 106 963 3570 3830 4650 5130
2020-06-08 03:45 16.63 5570 6200 (2017) 56 (2014) 1750 65 74 101 106 963 3570 3830 4650 5130
2020-06-08 02:45 16.72 5640 6200 (2017) 56 (2014) 1750 65 74 101 106 963 3570 3830 4650 5130
2020-06-08 01:45 16.64 5570 6200 (2017) 56 (2014) 1750 65 74 101 106 963 3570 3830 4650 5130
2020-06-08 00:45 16.59 5530 6200 (2017) 56 (2014) 1750 65 74 101 106 963 3570 3830 4650 5130
2020-06-07 23:45 16.67 5600 6200 (2017) 58 (2014) 1980 62 74 97 112 1380 3930 4540 4780 5530
2020-06-07 22:45 16.62 5560 6200 (2017) 58 (2014) 1980 62 74 97 112 1380 3930 4540 4780 5530
2020-06-07 21:45 16.61 5550 6200 (2017) 58 (2014) 1980 62 74 97 112 1380 3930 4540 4780 5530
2020-06-07 20:45 16.61 5550 6200 (2017) 58 (2014) 1980 62 74 97 112 1380 3930 4540 4780 5530
2020-06-07 19:45 16.61 5550 6200 (2017) 58 (2014) 1980 62 74 97 112 1380 3930 4540 4780 5530
2020-06-07 18:45 16.58 5520 6200 (2017) 58 (2014) 1980 62 74 97 112 1380 3930 4540 4780 5530
2020-06-07 17:45 16.60 5540 6200 (2017) 58 (2014) 1980 62 74 97 112 1380 3930 4540 4780 5530
2020-06-07 16:45 16.62 5560 6200 (2017) 58 (2014) 1980 62 74 97 112 1380 3930 4540 4780 5530
2020-06-07 15:45 16.62 5560 6200 (2017) 58 (2014) 1980 62 74 97 112 1380 3930 4540 4780 5530
2020-06-07 14:45 16.58 5520 6200 (2017) 58 (2014) 1980 62 74 97 112 1380 3930 4540 4780 5530
2020-06-07 13:45 16.58 5520 6200 (2017) 58 (2014) 1980 62 74 97 112 1380 3930 4540 4780 5530
2020-06-07 12:45 16.55 5500 6200 (2017) 58 (2014) 1980 62 74 97 112 1380 3930 4540 4780 5530
2020-06-07 11:45 16.47 5430 6200 (2017) 58 (2014) 1980 62 74 97 112 1380 3930 4540 4780 5530
2020-06-07 10:45 16.56 5510 6200 (2017) 58 (2014) 1980 62 74 97 112 1380 3930 4540 4780 5530
2020-06-07 09:45 16.55 5500 6200 (2017) 58 (2014) 1980 62 74 97 112 1380 3930 4540 4780 5530
2020-06-07 08:45 16.48 5440 6200 (2017) 58 (2014) 1980 62 74 97 112 1380 3930 4540 4780 5530
2020-06-07 07:45 16.48 5440 6200 (2017) 58 (2014) 1980 62 74 97 112 1380 3930 4540 4780 5530
2020-06-07 06:45 16.41 5390 6200 (2017) 58 (2014) 1980 62 74 97 112 1380 3930 4540 4780 5530
2020-06-07 05:45 16.42 5390 6200 (2017) 58 (2014) 1980 62 74 97 112 1380 3930 4540 4780 5530
2020-06-07 04:45 16.35 5340 6200 (2017) 58 (2014) 1980 62 74 97 112 1380 3930 4540 4780 5530
2020-06-07 03:45 16.22 5230 6200 (2017) 58 (2014) 1980 62 74 97 112 1380 3930 4540 4780 5530
2020-06-07 02:45 16.16 5180 6200 (2017) 58 (2014) 1980 62 74 97 112 1380 3930 4540 4780 5530
2020-06-07 01:45 15.97 5030 6200 (2017) 58 (2014) 1980 62 74 97 112 1380 3930 4540 4780 5530
2020-06-07 00:45 15.73 4850 6200 (2017) 58 (2014) 1980 62 74 97 112 1380 3930 4540 4780 5530
2020-06-06 23:45 15.47 4650 6180 (2017) 47 (2014) 1800 65 73 86 89 1190 2980 3940 4850 5330
2020-06-06 22:45 14.98 4280 6180 (2017) 47 (2014) 1800 65 73 86 89 1190 2980 3940 4850 5330
2020-06-06 21:45 14.41 3870 6180 (2017) 47 (2014) 1800 65 73 86 89 1190 2980 3940 4850 5330
2020-06-06 20:45 13.59 3310 6180 (2017) 47 (2014) 1800 65 73 86 89 1190 2980 3940 4850 5330
2020-06-06 19:45 12.65 2720 6180 (2017) 47 (2014) 1800 65 73 86 89 1190 2980 3940 4850 5330
2020-06-06 18:45 12.57 2670 6180 (2017) 47 (2014) 1800 65 73 86 89 1190 2980 3940 4850 5330
2020-06-06 17:45 13.72 3390 6180 (2017) 47 (2014) 1800 65 73 86 89 1190 2980 3940 4850 5330
2020-06-06 16:45 15.00 4290 6180 (2017) 47 (2014) 1800 65 73 86 89 1190 2980 3940 4850 5330
2020-06-06 15:45 16.25 5260 6180 (2017) 47 (2014) 1800 65 73 86 89 1190 2980 3940 4850 5330
2020-06-06 14:45 16.61 5550 6180 (2017) 47 (2014) 1800 65 73 86 89 1190 2980 3940 4850 5330
2020-06-06 13:45 16.58 5520 6180 (2017) 47 (2014) 1800 65 73 86 89 1190 2980 3940 4850 5330
2020-06-06 12:45 16.59 5530 6180 (2017) 47 (2014) 1800 65 73 86 89 1190 2980 3940 4850 5330
2020-06-06 11:45 16.60 5540 6180 (2017) 47 (2014) 1800 65 73 86 89 1190 2980 3940 4850 5330
2020-06-06 10:45 16.59 5530 6180 (2017) 47 (2014) 1800 65 73 86 89 1190 2980 3940 4850 5330
2020-06-06 09:45 16.57 5520 6180 (2017) 47 (2014) 1800 65 73 86 89 1190 2980 3940 4850 5330
2020-06-06 08:45 16.63 5570 6180 (2017) 47 (2014) 1800 65 73 86 89 1190 2980 3940 4850 5330
2020-06-06 07:45 16.59 5530 6180 (2017) 47 (2014) 1800 65 73 86 89 1190 2980 3940 4850 5330
2020-06-06 06:45 16.59 5530 6180 (2017) 47 (2014) 1800 65 73 86 89 1190 2980 3940 4850 5330
2020-06-06 05:45 16.57 5520 6180 (2017) 47 (2014) 1800 65 73 86 89 1190 2980 3940 4850 5330
2020-06-06 04:45 16.58 5520 6180 (2017) 47 (2014) 1800 65 73 86 89 1190 2980 3940 4850 5330
2020-06-06 03:45 16.55 5500 6180 (2017) 47 (2014) 1800 65 73 86 89 1190 2980 3940 4850 5330
2020-06-06 02:45 16.56 5510 6180 (2017) 47 (2014) 1800 65 73 86 89 1190 2980 3940 4850 5330
2020-06-06 01:45 16.54 5490 6180 (2017) 47 (2014) 1800 65 73 86 89 1190 2980 3940 4850 5330
2020-06-06 00:45 16.56 5510 6180 (2017) 47 (2014) 1800 65 73 86 89 1190 2980 3940 4850 5330
2020-06-05 23:45 16.58 5520 6170 (2017) 52 (2014) 1650 67 74 90 93 867 3230 4090 4890 5310
2020-06-05 22:45 16.61 5550 6170 (2017) 52 (2014) 1650 67 74 90 93 867 3230 4090 4890 5310
2020-06-05 21:45 16.59 5530 6170 (2017) 52 (2014) 1650 67 74 90 93 867 3230 4090 4890 5310
2020-06-05 20:45 16.57 5520 6170 (2017) 52 (2014) 1650 67 74 90 93 867 3230 4090 4890 5310
2020-06-05 19:45 16.57 5520 6170 (2017) 52 (2014) 1650 67 74 90 93 867 3230 4090 4890 5310
2020-06-05 18:45 16.62 5560 6170 (2017) 52 (2014) 1650 67 74 90 93 867 3230 4090 4890 5310
2020-06-05 17:45 16.57 5520 6170 (2017) 52 (2014) 1650 67 74 90 93 867 3230 4090 4890 5310
2020-06-05 16:45 16.59 5530 6170 (2017) 52 (2014) 1650 67 74 90 93 867 3230 4090 4890 5310
2020-06-05 15:45 16.59 5530 6170 (2017) 52 (2014) 1650 67 74 90 93 867 3230 4090 4890 5310
2020-06-05 14:45 16.59 5530 6170 (2017) 52 (2014) 1650 67 74 90 93 867 3230 4090 4890 5310
2020-06-05 13:45 16.60 5540 6170 (2017) 52 (2014) 1650 67 74 90 93 867 3230 4090 4890 5310
2020-06-05 12:45 16.60 5540 6170 (2017) 52 (2014) 1650 67 74 90 93 867 3230 4090 4890 5310
2020-06-05 11:45 16.61 5550 6170 (2017) 52 (2014) 1650 67 74 90 93 867 3230 4090 4890 5310
2020-06-05 10:45 16.62 5560 6170 (2017) 52 (2014) 1650 67 74 90 93 867 3230 4090 4890 5310
2020-06-05 09:45 16.65 5580 6170 (2017) 52 (2014) 1650 67 74 90 93 867 3230 4090 4890 5310
2020-06-05 08:45 16.65 5580 6170 (2017) 52 (2014) 1650 67 74 90 93 867 3230 4090 4890 5310
2020-06-05 07:45 16.66 5590 6170 (2017) 52 (2014) 1650 67 74 90 93 867 3230 4090 4890 5310
2020-06-05 06:45 16.68 5610 6170 (2017) 52 (2014) 1650 67 74 90 93 867 3230 4090 4890 5310
2020-06-05 05:45 16.71 5630 6170 (2017) 52 (2014) 1650 67 74 90 93 867 3230 4090 4890 5310
2020-06-05 04:45 16.74 5660 6170 (2017) 52 (2014) 1650 67 74 90 93 867 3230 4090 4890 5310
2020-06-05 03:45 16.73 5650 6170 (2017) 52 (2014) 1650 67 74 90 93 867 3230 4090 4890 5310
2020-06-05 02:45 16.73 5650 6170 (2017) 52 (2014) 1650 67 74 90 93 867 3230 4090 4890 5310
2020-06-05 01:45 16.74 5660 6170 (2017) 52 (2014) 1650 67 74 90 93 867 3230 4090 4890 5310
2020-06-05 00:45 16.74 5660 6170 (2017) 52 (2014) 1650 67 74 90 93 867 3230 4090 4890 5310
2020-06-04 23:45 16.75 5670 6150 (2017) 71 (1992) 1810 73 86 98 133 1060 3250 3870 4930 5220
2020-06-04 22:45 16.77 5680 6150 (2017) 71 (1992) 1810 73 86 98 133 1060 3250 3870 4930 5220
2020-06-04 21:45 16.76 5670 6150 (2017) 71 (1992) 1810 73 86 98 133 1060 3250 3870 4930 5220
2020-06-04 20:45 16.74 5660 6150 (2017) 71 (1992) 1810 73 86 98 133 1060 3250 3870 4930 5220
2020-06-04 19:45 16.72 5640 6150 (2017) 71 (1992) 1810 73 86 98 133 1060 3250 3870 4930 5220
2020-06-04 18:45 16.71 5630 6150 (2017) 71 (1992) 1810 73 86 98 133 1060 3250 3870 4930 5220
2020-06-04 17:45 16.70 5620 6150 (2017) 71 (1992) 1810 73 86 98 133 1060 3250 3870 4930 5220
2020-06-04 16:45 16.68 5610 6150 (2017) 71 (1992) 1810 73 86 98 133 1060 3250 3870 4930 5220
2020-06-04 15:45 16.68 5610 6150 (2017) 71 (1992) 1810 73 86 98 133 1060 3250 3870 4930 5220
2020-06-04 14:45 16.67 5600 6150 (2017) 71 (1992) 1810 73 86 98 133 1060 3250 3870 4930 5220
2020-06-04 13:45 16.67 5600 6150 (2017) 71 (1992) 1810 73 86 98 133 1060 3250 3870 4930 5220
2020-06-04 12:45 16.65 5580 6150 (2017) 71 (1992) 1810 73 86 98 133 1060 3250 3870 4930 5220
2020-06-04 11:45 16.64 5570 6150 (2017) 71 (1992) 1810 73 86 98 133 1060 3250 3870 4930 5220
2020-06-04 10:45 16.63 5570 6150 (2017) 71 (1992) 1810 73 86 98 133 1060 3250 3870 4930 5220
2020-06-04 09:45 16.61 5550 6150 (2017) 71 (1992) 1810 73 86 98 133 1060 3250 3870 4930 5220
2020-06-04 08:45 16.58 5520 6150 (2017) 71 (1992) 1810 73 86 98 133 1060 3250 3870 4930 5220
2020-06-04 07:45 16.56 5510 6150 (2017) 71 (1992) 1810 73 86 98 133 1060 3250 3870 4930 5220
2020-06-04 06:45 16.55 5500 6150 (2017) 71 (1992) 1810 73 86 98 133 1060 3250 3870 4930 5220
2020-06-04 05:45 16.57 5520 6150 (2017) 71 (1992) 1810 73 86 98 133 1060 3250 3870 4930 5220
2020-06-04 04:45 16.54 5490 6150 (2017) 71 (1992) 1810 73 86 98 133 1060 3250 3870 4930 5220
2020-06-04 03:45 16.50 5460 6150 (2017) 71 (1992) 1810 73 86 98 133 1060 3250 3870 4930 5220
2020-06-04 02:45 16.49 5450 6150 (2017) 71 (1992) 1810 73 86 98 133 1060 3250 3870 4930 5220
2020-06-04 01:45 16.48 5440 6150 (2017) 71 (1992) 1810 73 86 98 133 1060 3250 3870 4930 5220
2020-06-04 00:45 16.49 5450 6150 (2017) 71 (1992) 1810 73 86 98 133 1060 3250 3870 4930 5220
2020-06-03 23:45 16.49 5450 6260 (2019) 69 (1992) 1750 75 83 104 109 999 2970 3930 4780 5830
2020-06-03 22:45 16.49 5450 6260 (2019) 69 (1992) 1750 75 83 104 109 999 2970 3930 4780 5830
2020-06-03 21:45 16.49 5450 6260 (2019) 69 (1992) 1750 75 83 104 109 999 2970 3930 4780 5830
2020-06-03 20:45 16.54 5490 6260 (2019) 69 (1992) 1750 75 83 104 109 999 2970 3930 4780 5830
2020-06-03 19:45 16.49 5450 6260 (2019) 69 (1992) 1750 75 83 104 109 999 2970 3930 4780 5830
2020-06-03 18:45 16.48 5440 6260 (2019) 69 (1992) 1750 75 83 104 109 999 2970 3930 4780 5830
2020-06-03 17:45 16.47 5430 6260 (2019) 69 (1992) 1750 75 83 104 109 999 2970 3930 4780 5830
2020-06-03 16:45 16.47 5430 6260 (2019) 69 (1992) 1750 75 83 104 109 999 2970 3930 4780 5830
2020-06-03 15:45 16.46 5430 6260 (2019) 69 (1992) 1750 75 83 104 109 999 2970 3930 4780 5830
2020-06-03 14:45 16.48 5440 6260 (2019) 69 (1992) 1750 75 83 104 109 999 2970 3930 4780 5830
2020-06-03 13:45 16.47 5430 6260 (2019) 69 (1992) 1750 75 83 104 109 999 2970 3930 4780 5830
2020-06-03 12:45 16.46 5430 6260 (2019) 69 (1992) 1750 75 83 104 109 999 2970 3930 4780 5830
2020-06-03 11:45 16.47 5430 6260 (2019) 69 (1992) 1750 75 83 104 109 999 2970 3930 4780 5830
2020-06-03 10:45 16.48 5440 6260 (2019) 69 (1992) 1750 75 83 104 109 999 2970 3930 4780 5830
2020-06-03 09:45 16.51 5470 6260 (2019) 69 (1992) 1750 75 83 104 109 999 2970 3930 4780 5830
2020-06-03 08:45 16.49 5450 6260 (2019) 69 (1992) 1750 75 83 104 109 999 2970 3930 4780 5830
2020-06-03 07:45 16.47 5430 6260 (2019) 69 (1992) 1750 75 83 104 109 999 2970 3930 4780 5830
2020-06-03 06:45 16.47 5430 6260 (2019) 69 (1992) 1750 75 83 104 109 999 2970 3930 4780 5830
2020-06-03 05:45 16.47 5430 6260 (2019) 69 (1992) 1750 75 83 104 109 999 2970 3930 4780 5830
2020-06-03 04:45 16.52 5480 6260 (2019) 69 (1992) 1750 75 83 104 109 999 2970 3930 4780 5830
2020-06-03 03:45 16.57 5520 6260 (2019) 69 (1992) 1750 75 83 104 109 999 2970 3930 4780 5830
2020-06-03 02:45 16.53 5480 6260 (2019) 69 (1992) 1750 75 83 104 109 999 2970 3930 4780 5830
2020-06-03 01:45 16.52 5480 6260 (2019) 69 (1992) 1750 75 83 104 109 999 2970 3930 4780 5830
2020-06-03 00:45 16.52 5480 6260 (2019) 69 (1992) 1750 75 83 104 109 999 2970 3930 4780 5830
2020-06-02 23:45 16.53 5480 6420 (2019) 63 (1992) 1800 76 92 110 118 956 3680 4510 5020 5830
2020-06-02 22:45 16.47 5430 6420 (2019) 63 (1992) 1800 76 92 110 118 956 3680 4510 5020 5830
2020-06-02 21:45 16.43 5400 6420 (2019) 63 (1992) 1800 76 92 110 118 956 3680 4510 5020 5830
2020-06-02 20:45 16.40 5380 6420 (2019) 63 (1992) 1800 76 92 110 118 956 3680 4510 5020 5830
2020-06-02 19:45 16.38 5360 6420 (2019) 63 (1992) 1800 76 92 110 118 956 3680 4510 5020 5830
2020-06-02 18:45 16.36 5350 6420 (2019) 63 (1992) 1800 76 92 110 118 956 3680 4510 5020 5830
2020-06-02 17:45 16.31 5300 6420 (2019) 63 (1992) 1800 76 92 110 118 956 3680 4510 5020 5830
2020-06-02 16:45 16.30 5300 6420 (2019) 63 (1992) 1800 76 92 110 118 956 3680 4510 5020 5830
2020-06-02 15:45 16.20 5220 6420 (2019) 63 (1992) 1800 76 92 110 118 956 3680 4510 5020 5830
2020-06-02 14:45 15.95 5020 6420 (2019) 63 (1992) 1800 76 92 110 118 956 3680 4510 5020 5830
2020-06-02 13:45 15.91 4990 6420 (2019) 63 (1992) 1800 76 92 110 118 956 3680 4510 5020 5830
2020-06-02 12:45 15.57 4720 6420 (2019) 63 (1992) 1800 76 92 110 118 956 3680 4510 5020 5830
2020-06-02 11:45 15.33 4540 6420 (2019) 63 (1992) 1800 76 92 110 118 956 3680 4510 5020 5830
2020-06-02 10:45 15.09 4360 6420 (2019) 63 (1992) 1800 76 92 110 118 956 3680 4510 5020 5830
2020-06-02 09:45 14.98 4280 6420 (2019) 63 (1992) 1800 76 92 110 118 956 3680 4510 5020 5830
2020-06-02 08:45 14.97 4270 6420 (2019) 63 (1992) 1800 76 92 110 118 956 3680 4510 5020 5830
2020-06-02 07:45 15.05 4330 6420 (2019) 63 (1992) 1800 76 92 110 118 956 3680 4510 5020 5830
2020-06-02 06:45 15.13 4390 6420 (2019) 63 (1992) 1800 76 92 110 118 956 3680 4510 5020 5830
2020-06-02 05:45 15.04 4320 6420 (2019) 63 (1992) 1800 76 92 110 118 956 3680 4510 5020 5830
2020-06-02 04:45 15.03 4310 6420 (2019) 63 (1992) 1800 76 92 110 118 956 3680 4510 5020 5830
2020-06-02 03:45 15.08 4350 6420 (2019) 63 (1992) 1800 76 92 110 118 956 3680 4510 5020 5830
2020-06-02 02:45 15.04 4320 6420 (2019) 63 (1992) 1800 76 92 110 118 956 3680 4510 5020 5830
2020-06-02 01:45 15.11 4370 6420 (2019) 63 (1992) 1800 76 92 110 118 956 3680 4510 5020 5830
2020-06-02 00:45 15.13 4390 6420 (2019) 63 (1992) 1800 76 92 110 118 956 3680 4510 5020 5830
2020-06-01 23:45 15.09 4360 6110 (2017) 61 (1992) 1840 69 82 101 125 1150 3360 4060 4840 5190
2020-06-01 22:45 15.14 4400 6110 (2017) 61 (1992) 1840 69 82 101 125 1150 3360 4060 4840 5190
2020-06-01 21:45 15.24 4470 6110 (2017) 61 (1992) 1840 69 82 101 125 1150 3360 4060 4840 5190
2020-06-01 20:45 15.30 4520 6110 (2017) 61 (1992) 1840 69 82 101 125 1150 3360 4060 4840 5190
2020-06-01 19:45 15.27 4490 6110 (2017) 61 (1992) 1840 69 82 101 125 1150 3360 4060 4840 5190
2020-06-01 18:45 15.30 4520 6110 (2017) 61 (1992) 1840 69 82 101 125 1150 3360 4060 4840 5190
2020-06-01 17:45 15.20 4440 6110 (2017) 61 (1992) 1840 69 82 101 125 1150 3360 4060 4840 5190
2020-06-01 16:45 15.09 4360 6110 (2017) 61 (1992) 1840 69 82 101 125 1150 3360 4060 4840 5190
2020-06-01 15:45 15.01 4300 6110 (2017) 61 (1992) 1840 69 82 101 125 1150 3360 4060 4840 5190
2020-06-01 14:45 15.03 4310 6110 (2017) 61 (1992) 1840 69 82 101 125 1150 3360 4060 4840 5190
2020-06-01 13:45 15.04 4320 6110 (2017) 61 (1992) 1840 69 82 101 125 1150 3360 4060 4840 5190
2020-06-01 12:45 15.02 4310 6110 (2017) 61 (1992) 1840 69 82 101 125 1150 3360 4060 4840 5190
2020-06-01 11:45 15.02 4310 6110 (2017) 61 (1992) 1840 69 82 101 125 1150 3360 4060 4840 5190
2020-06-01 10:45 15.05 4330 6110 (2017) 61 (1992) 1840 69 82 101 125 1150 3360 4060 4840 5190
2020-06-01 09:45 15.03 4310 6110 (2017) 61 (1992) 1840 69 82 101 125 1150 3360 4060 4840 5190
2020-06-01 08:45 15.02 4310 6110 (2017) 61 (1992) 1840 69 82 101 125 1150 3360 4060 4840 5190
2020-06-01 07:45 15.02 4310 6110 (2017) 61 (1992) 1840 69 82 101 125 1150 3360 4060 4840 5190
2020-06-01 06:45 15.04 4320 6110 (2017) 61 (1992) 1840 69 82 101 125 1150 3360 4060 4840 5190
2020-06-01 05:45 15.07 4340 6110 (2017) 61 (1992) 1840 69 82 101 125 1150 3360 4060 4840 5190
2020-06-01 04:45 15.04 4320 6110 (2017) 61 (1992) 1840 69 82 101 125 1150 3360 4060 4840 5190
2020-06-01 03:45 15.09 4360 6110 (2017) 61 (1992) 1840 69 82 101 125 1150 3360 4060 4840 5190
2020-06-01 02:45 15.10 4370 6110 (2017) 61 (1992) 1840 69 82 101 125 1150 3360 4060 4840 5190
2020-06-01 01:45 15.09 4360 6110 (2017) 61 (1992) 1840 69 82 101 125 1150 3360 4060 4840 5190
2020-06-01 00:45 15.08 4350 6110 (2017) 61 (1992) 1840 69 82 101 125 1150 3360 4060 4840 5190
2020-05-31 23:45 15.13 4390 6270 (2017) 60 (1992) 1860 68 83 121 172 1340 3290 4020 4730 5220
2020-05-31 22:45 15.07 4340 6270 (2017) 60 (1992) 1860 68 83 121 172 1340 3290 4020 4730 5220
2020-05-31 21:45 15.08 4350 6270 (2017) 60 (1992) 1860 68 83 121 172 1340 3290 4020 4730 5220
2020-05-31 20:45 15.09 4360 6270 (2017) 60 (1992) 1860 68 83 121 172 1340 3290 4020 4730 5220
2020-05-31 19:45 15.06 4340 6270 (2017) 60 (1992) 1860 68 83 121 172 1340 3290 4020 4730 5220
2020-05-31 18:45 15.09 4360 6270 (2017) 60 (1992) 1860 68 83 121 172 1340 3290 4020 4730 5220
2020-05-31 17:45 15.05 4330 6270 (2017) 60 (1992) 1860 68 83 121 172 1340 3290 4020 4730 5220
2020-05-31 16:45 15.08 4350 6270 (2017) 60 (1992) 1860 68 83 121 172 1340 3290 4020 4730 5220
2020-05-31 15:45 15.08 4350 6270 (2017) 60 (1992) 1860 68 83 121 172 1340 3290 4020 4730 5220
2020-05-31 14:45 15.04 4320 6270 (2017) 60 (1992) 1860 68 83 121 172 1340 3290 4020 4730 5220
2020-05-31 13:45 15.05 4330 6270 (2017) 60 (1992) 1860 68 83 121 172 1340 3290 4020 4730 5220
2020-05-31 12:45 15.07 4340 6270 (2017) 60 (1992) 1860 68 83 121 172 1340 3290 4020 4730 5220
2020-05-31 11:45 14.99 4290 6270 (2017) 60 (1992) 1860 68 83 121 172 1340 3290 4020 4730 5220
2020-05-31 10:45 15.02 4310 6270 (2017) 60 (1992) 1860 68 83 121 172 1340 3290 4020 4730 5220
2020-05-31 09:45 15.02 4310 6270 (2017) 60 (1992) 1860 68 83 121 172 1340 3290 4020 4730 5220
2020-05-31 08:45 15.02 4310 6270 (2017) 60 (1992) 1860 68 83 121 172 1340 3290 4020 4730 5220
2020-05-31 07:45 15.00 4290 6270 (2017) 60 (1992) 1860 68 83 121 172 1340 3290 4020 4730 5220
2020-05-31 06:45 15.00 4290 6270 (2017) 60 (1992) 1860 68 83 121 172 1340 3290 4020 4730 5220
2020-05-31 05:45 15.01 4300 6270 (2017) 60 (1992) 1860 68 83 121 172 1340 3290 4020 4730 5220
2020-05-31 04:45 14.98 4280 6270 (2017) 60 (1992) 1860 68 83 121 172 1340 3290 4020 4730 5220
2020-05-31 03:45 14.96 4260 6270 (2017) 60 (1992) 1860 68 83 121 172 1340 3290 4020 4730 5220
2020-05-31 02:45 14.86 4190 6270 (2017) 60 (1992) 1860 68 83 121 172 1340 3290 4020 4730 5220
2020-05-31 01:45 14.61 4010 6270 (2017) 60 (1992) 1860 68 83 121 172 1340 3290 4020 4730 5220
2020-05-31 00:45 14.37 3840 6270 (2017) 60 (1992) 1860 68 83 121 172 1340 3290 4020 4730 5220
2020-05-30 23:45 14.45 3900 6200 (2017) 62 (1992) 1890 68 84 124 198 1320 3060 3890 4960 5250
2020-05-30 22:45 14.49 3920 6200 (2017) 62 (1992) 1890 68 84 124 198 1320 3060 3890 4960 5250
2020-05-30 21:45 14.61 4010 6200 (2017) 62 (1992) 1890 68 84 124 198 1320 3060 3890 4960 5250
2020-05-30 20:45 14.72 4090 6200 (2017) 62 (1992) 1890 68 84 124 198 1320 3060 3890 4960 5250
2020-05-30 19:45 14.88 4200 6200 (2017) 62 (1992) 1890 68 84 124 198 1320 3060 3890 4960 5250
2020-05-30 18:45 15.06 4340 6200 (2017) 62 (1992) 1890 68 84 124 198 1320 3060 3890 4960 5250
2020-05-30 17:45 15.22 4460 6200 (2017) 62 (1992) 1890 68 84 124 198 1320 3060 3890 4960 5250
2020-05-30 16:45 15.30 4520 6200 (2017) 62 (1992) 1890 68 84 124 198 1320 3060 3890 4960 5250
2020-05-30 15:45 15.37 4570 6200 (2017) 62 (1992) 1890 68 84 124 198 1320 3060 3890 4960 5250
2020-05-30 14:45 15.48 4650 6200 (2017) 62 (1992) 1890 68 84 124 198 1320 3060 3890 4960 5250
2020-05-30 13:45 15.60 4740 6200 (2017) 62 (1992) 1890 68 84 124 198 1320 3060 3890 4960 5250
2020-05-30 12:45 15.79 4890 6200 (2017) 62 (1992) 1890 68 84 124 198 1320 3060 3890 4960 5250
2020-05-30 11:45 15.97 5030 6200 (2017) 62 (1992) 1890 68 84 124 198 1320 3060 3890 4960 5250
2020-05-30 10:45 16.20 5220 6200 (2017) 62 (1992) 1890 68 84 124 198 1320 3060 3890 4960 5250
2020-05-30 09:45 16.34 5330 6200 (2017) 62 (1992) 1890 68 84 124 198 1320 3060 3890 4960 5250
2020-05-30 08:45 16.09 5130 6200 (2017) 62 (1992) 1890 68 84 124 198 1320 3060 3890 4960 5250
2020-05-30 07:45 15.70 4820 6200 (2017) 62 (1992) 1890 68 84 124 198 1320 3060 3890 4960 5250
2020-05-30 06:45 15.36 4560 6200 (2017) 62 (1992) 1890 68 84 124 198 1320 3060 3890 4960 5250
2020-05-30 05:45 15.48 4650 6200 (2017) 62 (1992) 1890 68 84 124 198 1320 3060 3890 4960 5250
2020-05-30 04:45 15.53 4690 6200 (2017) 62 (1992) 1890 68 84 124 198 1320 3060 3890 4960 5250
2020-05-30 03:45 15.68 4810 6200 (2017) 62 (1992) 1890 68 84 124 198 1320 3060 3890 4960 5250
2020-05-30 02:45 15.78 4880 6200 (2017) 62 (1992) 1890 68 84 124 198 1320 3060 3890 4960 5250
2020-05-30 01:45 15.84 4930 6200 (2017) 62 (1992) 1890 68 84 124 198 1320 3060 3890 4960 5250
2020-05-30 00:45 15.88 4960 6200 (2017) 62 (1992) 1890 68 84 124 198 1320 3060 3890 4960 5250
2020-05-29 23:45 16.08 5120 6200 (2017) 35 (1974) 1810 63 78 99 157 1150 3200 3880 5050 5420
2020-05-29 22:45 16.31 5300 6200 (2017) 35 (1974) 1810 63 78 99 157 1150 3200 3880 5050 5420
2020-05-29 21:45 16.52 5480 6200 (2017) 35 (1974) 1810 63 78 99 157 1150 3200 3880 5050 5420
2020-05-29 20:45 16.28 5280 6200 (2017) 35 (1974) 1810 63 78 99 157 1150 3200 3880 5050 5420
2020-05-29 19:45 15.84 4930 6200 (2017) 35 (1974) 1810 63 78 99 157 1150 3200 3880 5050 5420
2020-05-29 18:45 15.32 4530 6200 (2017) 35 (1974) 1810 63 78 99 157 1150 3200 3880 5050 5420
2020-05-29 17:45 14.46 3900 6200 (2017) 35 (1974) 1810 63 78 99 157 1150 3200 3880 5050 5420
2020-05-29 16:45 13.22 3070 6200 (2017) 35 (1974) 1810 63 78 99 157 1150 3200 3880 5050 5420
2020-05-29 15:45 11.51 2070 6200 (2017) 35 (1974) 1810 63 78 99 157 1150 3200 3880 5050 5420
2020-05-29 14:45 11.03 1820 6200 (2017) 35 (1974) 1810 63 78 99 157 1150 3200 3880 5050 5420
2020-05-29 13:45 12.00 2340 6200 (2017) 35 (1974) 1810 63 78 99 157 1150 3200 3880 5050 5420
2020-05-29 12:45 13.15 3020 6200 (2017) 35 (1974) 1810 63 78 99 157 1150 3200 3880 5050 5420
2020-05-29 11:45 14.32 3800 6200 (2017) 35 (1974) 1810 63 78 99 157 1150 3200 3880 5050 5420
2020-05-29 10:45 15.55 4710 6200 (2017) 35 (1974) 1810 63 78 99 157 1150 3200 3880 5050 5420
2020-05-29 09:45 16.66 5590 6200 (2017) 35 (1974) 1810 63 78 99 157 1150 3200 3880 5050 5420
2020-05-29 08:45 16.62 5560 6200 (2017) 35 (1974) 1810 63 78 99 157 1150 3200 3880 5050 5420
2020-05-29 07:45 16.33 5320 6200 (2017) 35 (1974) 1810 63 78 99 157 1150 3200 3880 5050 5420
2020-05-29 06:45 16.04 5090 6200 (2017) 35 (1974) 1810 63 78 99 157 1150 3200 3880 5050 5420
2020-05-29 05:45 15.46 4640 6200 (2017) 35 (1974) 1810 63 78 99 157 1150 3200 3880 5050 5420
2020-05-29 04:45 14.79 4140 6200 (2017) 35 (1974) 1810 63 78 99 157 1150 3200 3880 5050 5420
2020-05-29 03:45 13.60 3320 6200 (2017) 35 (1974) 1810 63 78 99 157 1150 3200 3880 5050 5420
2020-05-29 02:45 12.21 2460 6200 (2017) 35 (1974) 1810 63 78 99 157 1150 3200 3880 5050 5420
2020-05-29 01:45 11.86 2260 6200 (2017) 35 (1974) 1810 63 78 99 157 1150 3200 3880 5050 5420
2020-05-29 00:45 12.87 2850 6200 (2017) 35 (1974) 1810 63 78 99 157 1150 3200 3880 5050 5420
2020-05-28 23:45 14.12 3670 6210 (2017) 64 (2006) 1810 68 82 91 122 1390 2910 3610 4980 5800
2020-05-28 22:45 15.31 4520 6210 (2017) 64 (2006) 1810 68 82 91 122 1390 2910 3610 4980 5800
2020-05-28 21:45 16.34 5330 6210 (2017) 64 (2006) 1810 68 82 91 122 1390 2910 3610 4980 5800
2020-05-28 20:45 16.36 5350 6210 (2017) 64 (2006) 1810 68 82 91 122 1390 2910 3610 4980 5800
2020-05-28 19:45 16.24 5250 6210 (2017) 64 (2006) 1810 68 82 91 122 1390 2910 3610 4980 5800
2020-05-28 18:45 16.09 5130 6210 (2017) 64 (2006) 1810 68 82 91 122 1390 2910 3610 4980 5800
2020-05-28 17:45 15.85 4940 6210 (2017) 64 (2006) 1810 68 82 91 122 1390 2910 3610 4980 5800
2020-05-28 16:45 15.55 4710 6210 (2017) 64 (2006) 1810 68 82 91 122 1390 2910 3610 4980 5800
2020-05-28 15:45 15.12 4380 6210 (2017) 64 (2006) 1810 68 82 91 122 1390 2910 3610 4980 5800
2020-05-28 14:45 14.45 3900 6210 (2017) 64 (2006) 1810 68 82 91 122 1390 2910 3610 4980 5800
2020-05-28 13:45 13.45 3220 6210 (2017) 64 (2006) 1810 68 82 91 122 1390 2910 3610 4980 5800
2020-05-28 12:45 11.63 2130 6210 (2017) 64 (2006) 1810 68 82 91 122 1390 2910 3610 4980 5800
2020-05-28 11:45 7.89 589 6210 (2017) 64 (2006) 1810 68 82 91 122 1390 2910 3610 4980 5800
2020-05-28 10:45 7.14 382 6210 (2017) 64 (2006) 1810 68 82 91 122 1390 2910 3610 4980 5800
2020-05-28 09:45 7.18 393 6210 (2017) 64 (2006) 1810 68 82 91 122 1390 2910 3610 4980 5800
2020-05-28 08:45 7.23 405 6210 (2017) 64 (2006) 1810 68 82 91 122 1390 2910 3610 4980 5800
2020-05-28 07:45 7.29 421 6210 (2017) 64 (2006) 1810 68 82 91 122 1390 2910 3610 4980 5800
2020-05-28 06:45 7.38 445 6210 (2017) 64 (2006) 1810 68 82 91 122 1390 2910 3610 4980 5800
2020-05-28 05:45 7.50 477 6210 (2017) 64 (2006) 1810 68 82 91 122 1390 2910 3610 4980 5800
2020-05-28 04:45 7.66 522 6210 (2017) 64 (2006) 1810 68 82 91 122 1390 2910 3610 4980 5800
2020-05-28 03:45 7.88 586 6210 (2017) 64 (2006) 1810 68 82 91 122 1390 2910 3610 4980 5800
2020-05-28 02:45 8.17 675 6210 (2017) 64 (2006) 1810 68 82 91 122 1390 2910 3610 4980 5800
2020-05-28 01:45 8.55 799 6210 (2017) 64 (2006) 1810 68 82 91 122 1390 2910 3610 4980 5800
2020-05-28 00:45 9.01 960 6210 (2017) 64 (2006) 1810 68 82 91 122 1390 2910 3610 4980 5800
2020-05-27 23:45 9.59 1180 6190 (2017) 65 (2006) 1780 72 85 93 107 1430 3430 3800 4940 5260
2020-05-27 22:45 10.24 1450 6190 (2017) 65 (2006) 1780 72 85 93 107 1430 3430 3800 4940 5260
2020-05-27 21:45 11.01 1810 6190 (2017) 65 (2006) 1780 72 85 93 107 1430 3430 3800 4940 5260
2020-05-27 20:45 11.73 2190 6190 (2017) 65 (2006) 1780 72 85 93 107 1430 3430 3800 4940 5260
2020-05-27 19:45 12.34 2530 6190 (2017) 65 (2006) 1780 72 85 93 107 1430 3430 3800 4940 5260
2020-05-27 18:45 11.98 2320 6190 (2017) 65 (2006) 1780 72 85 93 107 1430 3430 3800 4940 5260
2020-05-27 17:45 8.28 710 6190 (2017) 65 (2006) 1780 72 85 93 107 1430 3430 3800 4940 5260
2020-05-27 16:45 7.23 405 6190 (2017) 65 (2006) 1780 72 85 93 107 1430 3430 3800 4940 5260
2020-05-27 15:45 7.24 408 6190 (2017) 65 (2006) 1780 72 85 93 107 1430 3430 3800 4940 5260
2020-05-27 14:45 7.25 411 6190 (2017) 65 (2006) 1780 72 85 93 107 1430 3430 3800 4940 5260
2020-05-27 13:45 7.28 418 6190 (2017) 65 (2006) 1780 72 85 93 107 1430 3430 3800 4940 5260
2020-05-27 12:45 7.32 429 6190 (2017) 65 (2006) 1780 72 85 93 107 1430 3430 3800 4940 5260
2020-05-27 11:45 7.35 437 6190 (2017) 65 (2006) 1780 72 85 93 107 1430 3430 3800 4940 5260
2020-05-27 10:45 7.38 445 6190 (2017) 65 (2006) 1780 72 85 93 107 1430 3430 3800 4940 5260
2020-05-27 09:45 7.43 458 6190 (2017) 65 (2006) 1780 72 85 93 107 1430 3430 3800 4940 5260
2020-05-27 08:45 7.47 469 6190 (2017) 65 (2006) 1780 72 85 93 107 1430 3430 3800 4940 5260
2020-05-27 07:45 7.55 491 6190 (2017) 65 (2006) 1780 72 85 93 107 1430 3430 3800 4940 5260
2020-05-27 06:45 7.62 511 6190 (2017) 65 (2006) 1780 72 85 93 107 1430 3430 3800 4940 5260
2020-05-27 05:45 7.68 528 6190 (2017) 65 (2006) 1780 72 85 93 107 1430 3430 3800 4940 5260
2020-05-27 04:45 7.74 545 6190 (2017) 65 (2006) 1780 72 85 93 107 1430 3430 3800 4940 5260
2020-05-27 03:45 7.83 571 6190 (2017) 65 (2006) 1780 72 85 93 107 1430 3430 3800 4940 5260
2020-05-27 02:45 7.91 595 6190 (2017) 65 (2006) 1780 72 85 93 107 1430 3430 3800 4940 5260
2020-05-27 01:45 8.00 622 6190 (2017) 65 (2006) 1780 72 85 93 107 1430 3430 3800 4940 5260
2020-05-27 00:45 8.11 656 6190 (2017) 65 (2006) 1780 72 85 93 107 1430 3430 3800 4940 5260
2020-05-26 23:45 8.22 691 6130 (2017) 63 (1975) 1540 70 91 100 108 1200 2220 2940 4690 5280
2020-05-26 22:45 8.36 736 6130 (2017) 63 (1975) 1540 70 91 100 108 1200 2220 2940 4690 5280
2020-05-26 21:45 8.50 782 6130 (2017) 63 (1975) 1540 70 91 100 108 1200 2220 2940 4690 5280
2020-05-26 20:45 8.63 826 6130 (2017) 63 (1975) 1540 70 91 100 108 1200 2220 2940 4690 5280
2020-05-26 19:45 8.80 885 6130 (2017) 63 (1975) 1540 70 91 100 108 1200 2220 2940 4690 5280
2020-05-26 18:45 8.94 935 6130 (2017) 63 (1975) 1540 70 91 100 108 1200 2220 2940 4690 5280
2020-05-26 17:45 9.16 1010 6130 (2017) 63 (1975) 1540 70 91 100 108 1200 2220 2940 4690 5280
2020-05-26 16:45 9.41 1110 6130 (2017) 63 (1975) 1540 70 91 100 108 1200 2220 2940 4690 5280
2020-05-26 15:45 9.65 1200 6130 (2017) 63 (1975) 1540 70 91 100 108 1200 2220 2940 4690 5280
2020-05-26 14:45 9.91 1310 6130 (2017) 63 (1975) 1540 70 91 100 108 1200 2220 2940 4690 5280
2020-05-26 13:45 10.31 1480 6130 (2017) 63 (1975) 1540 70 91 100 108 1200 2220 2940 4690 5280
2020-05-26 12:45 10.72 1670 6130 (2017) 63 (1975) 1540 70 91 100 108 1200 2220 2940 4690 5280
2020-05-26 11:45 11.31 1960 6130 (2017) 63 (1975) 1540 70 91 100 108 1200 2220 2940 4690 5280
2020-05-26 10:45 11.94 2300 6130 (2017) 63 (1975) 1540 70 91 100 108 1200 2220 2940 4690 5280
2020-05-26 09:45 12.67 2730 6130 (2017) 63 (1975) 1540 70 91 100 108 1200 2220 2940 4690 5280
2020-05-26 08:45 13.54 3280 6130 (2017) 63 (1975) 1540 70 91 100 108 1200 2220 2940 4690 5280
2020-05-26 07:45 14.44 3890 6130 (2017) 63 (1975) 1540 70 91 100 108 1200 2220 2940 4690 5280
2020-05-26 06:45 15.41 4600 6130 (2017) 63 (1975) 1540 70 91 100 108 1200 2220 2940 4690 5280
2020-05-26 05:45 16.29 5290 6130 (2017) 63 (1975) 1540 70 91 100 108 1200 2220 2940 4690 5280
2020-05-26 04:45 16.39 5370 6130 (2017) 63 (1975) 1540 70 91 100 108 1200 2220 2940 4690 5280
2020-05-26 03:45 16.28 5280 6130 (2017) 63 (1975) 1540 70 91 100 108 1200 2220 2940 4690 5280
2020-05-26 02:45 16.03 5080 6130 (2017) 63 (1975) 1540 70 91 100 108 1200 2220 2940 4690 5280
2020-05-26 01:45 15.71 4830 6130 (2017) 63 (1975) 1540 70 91 100 108 1200 2220 2940 4690 5280
2020-05-26 00:45 15.68 4810 6130 (2017) 63 (1975) 1540 70 91 100 108 1200 2220 2940 4690 5280
2020-05-25 23:45 16.02 5070 6130 (2017) 66 (1975) 1640 71 87 111 122 839 2960 3770 5100 5390
2020-05-25 22:45 16.40 5380 6130 (2017) 66 (1975) 1640 71 87 111 122 839 2960 3770 5100 5390
2020-05-25 21:45 16.75 5670 6130 (2017) 66 (1975) 1640 71 87 111 122 839 2960 3770 5100 5390
2020-05-25 20:45 16.89 5780 6130 (2017) 66 (1975) 1640 71 87 111 122 839 2960 3770 5100 5390
2020-05-25 19:45 16.95 5830 6130 (2017) 66 (1975) 1640 71 87 111 122 839 2960 3770 5100 5390
2020-05-25 18:45 16.89 5780 6130 (2017) 66 (1975) 1640 71 87 111 122 839 2960 3770 5100 5390
2020-05-25 17:45 16.85 5750 6130 (2017) 66 (1975) 1640 71 87 111 122 839 2960 3770 5100 5390
2020-05-25 16:45 16.72 5640 6130 (2017) 66 (1975) 1640 71 87 111 122 839 2960 3770 5100 5390
2020-05-25 15:45 16.61 5550 6130 (2017) 66 (1975) 1640 71 87 111 122 839 2960 3770 5100 5390
2020-05-25 14:45 16.39 5370 6130 (2017) 66 (1975) 1640 71 87 111 122 839 2960 3770 5100 5390
2020-05-25 13:45 16.36 5350 6130 (2017) 66 (1975) 1640 71 87 111 122 839 2960 3770 5100 5390
2020-05-25 12:45 16.25 5260 6130 (2017) 66 (1975) 1640 71 87 111 122 839 2960 3770 5100 5390
2020-05-25 11:45 16.08 5120 6130 (2017) 66 (1975) 1640 71 87 111 122 839 2960 3770 5100 5390
2020-05-25 10:45 15.95 5020 6130 (2017) 66 (1975) 1640 71 87 111 122 839 2960 3770 5100 5390
2020-05-25 09:45 15.67 4800 6130 (2017) 66 (1975) 1640 71 87 111 122 839 2960 3770 5100 5390
2020-05-25 08:45 15.35 4550 6130 (2017) 66 (1975) 1640 71 87 111 122 839 2960 3770 5100 5390
2020-05-25 07:45 14.89 4210 6130 (2017) 66 (1975) 1640 71 87 111 122 839 2960 3770 5100 5390
2020-05-25 06:45 14.57 3980 6130 (2017) 66 (1975) 1640 71 87 111 122 839 2960 3770 5100 5390
2020-05-25 05:45 14.67 4050 6130 (2017) 66 (1975) 1640 71 87 111 122 839 2960 3770 5100 5390
2020-05-25 04:45 14.74 4100 6130 (2017) 66 (1975) 1640 71 87 111 122 839 2960 3770 5100 5390
2020-05-25 03:45 14.89 4210 6130 (2017) 66 (1975) 1640 71 87 111 122 839 2960 3770 5100 5390
2020-05-25 02:45 15.08 4350 6130 (2017) 66 (1975) 1640 71 87 111 122 839 2960 3770 5100 5390
2020-05-25 01:45 15.33 4540 6130 (2017) 66 (1975) 1640 71 87 111 122 839 2960 3770 5100 5390
2020-05-25 00:45 15.55 4710 6130 (2017) 66 (1975) 1640 71 87 111 122 839 2960 3770 5100 5390
2020-05-24 23:45 15.90 4980 6170 (2017) 70 (2006) 1790 75 96 138 167 1150 3340 3560 4930 5680
2020-05-24 22:45 16.24 5250 6170 (2017) 70 (2006) 1790 75 96 138 167 1150 3340 3560 4930 5680
2020-05-24 21:45 16.62 5560 6170 (2017) 70 (2006) 1790 75 96 138 167 1150 3340 3560 4930 5680
2020-05-24 20:45 16.69 5620 6170 (2017) 70 (2006) 1790 75 96 138 167 1150 3340 3560 4930 5680
2020-05-24 19:45 16.68 5610 6170 (2017) 70 (2006) 1790 75 96 138 167 1150 3340 3560 4930 5680
2020-05-24 18:45 16.60 5540 6170 (2017) 70 (2006) 1790 75 96 138 167 1150 3340 3560 4930 5680
2020-05-24 17:45 16.59 5530 6170 (2017) 70 (2006) 1790 75 96 138 167 1150 3340 3560 4930 5680
2020-05-24 16:45 16.58 5520 6170 (2017) 70 (2006) 1790 75 96 138 167 1150 3340 3560 4930 5680
2020-05-24 15:45 16.52 5480 6170 (2017) 70 (2006) 1790 75 96 138 167 1150 3340 3560 4930 5680
2020-05-24 14:45 16.51 5470 6170 (2017) 70 (2006) 1790 75 96 138 167 1150 3340 3560 4930 5680
2020-05-24 13:45 16.51 5470 6170 (2017) 70 (2006) 1790 75 96 138 167 1150 3340 3560 4930 5680
2020-05-24 12:45 16.32 5310 6170 (2017) 70 (2006) 1790 75 96 138 167 1150 3340 3560 4930 5680
2020-05-24 11:45 16.22 5230 6170 (2017) 70 (2006) 1790 75 96 138 167 1150 3340 3560 4930 5680
2020-05-24 10:45 16.08 5120 6170 (2017) 70 (2006) 1790 75 96 138 167 1150 3340 3560 4930 5680
2020-05-24 09:45 15.79 4890 6170 (2017) 70 (2006) 1790 75 96 138 167 1150 3340 3560 4930 5680
2020-05-24 08:45 15.52 4680 6170 (2017) 70 (2006) 1790 75 96 138 167 1150 3340 3560 4930 5680
2020-05-24 07:45 15.18 4430 6170 (2017) 70 (2006) 1790 75 96 138 167 1150 3340 3560 4930 5680
2020-05-24 06:45 14.99 4290 6170 (2017) 70 (2006) 1790 75 96 138 167 1150 3340 3560 4930 5680
2020-05-24 05:45 15.08 4350 6170 (2017) 70 (2006) 1790 75 96 138 167 1150 3340 3560 4930 5680
2020-05-24 04:45 15.33 4540 6170 (2017) 70 (2006) 1790 75 96 138 167 1150 3340 3560 4930 5680
2020-05-24 03:45 15.62 4760 6170 (2017) 70 (2006) 1790 75 96 138 167 1150 3340 3560 4930 5680
2020-05-24 02:45 15.94 5010 6170 (2017) 70 (2006) 1790 75 96 138 167 1150 3340 3560 4930 5680
2020-05-24 01:45 16.32 5310 6170 (2017) 70 (2006) 1790 75 96 138 167 1150 3340 3560 4930 5680
2020-05-24 00:45 16.76 5670 6170 (2017) 70 (2006) 1790 75 96 138 167 1150 3340 3560 4930 5680
2020-05-23 23:45 16.72 5640 5950 (2017) 71 (2006) 1930 82 95 144 298 1290 3180 3660 5130 5710
2020-05-23 22:45 16.72 5640 5950 (2017) 71 (2006) 1930 82 95 144 298 1290 3180 3660 5130 5710
2020-05-23 21:45 16.75 5670 5950 (2017) 71 (2006) 1930 82 95 144 298 1290 3180 3660 5130 5710
2020-05-23 20:45 16.74 5660 5950 (2017) 71 (2006) 1930 82 95 144 298 1290 3180 3660 5130 5710
2020-05-23 19:45 16.70 5620 5950 (2017) 71 (2006) 1930 82 95 144 298 1290 3180 3660 5130 5710
2020-05-23 18:45 16.71 5630 5950 (2017) 71 (2006) 1930 82 95 144 298 1290 3180 3660 5130 5710
2020-05-23 17:45 16.68 5610 5950 (2017) 71 (2006) 1930 82 95 144 298 1290 3180 3660 5130 5710
2020-05-23 16:45 16.69 5620 5950 (2017) 71 (2006) 1930 82 95 144 298 1290 3180 3660 5130 5710
2020-05-23 15:45 16.62 5560 5950 (2017) 71 (2006) 1930 82 95 144 298 1290 3180 3660 5130 5710
2020-05-23 14:45 16.62 5560 5950 (2017) 71 (2006) 1930 82 95 144 298 1290 3180 3660 5130 5710
2020-05-23 13:45 16.50 5460 5950 (2017) 71 (2006) 1930 82 95 144 298 1290 3180 3660 5130 5710
2020-05-23 12:45 16.38 5360 5950 (2017) 71 (2006) 1930 82 95 144 298 1290 3180 3660 5130 5710
2020-05-23 11:45 16.22 5230 5950 (2017) 71 (2006) 1930 82 95 144 298 1290 3180 3660 5130 5710
2020-05-23 10:45 16.06 5100 5950 (2017) 71 (2006) 1930 82 95 144 298 1290 3180 3660 5130 5710
2020-05-23 09:45 15.79 4890 5950 (2017) 71 (2006) 1930 82 95 144 298 1290 3180 3660 5130 5710
2020-05-23 08:45 15.31 4520 5950 (2017) 71 (2006) 1930 82 95 144 298 1290 3180 3660 5130 5710
2020-05-23 07:45 14.71 4080 5950 (2017) 71 (2006) 1930 82 95 144 298 1290 3180 3660 5130 5710
2020-05-23 06:45 13.70 3380 5950 (2017) 71 (2006) 1930 82 95 144 298 1290 3180 3660 5130 5710
2020-05-23 05:45 12.08 2380 5950 (2017) 71 (2006) 1930 82 95 144 298 1290 3180 3660 5130 5710
2020-05-23 04:45 8.92 927 5950 (2017) 71 (2006) 1930 82 95 144 298 1290 3180 3660 5130 5710
2020-05-23 03:45 7.96 610 5950 (2017) 71 (2006) 1930 82 95 144 298 1290 3180 3660 5130 5710
2020-05-23 02:45 8.05 637 5950 (2017) 71 (2006) 1930 82 95 144 298 1290 3180 3660 5130 5710
2020-05-23 01:45 8.19 681 5950 (2017) 71 (2006) 1930 82 95 144 298 1290 3180 3660 5130 5710
2020-05-23 00:45 8.34 729 5950 (2017) 71 (2006) 1930 82 95 144 298 1290 3180 3660 5130 5710
2020-05-22 23:45 8.56 802 5950 (2009) 70 (2006) 1830 81 116 156 331 1180 3150 3620 4840 5600
2020-05-22 22:45 8.83 895 5950 (2009) 70 (2006) 1830 81 116 156 331 1180 3150 3620 4840 5600
2020-05-22 21:45 9.19 1030 5950 (2009) 70 (2006) 1830 81 116 156 331 1180 3150 3620 4840 5600
2020-05-22 20:45 9.67 1210 5950 (2009) 70 (2006) 1830 81 116 156 331 1180 3150 3620 4840 5600
2020-05-22 19:45 10.28 1470 5950 (2009) 70 (2006) 1830 81 116 156 331 1180 3150 3620 4840 5600
2020-05-22 18:45 11.04 1820 5950 (2009) 70 (2006) 1830 81 116 156 331 1180 3150 3620 4840 5600
2020-05-22 17:45 11.96 2310 5950 (2009) 70 (2006) 1830 81 116 156 331 1180 3150 3620 4840 5600
2020-05-22 16:45 12.99 2920 5950 (2009) 70 (2006) 1830 81 116 156 331 1180 3150 3620 4840 5600
2020-05-22 15:45 14.14 3680 5950 (2009) 70 (2006) 1830 81 116 156 331 1180 3150 3620 4840 5600
2020-05-22 14:45 15.38 4580 5950 (2009) 70 (2006) 1830 81 116 156 331 1180 3150 3620 4840 5600
2020-05-22 13:45 16.35 5340 5950 (2009) 70 (2006) 1830 81 116 156 331 1180 3150 3620 4840 5600
2020-05-22 12:45 16.37 5350 5950 (2009) 70 (2006) 1830 81 116 156 331 1180 3150 3620 4840 5600
2020-05-22 11:45 16.20 5220 5950 (2009) 70 (2006) 1830 81 116 156 331 1180 3150 3620 4840 5600
2020-05-22 10:45 16.12 5150 5950 (2009) 70 (2006) 1830 81 116 156 331 1180 3150 3620 4840 5600
2020-05-22 09:45 15.74 4850 5950 (2009) 70 (2006) 1830 81 116 156 331 1180 3150 3620 4840 5600
2020-05-22 08:45 15.43 4610 5950 (2009) 70 (2006) 1830 81 116 156 331 1180 3150 3620 4840 5600
2020-05-22 07:45 14.99 4290 5950 (2009) 70 (2006) 1830 81 116 156 331 1180 3150 3620 4840 5600
2020-05-22 06:45 14.69 4070 5950 (2009) 70 (2006) 1830 81 116 156 331 1180 3150 3620 4840 5600
2020-05-22 05:45 14.75 4110 5950 (2009) 70 (2006) 1830 81 116 156 331 1180 3150 3620 4840 5600
2020-05-22 04:45 14.85 4180 5950 (2009) 70 (2006) 1830 81 116 156 331 1180 3150 3620 4840 5600
2020-05-22 03:45 14.99 4290 5950 (2009) 70 (2006) 1830 81 116 156 331 1180 3150 3620 4840 5600
2020-05-22 02:45 15.15 4400 5950 (2009) 70 (2006) 1830 81 116 156 331 1180 3150 3620 4840 5600
2020-05-22 01:45 15.44 4620 5950 (2009) 70 (2006) 1830 81 116 156 331 1180 3150 3620 4840 5600
2020-05-22 00:45 15.66 4790 5950 (2009) 70 (2006) 1830 81 116 156 331 1180 3150 3620 4840 5600
2020-05-21 23:45 16.02 5070 9300 (2019) 71 (2006) 2030 82 98 197 353 1440 3150 3560 5180 6190
2020-05-21 22:45 16.41 5390 9300 (2019) 71 (2006) 2030 82 98 197 353 1440 3150 3560 5180 6190
2020-05-21 21:45 16.73 5650 9300 (2019) 71 (2006) 2030 82 98 197 353 1440 3150 3560 5180 6190
2020-05-21 20:45 16.76 5670 9300 (2019) 71 (2006) 2030 82 98 197 353 1440 3150 3560 5180 6190
2020-05-21 19:45 16.75 5670 9300 (2019) 71 (2006) 2030 82 98 197 353 1440 3150 3560 5180 6190
2020-05-21 18:45 16.73 5650 9300 (2019) 71 (2006) 2030 82 98 197 353 1440 3150 3560 5180 6190
2020-05-21 17:45 16.69 5620 9300 (2019) 71 (2006) 2030 82 98 197 353 1440 3150 3560 5180 6190
2020-05-21 16:45 16.67 5600 9300 (2019) 71 (2006) 2030 82 98 197 353 1440 3150 3560 5180 6190
2020-05-21 15:45 16.59 5530 9300 (2019) 71 (2006) 2030 82 98 197 353 1440 3150 3560 5180 6190
2020-05-21 14:45 16.55 5500 9300 (2019) 71 (2006) 2030 82 98 197 353 1440 3150 3560 5180 6190
2020-05-21 13:45 16.43 5400 9300 (2019) 71 (2006) 2030 82 98 197 353 1440 3150 3560 5180 6190
2020-05-21 12:45 16.35 5340 9300 (2019) 71 (2006) 2030 82 98 197 353 1440 3150 3560 5180 6190
2020-05-21 11:45 16.19 5210 9300 (2019) 71 (2006) 2030 82 98 197 353 1440 3150 3560 5180 6190
2020-05-21 10:45 16.03 5080 9300 (2019) 71 (2006) 2030 82 98 197 353 1440 3150 3560 5180 6190
2020-05-21 09:45 15.76 4870 9300 (2019) 71 (2006) 2030 82 98 197 353 1440 3150 3560 5180 6190
2020-05-21 08:45 15.51 4680 9300 (2019) 71 (2006) 2030 82 98 197 353 1440 3150 3560 5180 6190
2020-05-21 07:45 15.04 4320 9300 (2019) 71 (2006) 2030 82 98 197 353 1440 3150 3560 5180 6190
2020-05-21 06:45 14.73 4100 9300 (2019) 71 (2006) 2030 82 98 197 353 1440 3150 3560 5180 6190
2020-05-21 05:45 14.72 4090 9300 (2019) 71 (2006) 2030 82 98 197 353 1440 3150 3560 5180 6190
2020-05-21 04:45 14.81 4150 9300 (2019) 71 (2006) 2030 82 98 197 353 1440 3150 3560 5180 6190
2020-05-21 03:45 14.95 4260 9300 (2019) 71 (2006) 2030 82 98 197 353 1440 3150 3560 5180 6190
2020-05-21 02:45 15.20 4440 9300 (2019) 71 (2006) 2030 82 98 197 353 1440 3150 3560 5180 6190
2020-05-21 01:45 15.35 4550 9300 (2019) 71 (2006) 2030 82 98 197 353 1440 3150 3560 5180 6190
2020-05-21 00:45 15.66 4790 9300 (2019) 71 (2006) 2030 82 98 197 353 1440 3150 3560 5180 6190
2020-05-20 23:45 15.98 5040 6480 (2008) 72 (2006) 1890 81 94 247 323 1730 2920 3190 4540 5730
2020-05-20 22:45 16.43 5400 6480 (2008) 72 (2006) 1890 81 94 247 323 1730 2920 3190 4540 5730
2020-05-20 21:45 16.75 5670 6480 (2008) 72 (2006) 1890 81 94 247 323 1730 2920 3190 4540 5730
2020-05-20 20:45 16.76 5670 6480 (2008) 72 (2006) 1890 81 94 247 323 1730 2920 3190 4540 5730
2020-05-20 19:45 16.82 5720 6480 (2008) 72 (2006) 1890 81 94 247 323 1730 2920 3190 4540 5730
2020-05-20 18:45 16.78 5690 6480 (2008) 72 (2006) 1890 81 94 247 323 1730 2920 3190 4540 5730
2020-05-20 17:45 16.71 5630 6480 (2008) 72 (2006) 1890 81 94 247 323 1730 2920 3190 4540 5730
2020-05-20 16:45 16.69 5620 6480 (2008) 72 (2006) 1890 81 94 247 323 1730 2920 3190 4540 5730
2020-05-20 15:45 16.65 5580 6480 (2008) 72 (2006) 1890 81 94 247 323 1730 2920 3190 4540 5730
2020-05-20 14:45 16.59 5530 6480 (2008) 72 (2006) 1890 81 94 247 323 1730 2920 3190 4540 5730
2020-05-20 13:45 16.56 5510 6480 (2008) 72 (2006) 1890 81 94 247 323 1730 2920 3190 4540 5730
2020-05-20 12:45 16.43 5400 6480 (2008) 72 (2006) 1890 81 94 247 323 1730 2920 3190 4540 5730
2020-05-20 11:45 16.44 5410 6480 (2008) 72 (2006) 1890 81 94 247 323 1730 2920 3190 4540 5730
2020-05-20 10:45 16.23 5240 6480 (2008) 72 (2006) 1890 81 94 247 323 1730 2920 3190 4540 5730
2020-05-20 09:45 15.97 5030 6480 (2008) 72 (2006) 1890 81 94 247 323 1730 2920 3190 4540 5730
2020-05-20 08:45 15.65 4780 6480 (2008) 72 (2006) 1890 81 94 247 323 1730 2920 3190 4540 5730
2020-05-20 07:45 15.29 4510 6480 (2008) 72 (2006) 1890 81 94 247 323 1730 2920 3190 4540 5730
2020-05-20 06:45 14.64 4030 6480 (2008) 72 (2006) 1890 81 94 247 323 1730 2920 3190 4540 5730
2020-05-20 05:45 13.72 3390 6480 (2008) 72 (2006) 1890 81 94 247 323 1730 2920 3190 4540 5730
2020-05-20 04:45 12.15 2420 6480 (2008) 72 (2006) 1890 81 94 247 323 1730 2920 3190 4540 5730
2020-05-20 03:45 9.23 1040 6480 (2008) 72 (2006) 1890 81 94 247 323 1730 2920 3190 4540 5730
2020-05-20 02:45 8.45 765 6480 (2008) 72 (2006) 1890 81 94 247 323 1730 2920 3190 4540 5730
2020-05-20 01:45 8.90 920 6480 (2008) 72 (2006) 1890 81 94 247 323 1730 2920 3190 4540 5730
2020-05-20 00:45 9.52 1150 6480 (2008) 72 (2006) 1890 81 94 247 323 1730 2920 3190 4540 5730
2020-05-19 23:45 10.20 1440 6380 (2008) 74 (2006) 1660 85 97 144 221 1150 2900 3170 3720 5480
2020-05-19 22:45 10.99 1800 6380 (2008) 74 (2006) 1660 85 97 144 221 1150 2900 3170 3720 5480
2020-05-19 21:45 12.00 2340 6380 (2008) 74 (2006) 1660 85 97 144 221 1150 2900 3170 3720 5480
2020-05-19 20:45 13.11 3000 6380 (2008) 74 (2006) 1660 85 97 144 221 1150 2900 3170 3720 5480
2020-05-19 19:45 14.32 3800 6380 (2008) 74 (2006) 1660 85 97 144 221 1150 2900 3170 3720 5480
2020-05-19 18:45 15.55 4710 6380 (2008) 74 (2006) 1660 85 97 144 221 1150 2900 3170 3720 5480
2020-05-19 17:45 16.70 5620 6380 (2008) 74 (2006) 1660 85 97 144 221 1150 2900 3170 3720 5480
2020-05-19 16:45 16.87 5770 6380 (2008) 74 (2006) 1660 85 97 144 221 1150 2900 3170 3720 5480
2020-05-19 15:45 16.95 5830 6380 (2008) 74 (2006) 1660 85 97 144 221 1150 2900 3170 3720 5480
2020-05-19 14:45 16.90 5790 6380 (2008) 74 (2006) 1660 85 97 144 221 1150 2900 3170 3720 5480
2020-05-19 13:45 16.90 5790 6380 (2008) 74 (2006) 1660 85 97 144 221 1150 2900 3170 3720 5480
2020-05-19 12:45 16.89 5780 6380 (2008) 74 (2006) 1660 85 97 144 221 1150 2900 3170 3720 5480
2020-05-19 11:45 16.88 5770 6380 (2008) 74 (2006) 1660 85 97 144 221 1150 2900 3170 3720 5480
2020-05-19 10:45 16.89 5780 6380 (2008) 74 (2006) 1660 85 97 144 221 1150 2900 3170 3720 5480
2020-05-19 09:45 16.88 5770 6380 (2008) 74 (2006) 1660 85 97 144 221 1150 2900 3170 3720 5480
2020-05-19 08:45 16.89 5780 6380 (2008) 74 (2006) 1660 85 97 144 221 1150 2900 3170 3720 5480
2020-05-19 07:45 16.87 5770 6380 (2008) 74 (2006) 1660 85 97 144 221 1150 2900 3170 3720 5480
2020-05-19 06:45 16.84 5740 6380 (2008) 74 (2006) 1660 85 97 144 221 1150 2900 3170 3720 5480
2020-05-19 05:45 16.89 5780 6380 (2008) 74 (2006) 1660 85 97 144 221 1150 2900 3170 3720 5480
2020-05-19 04:45 16.84 5740 6380 (2008) 74 (2006) 1660 85 97 144 221 1150 2900 3170 3720 5480
2020-05-19 03:45 16.83 5730 6380 (2008) 74 (2006) 1660 85 97 144 221 1150 2900 3170 3720 5480
2020-05-19 02:45 16.86 5760 6380 (2008) 74 (2006) 1660 85 97 144 221 1150 2900 3170 3720 5480
2020-05-19 01:45 16.90 5790 6380 (2008) 74 (2006) 1660 85 97 144 221 1150 2900 3170 3720 5480
2020-05-19 00:45 16.88 5770 6380 (2008) 74 (2006) 1660 85 97 144 221 1150 2900 3170 3720 5480
2020-05-18 23:45 16.88 5770 6590 (2008) 68 (1975) 1660 79 88 179 225 1040 2640 3270 4720 5500
2020-05-18 22:45 16.81 5720 6590 (2008) 68 (1975) 1660 79 88 179 225 1040 2640 3270 4720 5500
2020-05-18 21:45 17.00 5870 6590 (2008) 68 (1975) 1660 79 88 179 225 1040 2640 3270 4720 5500
2020-05-18 20:45 16.75 5670 6590 (2008) 68 (1975) 1660 79 88 179 225 1040 2640 3270 4720 5500
2020-05-18 19:45 16.89 5780 6590 (2008) 68 (1975) 1660 79 88 179 225 1040 2640 3270 4720 5500
2020-05-18 18:45 16.74 5660 6590 (2008) 68 (1975) 1660 79 88 179 225 1040 2640 3270 4720 5500
2020-05-18 17:45 16.64 5570 6590 (2008) 68 (1975) 1660 79 88 179 225 1040 2640 3270 4720 5500
2020-05-18 16:45 16.55 5500 6590 (2008) 68 (1975) 1660 79 88 179 225 1040 2640 3270 4720 5500
2020-05-18 15:45 16.43 5400 6590 (2008) 68 (1975) 1660 79 88 179 225 1040 2640 3270 4720 5500
2020-05-18 14:45 16.29 5290 6590 (2008) 68 (1975) 1660 79 88 179 225 1040 2640 3270 4720 5500
2020-05-18 13:45 15.98 5040 6590 (2008) 68 (1975) 1660 79 88 179 225 1040 2640 3270 4720 5500
2020-05-18 12:45 15.65 4780 6590 (2008) 68 (1975) 1660 79 88 179 225 1040 2640 3270 4720 5500
2020-05-18 11:45 15.17 4420 6590 (2008) 68 (1975) 1660 79 88 179 225 1040 2640 3270 4720 5500
2020-05-18 10:45 14.31 3800 6590 (2008) 68 (1975) 1660 79 88 179 225 1040 2640 3270 4720 5500
2020-05-18 09:45 12.99 2920 6590 (2008) 68 (1975) 1660 79 88 179 225 1040 2640 3270 4720 5500
2020-05-18 08:45 9.47 1130 6590 (2008) 68 (1975) 1660 79 88 179 225 1040 2640 3270 4720 5500
2020-05-18 07:45 8.38 742 6590 (2008) 68 (1975) 1660 79 88 179 225 1040 2640 3270 4720 5500
2020-05-18 06:45 8.58 809 6590 (2008) 68 (1975) 1660 79 88 179 225 1040 2640 3270 4720 5500
2020-05-18 05:45 9.00 956 6590 (2008) 68 (1975) 1660 79 88 179 225 1040 2640 3270 4720 5500
2020-05-18 04:45 9.43 1120 6590 (2008) 68 (1975) 1660 79 88 179 225 1040 2640 3270 4720 5500
2020-05-18 03:45 10.01 1350 6590 (2008) 68 (1975) 1660 79 88 179 225 1040 2640 3270 4720 5500
2020-05-18 02:45 10.74 1680 6590 (2008) 68 (1975) 1660 79 88 179 225 1040 2640 3270 4720 5500
2020-05-18 01:45 11.62 2120 6590 (2008) 68 (1975) 1660 79 88 179 225 1040 2640 3270 4720 5500
2020-05-18 00:45 12.61 2690 6590 (2008) 68 (1975) 1660 79 88 179 225 1040 2640 3270 4720 5500
2020-05-17 23:45 13.70 3380 6620 (2008) 80 (2006) 1950 84 88 137 336 1480 3320 3450 4860 5660
2020-05-17 22:45 14.93 4240 6620 (2008) 80 (2006) 1950 84 88 137 336 1480 3320 3450 4860 5660
2020-05-17 21:45 16.22 5230 6620 (2008) 80 (2006) 1950 84 88 137 336 1480 3320 3450 4860 5660
2020-05-17 20:45 17.40 6220 6620 (2008) 80 (2006) 1950 84 88 137 336 1480 3320 3450 4860 5660
2020-05-17 19:45 17.57 6360 6620 (2008) 80 (2006) 1950 84 88 137 336 1480 3320 3450 4860 5660
2020-05-17 18:45 17.51 6310 6620 (2008) 80 (2006) 1950 84 88 137 336 1480 3320 3450 4860 5660
2020-05-17 17:45 17.26 6100 6620 (2008) 80 (2006) 1950 84 88 137 336 1480 3320 3450 4860 5660
2020-05-17 16:45 17.07 5930 6620 (2008) 80 (2006) 1950 84 88 137 336 1480 3320 3450 4860 5660
2020-05-17 15:45 16.46 5430 6620 (2008) 80 (2006) 1950 84 88 137 336 1480 3320 3450 4860 5660
2020-05-17 14:45 15.78 4880 6620 (2008) 80 (2006) 1950 84 88 137 336 1480 3320 3450 4860 5660
2020-05-17 13:45 14.74 4100 6620 (2008) 80 (2006) 1950 84 88 137 336 1480 3320 3450 4860 5660
2020-05-17 12:45 12.96 2910 6620 (2008) 80 (2006) 1950 84 88 137 336 1480 3320 3450 4860 5660
2020-05-17 11:45 9.77 1250 6620 (2008) 80 (2006) 1950 84 88 137 336 1480 3320 3450 4860 5660
2020-05-17 10:45 8.21 687 6620 (2008) 80 (2006) 1950 84 88 137 336 1480 3320 3450 4860 5660
2020-05-17 09:45 8.26 703 6620 (2008) 80 (2006) 1950 84 88 137 336 1480 3320 3450 4860 5660
2020-05-17 08:45 8.32 723 6620 (2008) 80 (2006) 1950 84 88 137 336 1480 3320 3450 4860 5660
2020-05-17 07:45 8.40 749 6620 (2008) 80 (2006) 1950 84 88 137 336 1480 3320 3450 4860 5660
2020-05-17 06:45 8.45 765 6620 (2008) 80 (2006) 1950 84 88 137 336 1480 3320 3450 4860 5660
2020-05-17 05:45 8.48 775 6620 (2008) 80 (2006) 1950 84 88 137 336 1480 3320 3450 4860 5660
2020-05-17 04:45 8.49 779 6620 (2008) 80 (2006) 1950 84 88 137 336 1480 3320 3450 4860 5660
2020-05-17 03:45 8.53 792 6620 (2008) 80 (2006) 1950 84 88 137 336 1480 3320 3450 4860 5660
2020-05-17 02:45 8.53 792 6620 (2008) 80 (2006) 1950 84 88 137 336 1480 3320 3450 4860 5660
2020-05-17 01:45 8.66 836 6620 (2008) 80 (2006) 1950 84 88 137 336 1480 3320 3450 4860 5660
2020-05-17 00:45 8.89 917 6620 (2008) 80 (2006) 1950 84 88 137 336 1480 3320 3450 4860 5660
2020-05-16 23:45 9.17 1020 6720 (2008) 72 (1977) 1940 80 88 165 370 1600 2920 3250 4700 5870
2020-05-16 22:45 9.54 1160 6720 (2008) 72 (1977) 1940 80 88 165 370 1600 2920 3250 4700 5870
2020-05-16 21:45 9.95 1330 6720 (2008) 72 (1977) 1940 80 88 165 370 1600 2920 3250 4700 5870
2020-05-16 20:45 10.39 1520 6720 (2008) 72 (1977) 1940 80 88 165 370 1600 2920 3250 4700 5870
2020-05-16 19:45 10.82 1720 6720 (2008) 72 (1977) 1940 80 88 165 370 1600 2920 3250 4700 5870
2020-05-16 18:45 11.01 1810 6720 (2008) 72 (1977) 1940 80 88 165 370 1600 2920 3250 4700 5870
2020-05-16 17:45 9.82 1270 6720 (2008) 72 (1977) 1940 80 88 165 370 1600 2920 3250 4700 5870
2020-05-16 16:45 8.61 819 6720 (2008) 72 (1977) 1940 80 88 165 370 1600 2920 3250 4700 5870
2020-05-16 15:45 8.70 850 6720 (2008) 72 (1977) 1940 80 88 165 370 1600 2920 3250 4700 5870
2020-05-16 14:45 8.76 871 6720 (2008) 72 (1977) 1940 80 88 165 370 1600 2920 3250 4700 5870
2020-05-16 13:45 8.81 888 6720 (2008) 72 (1977) 1940 80 88 165 370 1600 2920 3250 4700 5870
2020-05-16 12:45 8.93 931 6720 (2008) 72 (1977) 1940 80 88 165 370 1600 2920 3250 4700 5870
2020-05-16 11:45 9.01 960 6720 (2008) 72 (1977) 1940 80 88 165 370 1600 2920 3250 4700 5870
2020-05-16 10:45 9.15 1010 6720 (2008) 72 (1977) 1940 80 88 165 370 1600 2920 3250 4700 5870
2020-05-16 09:45 9.25 1050 6720 (2008) 72 (1977) 1940 80 88 165 370 1600 2920 3250 4700 5870
2020-05-16 08:45 9.46 1130 6720 (2008) 72 (1977) 1940 80 88 165 370 1600 2920 3250 4700 5870
2020-05-16 07:45 9.62 1190 6720 (2008) 72 (1977) 1940 80 88 165 370 1600 2920 3250 4700 5870
2020-05-16 06:45 9.83 1280 6720 (2008) 72 (1977) 1940 80 88 165 370 1600 2920 3250 4700 5870
2020-05-16 05:45 10.15 1410 6720 (2008) 72 (1977) 1940 80 88 165 370 1600 2920 3250 4700 5870
2020-05-16 04:45 10.37 1510 6720 (2008) 72 (1977) 1940 80 88 165 370 1600 2920 3250 4700 5870
2020-05-16 03:45 10.69 1650 6720 (2008) 72 (1977) 1940 80 88 165 370 1600 2920 3250 4700 5870
2020-05-16 02:45 11.13 1870 6720 (2008) 72 (1977) 1940 80 88 165 370 1600 2920 3250 4700 5870
2020-05-16 01:45 11.69 2160 6720 (2008) 72 (1977) 1940 80 88 165 370 1600 2920 3250 4700 5870
2020-05-16 00:45 12.26 2480 6720 (2008) 72 (1977) 1940 80 88 165 370 1600 2920 3250 4700 5870
2020-05-15 23:45 12.92 2880 6140 (2017) 72 (1977) 2080 84 90 127 407 1820 3020 3260 4290 6000
2020-05-15 22:45 13.77 3430 6140 (2017) 72 (1977) 2080 84 90 127 407 1820 3020 3260 4290 6000
2020-05-15 21:45 14.46 3900 6140 (2017) 72 (1977) 2080 84 90 127 407 1820 3020 3260 4290 6000
2020-05-15 20:45 15.29 4510 6140 (2017) 72 (1977) 2080 84 90 127 407 1820 3020 3260 4290 6000
2020-05-15 19:45 15.91 4990 6140 (2017) 72 (1977) 2080 84 90 127 407 1820 3020 3260 4290 6000
2020-05-15 18:45 16.28 5280 6140 (2017) 72 (1977) 2080 84 90 127 407 1820 3020 3260 4290 6000
2020-05-15 17:45 14.90 4220 6140 (2017) 72 (1977) 2080 84 90 127 407 1820 3020 3260 4290 6000
2020-05-15 16:45 13.40 3180 6140 (2017) 72 (1977) 2080 84 90 127 407 1820 3020 3260 4290 6000
2020-05-15 15:45 13.04 2960 6140 (2017) 72 (1977) 2080 84 90 127 407 1820 3020 3260 4290 6000
2020-05-15 14:45 12.84 2830 6140 (2017) 72 (1977) 2080 84 90 127 407 1820 3020 3260 4290 6000
2020-05-15 13:45 12.44 2590 6140 (2017) 72 (1977) 2080 84 90 127 407 1820 3020 3260 4290 6000
2020-05-15 12:45 12.06 2370 6140 (2017) 72 (1977) 2080 84 90 127 407 1820 3020 3260 4290 6000
2020-05-15 11:45 11.69 2160 6140 (2017) 72 (1977) 2080 84 90 127 407 1820 3020 3260 4290 6000
2020-05-15 10:45 11.20 1900 6140 (2017) 72 (1977) 2080 84 90 127 407 1820 3020 3260 4290 6000
2020-05-15 09:45 10.86 1730 6140 (2017) 72 (1977) 2080 84 90 127 407 1820 3020 3260 4290 6000
2020-05-15 08:45 10.54 1590 6140 (2017) 72 (1977) 2080 84 90 127 407 1820 3020 3260 4290 6000
2020-05-15 07:45 10.19 1430 6140 (2017) 72 (1977) 2080 84 90 127 407 1820 3020 3260 4290 6000
2020-05-15 06:45 9.77 1250 6140 (2017) 72 (1977) 2080 84 90 127 407 1820 3020 3260 4290 6000
2020-05-15 05:45 9.35 1090 6140 (2017) 72 (1977) 2080 84 90 127 407 1820 3020 3260 4290 6000
2020-05-15 04:45 9.02 963 6140 (2017) 72 (1977) 2080 84 90 127 407 1820 3020 3260 4290 6000
2020-05-15 03:45 8.77 874 6140 (2017) 72 (1977) 2080 84 90 127 407 1820 3020 3260 4290 6000
2020-05-15 02:45 8.91 924 6140 (2017) 72 (1977) 2080 84 90 127 407 1820 3020 3260 4290 6000
2020-05-15 01:45 9.21 1030 6140 (2017) 72 (1977) 2080 84 90 127 407 1820 3020 3260 4290 6000
2020-05-15 00:45 9.78 1260 6140 (2017) 72 (1977) 2080 84 90 127 407 1820 3020 3260 4290 6000
2020-05-14 23:45 10.47 1550 5970 (2017) 73 (1977) 1990 90 93 165 335 1810 3220 3400 4680 5710
2020-05-14 22:45 11.20 1900 5970 (2017) 73 (1977) 1990 90 93 165 335 1810 3220 3400 4680 5710
2020-05-14 21:45 12.06 2370 5970 (2017) 73 (1977) 1990 90 93 165 335 1810 3220 3400 4680 5710
2020-05-14 20:45 12.86 2840 5970 (2017) 73 (1977) 1990 90 93 165 335 1810 3220 3400 4680 5710
2020-05-14 19:45 13.36 3160 5970 (2017) 73 (1977) 1990 90 93 165 335 1810 3220 3400 4680 5710
2020-05-14 18:45 12.61 2690 5970 (2017) 73 (1977) 1990 90 93 165 335 1810 3220 3400 4680 5710
2020-05-14 17:45 10.73 1670 5970 (2017) 73 (1977) 1990 90 93 165 335 1810 3220 3400 4680 5710
2020-05-14 16:45 9.99 1350 5970 (2017) 73 (1977) 1990 90 93 165 335 1810 3220 3400 4680 5710
2020-05-14 15:45 10.69 1650 5970 (2017) 73 (1977) 1990 90 93 165 335 1810 3220 3400 4680 5710
2020-05-14 14:45 11.46 2040 5970 (2017) 73 (1977) 1990 90 93 165 335 1810 3220 3400 4680 5710
2020-05-14 13:45 12.38 2550 5970 (2017) 73 (1977) 1990 90 93 165 335 1810 3220 3400 4680 5710
2020-05-14 12:45 13.44 3210 5970 (2017) 73 (1977) 1990 90 93 165 335 1810 3220 3400 4680 5710
2020-05-14 11:45 14.57 3980 5970 (2017) 73 (1977) 1990 90 93 165 335 1810 3220 3400 4680 5710
2020-05-14 10:45 15.74 4850 5970 (2017) 73 (1977) 1990 90 93 165 335 1810 3220 3400 4680 5710
2020-05-14 09:45 16.82 5720 5970 (2017) 73 (1977) 1990 90 93 165 335 1810 3220 3400 4680 5710
2020-05-14 08:45 16.76 5670 5970 (2017) 73 (1977) 1990 90 93 165 335 1810 3220 3400 4680 5710
2020-05-14 07:45 16.38 5360 5970 (2017) 73 (1977) 1990 90 93 165 335 1810 3220 3400 4680 5710
2020-05-14 06:45 15.95 5020 5970 (2017) 73 (1977) 1990 90 93 165 335 1810 3220 3400 4680 5710
2020-05-14 05:45 15.29 4510 5970 (2017) 73 (1977) 1990 90 93 165 335 1810 3220 3400 4680 5710
2020-05-14 04:45 14.27 3770 5970 (2017) 73 (1977) 1990 90 93 165 335 1810 3220 3400 4680 5710
2020-05-14 03:45 13.11 3000 5970 (2017) 73 (1977) 1990 90 93 165 335 1810 3220 3400 4680 5710
2020-05-14 02:45 12.51 2630 5970 (2017) 73 (1977) 1990 90 93 165 335 1810 3220 3400 4680 5710
2020-05-14 01:45 13.42 3200 5970 (2017) 73 (1977) 1990 90 93 165 335 1810 3220 3400 4680 5710
2020-05-14 00:45 14.51 3940 5970 (2017) 73 (1977) 1990 90 93 165 335 1810 3220 3400 4680 5710
2020-05-13 23:45 15.68 4810 6670 (2002) 75 (1977) 2060 91 101 149 192 1690 3400 3460 4670 6050
2020-05-13 22:45 16.73 5650 6670 (2002) 75 (1977) 2060 91 101 149 192 1690 3400 3460 4670 6050
2020-05-13 21:45 16.80 5710 6670 (2002) 75 (1977) 2060 91 101 149 192 1690 3400 3460 4670 6050
2020-05-13 20:45 16.62 5560 6670 (2002) 75 (1977) 2060 91 101 149 192 1690 3400 3460 4670 6050
2020-05-13 19:45 16.41 5390 6670 (2002) 75 (1977) 2060 91 101 149 192 1690 3400 3460 4670 6050
2020-05-13 18:45 15.94 5010 6670 (2002) 75 (1977) 2060 91 101 149 192 1690 3400 3460 4670 6050
2020-05-13 17:45 15.55 4710 6670 (2002) 75 (1977) 2060 91 101 149 192 1690 3400 3460 4670 6050
2020-05-13 16:45 14.86 4190 6670 (2002) 75 (1977) 2060 91 101 149 192 1690 3400 3460 4670 6050
2020-05-13 15:45 14.00 3580 6670 (2002) 75 (1977) 2060 91 101 149 192 1690 3400 3460 4670 6050
2020-05-13 14:45 13.12 3010 6670 (2002) 75 (1977) 2060 91 101 149 192 1690 3400 3460 4670 6050
2020-05-13 13:45 12.92 2880 6670 (2002) 75 (1977) 2060 91 101 149 192 1690 3400 3460 4670 6050
2020-05-13 12:45 14.08 3640 6670 (2002) 75 (1977) 2060 91 101 149 192 1690 3400 3460 4670 6050
2020-05-13 11:45 15.31 4520 6670 (2002) 75 (1977) 2060 91 101 149 192 1690 3400 3460 4670 6050
2020-05-13 10:45 16.37 5350 6670 (2002) 75 (1977) 2060 91 101 149 192 1690 3400 3460 4670 6050
2020-05-13 09:45 16.32 5310 6670 (2002) 75 (1977) 2060 91 101 149 192 1690 3400 3460 4670 6050
2020-05-13 08:45 16.11 5140 6670 (2002) 75 (1977) 2060 91 101 149 192 1690 3400 3460 4670 6050
2020-05-13 07:45 15.74 4850 6670 (2002) 75 (1977) 2060 91 101 149 192 1690 3400 3460 4670 6050
2020-05-13 06:45 15.25 4480 6670 (2002) 75 (1977) 2060 91 101 149 192 1690 3400 3460 4670 6050
2020-05-13 05:45 14.60 4000 6670 (2002) 75 (1977) 2060 91 101 149 192 1690 3400 3460 4670 6050
2020-05-13 04:45 13.60 3320 6670 (2002) 75 (1977) 2060 91 101 149 192 1690 3400 3460 4670 6050
2020-05-13 03:45 12.33 2530 6670 (2002) 75 (1977) 2060 91 101 149 192 1690 3400 3460 4670 6050
2020-05-13 02:45 12.04 2360 6670 (2002) 75 (1977) 2060 91 101 149 192 1690 3400 3460 4670 6050
2020-05-13 01:45 13.04 2960 6670 (2002) 75 (1977) 2060 91 101 149 192 1690 3400 3460 4670 6050
2020-05-13 00:45 14.25 3760 6670 (2002) 75 (1977) 2060 91 101 149 192 1690 3400 3460 4670 6050
2020-05-12 23:45 15.49 4660 6240 (2013) 78 (1977) 1810 92 108 153 367 1660 2910 3300 3770 4930
2020-05-12 22:45 16.55 5500 6240 (2013) 78 (1977) 1810 92 108 153 367 1660 2910 3300 3770 4930
2020-05-12 21:45 16.59 5530 6240 (2013) 78 (1977) 1810 92 108 153 367 1660 2910 3300 3770 4930
2020-05-12 20:45 16.67 5600 6240 (2013) 78 (1977) 1810 92 108 153 367 1660 2910 3300 3770 4930
2020-05-12 19:45 16.33 5320 6240 (2013) 78 (1977) 1810 92 108 153 367 1660 2910 3300 3770 4930
2020-05-12 18:45 15.87 4950 6240 (2013) 78 (1977) 1810 92 108 153 367 1660 2910 3300 3770 4930
2020-05-12 17:45 15.40 4590 6240 (2013) 78 (1977) 1810 92 108 153 367 1660 2910 3300 3770 4930
2020-05-12 16:45 14.90 4220 6240 (2013) 78 (1977) 1810 92 108 153 367 1660 2910 3300 3770 4930
2020-05-12 15:45 14.22 3730 6240 (2013) 78 (1977) 1810 92 108 153 367 1660 2910 3300 3770 4930
2020-05-12 14:45 14.12 3670 6240 (2013) 78 (1977) 1810 92 108 153 367 1660 2910 3300 3770 4930
2020-05-12 13:45 15.25 4480 6240 (2013) 78 (1977) 1810 92 108 153 367 1660 2910 3300 3770 4930
2020-05-12 12:45 16.32 5310 6240 (2013) 78 (1977) 1810 92 108 153 367 1660 2910 3300 3770 4930
2020-05-12 11:45 16.37 5350 6240 (2013) 78 (1977) 1810 92 108 153 367 1660 2910 3300 3770 4930
2020-05-12 10:45 16.00 5060 6240 (2013) 78 (1977) 1810 92 108 153 367 1660 2910 3300 3770 4930
2020-05-12 09:45 15.57 4720 6240 (2013) 78 (1977) 1810 92 108 153 367 1660 2910 3300 3770 4930
2020-05-12 08:45 15.08 4350 6240 (2013) 78 (1977) 1810 92 108 153 367 1660 2910 3300 3770 4930
2020-05-12 07:45 14.17 3700 6240 (2013) 78 (1977) 1810 92 108 153 367 1660 2910 3300 3770 4930
2020-05-12 06:45 12.81 2810 6240 (2013) 78 (1977) 1810 92 108 153 367 1660 2910 3300 3770 4930
2020-05-12 05:45 10.54 1590 6240 (2013) 78 (1977) 1810 92 108 153 367 1660 2910 3300 3770 4930
2020-05-12 04:45 9.17 1020 6240 (2013) 78 (1977) 1810 92 108 153 367 1660 2910 3300 3770 4930
2020-05-12 03:45 9.81 1270 6240 (2013) 78 (1977) 1810 92 108 153 367 1660 2910 3300 3770 4930
2020-05-12 02:45 10.61 1620 6240 (2013) 78 (1977) 1810 92 108 153 367 1660 2910 3300 3770 4930
2020-05-12 01:45 11.59 2110 6240 (2013) 78 (1977) 1810 92 108 153 367 1660 2910 3300 3770 4930
2020-05-12 00:45 12.60 2690 6240 (2013) 78 (1977) 1810 92 108 153 367 1660 2910 3300 3770 4930
2020-05-11 23:45 13.83 3470 6400 (2013) 75 (1975) 1750 85 107 153 326 1420 2940 3320 3870 4430
2020-05-11 22:45 14.97 4270 6400 (2013) 75 (1975) 1750 85 107 153 326 1420 2940 3320 3870 4430
2020-05-11 21:45 15.93 5000 6400 (2013) 75 (1975) 1750 85 107 153 326 1420 2940 3320 3870 4430
2020-05-11 20:45 15.83 4920 6400 (2013) 75 (1975) 1750 85 107 153 326 1420 2940 3320 3870 4430
2020-05-11 19:45 15.38 4580 6400 (2013) 75 (1975) 1750 85 107 153 326 1420 2940 3320 3870 4430
2020-05-11 18:45 14.81 4150 6400 (2013) 75 (1975) 1750 85 107 153 326 1420 2940 3320 3870 4430
2020-05-11 17:45 14.10 3650 6400 (2013) 75 (1975) 1750 85 107 153 326 1420 2940 3320 3870 4430
2020-05-11 16:45 13.19 3050 6400 (2013) 75 (1975) 1750 85 107 153 326 1420 2940 3320 3870 4430
2020-05-11 15:45 13.08 2980 6400 (2013) 75 (1975) 1750 85 107 153 326 1420 2940 3320 3870 4430
2020-05-11 14:45 14.28 3780 6400 (2013) 75 (1975) 1750 85 107 153 326 1420 2940 3320 3870 4430
2020-05-11 13:45 15.42 4610 6400 (2013) 75 (1975) 1750 85 107 153 326 1420 2940 3320 3870 4430
2020-05-11 12:45 16.48 5440 6400 (2013) 75 (1975) 1750 85 107 153 326 1420 2940 3320 3870 4430
2020-05-11 11:45 16.53 5480 6400 (2013) 75 (1975) 1750 85 107 153 326 1420 2940 3320 3870 4430
2020-05-11 10:45 16.41 5390 6400 (2013) 75 (1975) 1750 85 107 153 326 1420 2940 3320 3870 4430
2020-05-11 09:45 16.24 5250 6400 (2013) 75 (1975) 1750 85 107 153 326 1420 2940 3320 3870 4430
2020-05-11 08:45 16.05 5100 6400 (2013) 75 (1975) 1750 85 107 153 326 1420 2940 3320 3870 4430
2020-05-11 07:45 15.74 4850 6400 (2013) 75 (1975) 1750 85 107 153 326 1420 2940 3320 3870 4430
2020-05-11 06:45 15.32 4530 6400 (2013) 75 (1975) 1750 85 107 153 326 1420 2940 3320 3870 4430
2020-05-11 05:45 14.70 4070 6400 (2013) 75 (1975) 1750 85 107 153 326 1420 2940 3320 3870 4430
2020-05-11 04:45 13.94 3540 6400 (2013) 75 (1975) 1750 85 107 153 326 1420 2940 3320 3870 4430
2020-05-11 03:45 12.90 2870 6400 (2013) 75 (1975) 1750 85 107 153 326 1420 2940 3320 3870 4430
2020-05-11 02:45 12.70 2750 6400 (2013) 75 (1975) 1750 85 107 153 326 1420 2940 3320 3870 4430
2020-05-11 01:45 13.88 3500 6400 (2013) 75 (1975) 1750 85 107 153 326 1420 2940 3320 3870 4430
2020-05-11 00:45 15.10 4370 6400 (2013) 75 (1975) 1750 85 107 153 326 1420 2940 3320 3870 4430
2020-05-10 23:45 16.11 5140 5860 (2017) 74 (1981) 1610 88 113 192 310 761 2850 3040 3570 5170
2020-05-10 22:45 15.95 5020 5860 (2017) 74 (1981) 1610 88 113 192 310 761 2850 3040 3570 5170
2020-05-10 21:45 15.60 4740 5860 (2017) 74 (1981) 1610 88 113 192 310 761 2850 3040 3570 5170
2020-05-10 20:45 15.10 4370 5860 (2017) 74 (1981) 1610 88 113 192 310 761 2850 3040 3570 5170
2020-05-10 19:45 14.40 3860 5860 (2017) 74 (1981) 1610 88 113 192 310 761 2850 3040 3570 5170
2020-05-10 18:45 13.38 3170 5860 (2017) 74 (1981) 1610 88 113 192 310 761 2850 3040 3570 5170
2020-05-10 17:45 12.10 2390 5860 (2017) 74 (1981) 1610 88 113 192 310 761 2850 3040 3570 5170
2020-05-10 16:45 11.81 2230 5860 (2017) 74 (1981) 1610 88 113 192 310 761 2850 3040 3570 5170
2020-05-10 15:45 12.98 2920 5860 (2017) 74 (1981) 1610 88 113 192 310 761 2850 3040 3570 5170
2020-05-10 14:45 14.17 3700 5860 (2017) 74 (1981) 1610 88 113 192 310 761 2850 3040 3570 5170
2020-05-10 13:45 15.49 4660 5860 (2017) 74 (1981) 1610 88 113 192 310 761 2850 3040 3570 5170
2020-05-10 12:45 16.52 5480 5860 (2017) 74 (1981) 1610 88 113 192 310 761 2850 3040 3570 5170
2020-05-10 11:45 16.57 5520 5860 (2017) 74 (1981) 1610 88 113 192 310 761 2850 3040 3570 5170
2020-05-10 10:45 16.46 5430 5860 (2017) 74 (1981) 1610 88 113 192 310 761 2850 3040 3570 5170
2020-05-10 09:45 16.27 5270 5860 (2017) 74 (1981) 1610 88 113 192 310 761 2850 3040 3570 5170
2020-05-10 08:45 16.11 5140 5860 (2017) 74 (1981) 1610 88 113 192 310 761 2850 3040 3570 5170
2020-05-10 07:45 15.75 4860 5860 (2017) 74 (1981) 1610 88 113 192 310 761 2850 3040 3570 5170
2020-05-10 06:45 15.37 4570 5860 (2017) 74 (1981) 1610 88 113 192 310 761 2850 3040 3570 5170
2020-05-10 05:45 14.77 4120 5860 (2017) 74 (1981) 1610 88 113 192 310 761 2850 3040 3570 5170
2020-05-10 04:45 14.01 3590 5860 (2017) 74 (1981) 1610 88 113 192 310 761 2850 3040 3570 5170
2020-05-10 03:45 13.02 2940 5860 (2017) 74 (1981) 1610 88 113 192 310 761 2850 3040 3570 5170
2020-05-10 02:45 12.90 2870 5860 (2017) 74 (1981) 1610 88 113 192 310 761 2850 3040 3570 5170
2020-05-10 01:45 14.03 3600 5860 (2017) 74 (1981) 1610 88 113 192 310 761 2850 3040 3570 5170
2020-05-10 00:45 15.31 4520 5860 (2017) 74 (1981) 1610 88 113 192 310 761 2850 3040 3570 5170
2020-05-09 23:45 16.27 5270 6000 (2017) 69 (1981) 1800 94 101 133 348 1560 2870 3230 3980 4730
2020-05-09 22:45 16.21 5220 6000 (2017) 69 (1981) 1800 94 101 133 348 1560 2870 3230 3980 4730
2020-05-09 21:45 16.00 5060 6000 (2017) 69 (1981) 1800 94 101 133 348 1560 2870 3230 3980 4730
2020-05-09 20:45 15.67 4800 6000 (2017) 69 (1981) 1800 94 101 133 348 1560 2870 3230 3980 4730
2020-05-09 19:45 15.17 4420 6000 (2017) 69 (1981) 1800 94 101 133 348 1560 2870 3230 3980 4730
2020-05-09 18:45 14.54 3960 6000 (2017) 69 (1981) 1800 94 101 133 348 1560 2870 3230 3980 4730
2020-05-09 17:45 13.47 3230 6000 (2017) 69 (1981) 1800 94 101 133 348 1560 2870 3230 3980 4730
2020-05-09 16:45 12.24 2470 6000 (2017) 69 (1981) 1800 94 101 133 348 1560 2870 3230 3980 4730
2020-05-09 15:45 11.89 2270 6000 (2017) 69 (1981) 1800 94 101 133 348 1560 2870 3230 3980 4730
2020-05-09 14:45 12.88 2860 6000 (2017) 69 (1981) 1800 94 101 133 348 1560 2870 3230 3980 4730
2020-05-09 13:45 14.12 3670 6000 (2017) 69 (1981) 1800 94 101 133 348 1560 2870 3230 3980 4730
2020-05-09 12:45 15.47 4650 6000 (2017) 69 (1981) 1800 94 101 133 348 1560 2870 3230 3980 4730
2020-05-09 11:45 16.42 5390 6000 (2017) 69 (1981) 1800 94 101 133 348 1560 2870 3230 3980 4730
2020-05-09 10:45 16.45 5420 6000 (2017) 69 (1981) 1800 94 101 133 348 1560 2870 3230 3980 4730
2020-05-09 09:45 16.28 5280 6000 (2017) 69 (1981) 1800 94 101 133 348 1560 2870 3230 3980 4730
2020-05-09 08:45 16.04 5090 6000 (2017) 69 (1981) 1800 94 101 133 348 1560 2870 3230 3980 4730
2020-05-09 07:45 15.74 4850 6000 (2017) 69 (1981) 1800 94 101 133 348 1560 2870 3230 3980 4730
2020-05-09 06:45 15.23 4460 6000 (2017) 69 (1981) 1800 94 101 133 348 1560 2870 3230 3980 4730
2020-05-09 05:45 14.61 4010 6000 (2017) 69 (1981) 1800 94 101 133 348 1560 2870 3230 3980 4730
2020-05-09 04:45 13.60 3320 6000 (2017) 69 (1981) 1800 94 101 133 348 1560 2870 3230 3980 4730
2020-05-09 03:45 12.39 2560 6000 (2017) 69 (1981) 1800 94 101 133 348 1560 2870 3230 3980 4730
2020-05-09 02:45 12.11 2400 6000 (2017) 69 (1981) 1800 94 101 133 348 1560 2870 3230 3980 4730
2020-05-09 01:45 13.18 3040 6000 (2017) 69 (1981) 1800 94 101 133 348 1560 2870 3230 3980 4730
2020-05-09 00:45 14.40 3860 6000 (2017) 69 (1981) 1800 94 101 133 348 1560 2870 3230 3980 4730
2020-05-08 23:45 15.63 4770 6570 (2009) 68 (1981) 1940 74 109 172 371 1480 2930 3040 4520 5870
2020-05-08 22:45 16.72 5640 6570 (2009) 68 (1981) 1940 74 109 172 371 1480 2930 3040 4520 5870
2020-05-08 21:45 16.76 5670 6570 (2009) 68 (1981) 1940 74 109 172 371 1480 2930 3040 4520 5870
2020-05-08 20:45 16.63 5570 6570 (2009) 68 (1981) 1940 74 109 172 371 1480 2930 3040 4520 5870
2020-05-08 19:45 16.42 5390 6570 (2009) 68 (1981) 1940 74 109 172 371 1480 2930 3040 4520 5870
2020-05-08 18:45 16.19 5210 6570 (2009) 68 (1981) 1940 74 109 172 371 1480 2930 3040 4520 5870
2020-05-08 17:45 15.69 4810 6570 (2009) 68 (1981) 1940 74 109 172 371 1480 2930 3040 4520 5870
2020-05-08 16:45 15.12 4380 6570 (2009) 68 (1981) 1940 74 109 172 371 1480 2930 3040 4520 5870
2020-05-08 15:45 14.44 3890 6570 (2009) 68 (1981) 1940 74 109 172 371 1480 2930 3040 4520 5870
2020-05-08 14:45 13.47 3230 6570 (2009) 68 (1981) 1940 74 109 172 371 1480 2930 3040 4520 5870
2020-05-08 13:45 13.14 3020 6570 (2009) 68 (1981) 1940 74 109 172 371 1480 2930 3040 4520 5870
2020-05-08 12:45 14.24 3750 6570 (2009) 68 (1981) 1940 74 109 172 371 1480 2930 3040 4520 5870
2020-05-08 11:45 15.36 4560 6570 (2009) 68 (1981) 1940 74 109 172 371 1480 2930 3040 4520 5870
2020-05-08 10:45 16.39 5370 6570 (2009) 68 (1981) 1940 74 109 172 371 1480 2930 3040 4520 5870
2020-05-08 09:45 16.33 5320 6570 (2009) 68 (1981) 1940 74 109 172 371 1480 2930 3040 4520 5870
2020-05-08 08:45 16.07 5110 6570 (2009) 68 (1981) 1940 74 109 172 371 1480 2930 3040 4520 5870
2020-05-08 07:45 15.71 4830 6570 (2009) 68 (1981) 1940 74 109 172 371 1480 2930 3040 4520 5870
2020-05-08 06:45 15.22 4460 6570 (2009) 68 (1981) 1940 74 109 172 371 1480 2930 3040 4520 5870
2020-05-08 05:45 14.53 3950 6570 (2009) 68 (1981) 1940 74 109 172 371 1480 2930 3040 4520 5870
2020-05-08 04:45 13.42 3200 6570 (2009) 68 (1981) 1940 74 109 172 371 1480 2930 3040 4520 5870
2020-05-08 03:45 12.16 2430 6570 (2009) 68 (1981) 1940 74 109 172 371 1480 2930 3040 4520 5870
2020-05-08 02:45 11.87 2260 6570 (2009) 68 (1981) 1940 74 109 172 371 1480 2930 3040 4520 5870
2020-05-08 01:45 12.93 2890 6570 (2009) 68 (1981) 1940 74 109 172 371 1480 2930 3040 4520 5870
2020-05-08 00:45 14.10 3650 6570 (2009) 68 (1981) 1940 74 109 172 371 1480 2930 3040 4520 5870
2020-05-07 23:45 15.33 4540 6190 (2017) 69 (1981) 1980 75 92 241 382 1540 3230 3400 4410 5290
2020-05-07 22:45 16.44 5410 6190 (2017) 69 (1981) 1980 75 92 241 382 1540 3230 3400 4410 5290
2020-05-07 21:45 16.51 5470 6190 (2017) 69 (1981) 1980 75 92 241 382 1540 3230 3400 4410 5290
2020-05-07 20:45 16.26 5260 6190 (2017) 69 (1981) 1980 75 92 241 382 1540 3230 3400 4410 5290
2020-05-07 19:45 16.07 5110 6190 (2017) 69 (1981) 1980 75 92 241 382 1540 3230 3400 4410 5290
2020-05-07 18:45 15.77 4880 6190 (2017) 69 (1981) 1980 75 92 241 382 1540 3230 3400 4410 5290
2020-05-07 17:45 15.38 4580 6190 (2017) 69 (1981) 1980 75 92 241 382 1540 3230 3400 4410 5290
2020-05-07 16:45 14.73 4100 6190 (2017) 69 (1981) 1980 75 92 241 382 1540 3230 3400 4410 5290
2020-05-07 15:45 13.92 3530 6190 (2017) 69 (1981) 1980 75 92 241 382 1540 3230 3400 4410 5290
2020-05-07 14:45 12.97 2910 6190 (2017) 69 (1981) 1980 75 92 241 382 1540 3230 3400 4410 5290
2020-05-07 13:45 12.84 2830 6190 (2017) 69 (1981) 1980 75 92 241 382 1540 3230 3400 4410 5290
2020-05-07 12:45 13.99 3580 6190 (2017) 69 (1981) 1980 75 92 241 382 1540 3230 3400 4410 5290
2020-05-07 11:45 15.16 4410 6190 (2017) 69 (1981) 1980 75 92 241 382 1540 3230 3400 4410 5290
2020-05-07 10:45 16.21 5220 6190 (2017) 69 (1981) 1980 75 92 241 382 1540 3230 3400 4410 5290
2020-05-07 09:45 16.17 5190 6190 (2017) 69 (1981) 1980 75 92 241 382 1540 3230